<?xml version="1.0" encoding="UTF-8" standalone="yes"?>
<gpx
 xmlns="http://www.topografix.com/GPX/1/1"
 creator="OziExplorer Version 396 - http://www.oziexplorer.com"
 version="1.1"
 xmlns:xsi="http://www.w3.org/2001/XMLSchema-instance"
 xsi:schemaLocation="http://www.topografix.com/GPX/1/1 http://www.topografix.com/GPX/1/1/gpx.xsd">
<metadata>
 <time>2025-12-29T08:41:24Z</time>
 <bounds minlat="30.907830" minlon="35.205000" maxlat="30.957750" maxlon="35.378540"/>
</metadata>
<wpt lat="30.9252700" lon="35.2101300">
 <time>2025-12-29T10:40:13.977Z</time>
 <name>GEVEY-SHAISH</name>
</wpt>
<wpt lat="30.9418900" lon="35.3683100">
 <time>2025-12-29T10:40:13.991Z</time>
 <name>Start\Fin</name>
</wpt>
<wpt lat="30.9205700" lon="35.2790000">
 <time>2025-12-29T10:40:13.991Z</time>
 <name>Trassa90</name>
</wpt>
<wpt lat="30.9265400" lon="35.2631800">
 <time>2025-12-29T10:40:13.992Z</time>
 <name>Marpeset</name>
</wpt>
<wpt lat="30.9332000" lon="35.2427500">
 <time>2025-12-29T10:40:13.992Z</time>
 <name>Mapal</name>
</wpt>
<wpt lat="30.9270200" lon="35.2094300">
 <time>2025-12-29T10:40:13.992Z</time>
 <name>Tatspit</name>
</wpt>
<wpt lat="30.9560920" lon="35.3638920">
 <time>2025-12-29T10:40:13.993Z</time>
 <name>HiddenSpring</name>
</wpt>
<trk>
 <name>EinTamar-GevShaish-Harits,58m,770m</name>
 <desc>EinTamar-GevShaish-Harits,58m,770m</desc>
<trkseg>
<trkpt lat="30.9419700" lon="35.3682300">
<ele>-355.370026</ele>
<time>2025-12-29T10:40:13.993Z</time>
</trkpt>
<trkpt lat="30.9418700" lon="35.3680300">
<ele>-355.460022</ele>
<time>2025-12-29T10:40:13.993Z</time>
</trkpt>
<trkpt lat="30.9417400" lon="35.3678600">
<ele>-354.529999</ele>
<time>2025-12-29T10:40:13.993Z</time>
</trkpt>
<trkpt lat="30.9417400" lon="35.3678700">
<ele>-354.529999</ele>
<time>2025-12-29T10:40:13.993Z</time>
</trkpt>
<trkpt lat="30.9415500" lon="35.3676400">
<ele>-353.500000</ele>
<time>2025-12-29T10:40:13.993Z</time>
</trkpt>
<trkpt lat="30.9412400" lon="35.3672400">
<ele>-353.100006</ele>
<time>2025-12-29T10:40:13.993Z</time>
</trkpt>
<trkpt lat="30.9409200" lon="35.3668500">
<ele>-350.209991</ele>
<time>2025-12-29T10:40:13.993Z</time>
</trkpt>
<trkpt lat="30.9406100" lon="35.3664500">
<ele>-348.570007</ele>
<time>2025-12-29T10:40:13.993Z</time>
</trkpt>
<trkpt lat="30.9402900" lon="35.3660600">
<ele>-346.399994</ele>
<time>2025-12-29T10:40:13.993Z</time>
</trkpt>
<trkpt lat="30.9399100" lon="35.3657500">
<ele>-345.100006</ele>
<time>2025-12-29T10:40:13.993Z</time>
</trkpt>
<trkpt lat="30.9395200" lon="35.3655900">
<ele>-343.709991</ele>
<time>2025-12-29T10:40:13.993Z</time>
</trkpt>
<trkpt lat="30.9389100" lon="35.3654400">
<ele>-336.500031</ele>
<time>2025-12-29T10:40:13.993Z</time>
</trkpt>
<trkpt lat="30.9382900" lon="35.3652900">
<ele>-336.070007</ele>
<time>2025-12-29T10:40:13.993Z</time>
</trkpt>
<trkpt lat="30.9378100" lon="35.3649900">
<ele>-341.700012</ele>
<time>2025-12-29T10:40:13.993Z</time>
</trkpt>
<trkpt lat="30.9374200" lon="35.3646600">
<ele>-348.910004</ele>
<time>2025-12-29T10:40:13.993Z</time>
</trkpt>
<trkpt lat="30.9370200" lon="35.3643300">
<ele>-344.169983</ele>
<time>2025-12-29T10:40:13.993Z</time>
</trkpt>
<trkpt lat="30.9366300" lon="35.3639100">
<ele>-342.209991</ele>
<time>2025-12-29T10:40:13.993Z</time>
</trkpt>
<trkpt lat="30.9362400" lon="35.3634800">
<ele>-337.119995</ele>
<time>2025-12-29T10:40:13.993Z</time>
</trkpt>
<trkpt lat="30.9358800" lon="35.3629100">
<ele>-333.820007</ele>
<time>2025-12-29T10:40:13.993Z</time>
</trkpt>
<trkpt lat="30.9356800" lon="35.3624100">
<ele>-338.179993</ele>
<time>2025-12-29T10:40:13.993Z</time>
</trkpt>
<trkpt lat="30.9354700" lon="35.3619200">
<ele>-336.240021</ele>
<time>2025-12-29T10:40:13.993Z</time>
</trkpt>
<trkpt lat="30.9352700" lon="35.3614200">
<ele>-336.700012</ele>
<time>2025-12-29T10:40:13.993Z</time>
</trkpt>
<trkpt lat="30.9352100" lon="35.3606600">
<ele>-339.399994</ele>
<time>2025-12-29T10:40:13.993Z</time>
</trkpt>
<trkpt lat="30.9351500" lon="35.3599000">
<ele>-337.089996</ele>
<time>2025-12-29T10:40:13.993Z</time>
</trkpt>
<trkpt lat="30.9350600" lon="35.3593600">
<ele>-340.919983</ele>
<time>2025-12-29T10:40:13.993Z</time>
</trkpt>
<trkpt lat="30.9349800" lon="35.3588200">
<ele>-340.260010</ele>
<time>2025-12-29T10:40:13.993Z</time>
</trkpt>
<trkpt lat="30.9348900" lon="35.3582800">
<ele>-341.220001</ele>
<time>2025-12-29T10:40:13.993Z</time>
</trkpt>
<trkpt lat="30.9346800" lon="35.3577700">
<ele>-341.269989</ele>
<time>2025-12-29T10:40:13.993Z</time>
</trkpt>
<trkpt lat="30.9344600" lon="35.3572600">
<ele>-340.640015</ele>
<time>2025-12-29T10:40:13.993Z</time>
</trkpt>
<trkpt lat="30.9340800" lon="35.3567400">
<ele>-342.419983</ele>
<time>2025-12-29T10:40:13.993Z</time>
</trkpt>
<trkpt lat="30.9337000" lon="35.3562300">
<ele>-335.940002</ele>
<time>2025-12-29T10:40:13.993Z</time>
</trkpt>
<trkpt lat="30.9332000" lon="35.3560000">
<ele>-336.750000</ele>
<time>2025-12-29T10:40:13.993Z</time>
</trkpt>
<trkpt lat="30.9328000" lon="35.3558200">
<ele>-339.660004</ele>
<time>2025-12-29T10:40:13.993Z</time>
</trkpt>
<trkpt lat="30.9328000" lon="35.3558200">
<ele>-339.660004</ele>
<time>2025-12-29T10:40:13.993Z</time>
</trkpt>
<trkpt lat="30.9328100" lon="35.3558200">
<ele>-339.589996</ele>
<time>2025-12-29T10:40:13.993Z</time>
</trkpt>
<trkpt lat="30.9327000" lon="35.3557700">
<ele>-338.380005</ele>
<time>2025-12-29T10:40:13.993Z</time>
</trkpt>
<trkpt lat="30.9317900" lon="35.3555700">
<ele>-329.339996</ele>
<time>2025-12-29T10:40:13.993Z</time>
</trkpt>
<trkpt lat="30.9314800" lon="35.3556300">
<ele>-329.579987</ele>
<time>2025-12-29T10:40:13.993Z</time>
</trkpt>
<trkpt lat="30.9310900" lon="35.3556300">
<ele>-324.959991</ele>
<time>2025-12-29T10:40:13.993Z</time>
</trkpt>
<trkpt lat="30.9285400" lon="35.3556100">
<ele>-329.550018</ele>
<time>2025-12-29T10:40:13.993Z</time>
</trkpt>
<trkpt lat="30.9281800" lon="35.3554800">
<ele>-329.679993</ele>
<time>2025-12-29T10:40:13.993Z</time>
</trkpt>
<trkpt lat="30.9277900" lon="35.3551400">
<ele>-329.850006</ele>
<time>2025-12-29T10:40:13.993Z</time>
</trkpt>
<trkpt lat="30.9273400" lon="35.3544900">
<ele>-330.679993</ele>
<time>2025-12-29T10:40:13.993Z</time>
</trkpt>
<trkpt lat="30.9267500" lon="35.3533600">
<ele>-328.299988</ele>
<time>2025-12-29T10:40:13.993Z</time>
</trkpt>
<trkpt lat="30.9259700" lon="35.3527100">
<ele>-324.179993</ele>
<time>2025-12-29T10:40:13.993Z</time>
</trkpt>
<trkpt lat="30.9247400" lon="35.3518400">
<ele>-315.780029</ele>
<time>2025-12-29T10:40:13.993Z</time>
</trkpt>
<trkpt lat="30.9243400" lon="35.3515500">
<ele>-320.060028</ele>
<time>2025-12-29T10:40:13.993Z</time>
</trkpt>
<trkpt lat="30.9241800" lon="35.3512800">
<ele>-320.779999</ele>
<time>2025-12-29T10:40:13.993Z</time>
</trkpt>
<trkpt lat="30.9238700" lon="35.3504500">
<ele>-324.519989</ele>
<time>2025-12-29T10:40:13.993Z</time>
</trkpt>
<trkpt lat="30.9234000" lon="35.3499500">
<ele>-325.289978</ele>
<time>2025-12-29T10:40:13.993Z</time>
</trkpt>
<trkpt lat="30.9231300" lon="35.3496000">
<ele>-324.179993</ele>
<time>2025-12-29T10:40:13.993Z</time>
</trkpt>
<trkpt lat="30.9230100" lon="35.3493500">
<ele>-323.050018</ele>
<time>2025-12-29T10:40:13.993Z</time>
</trkpt>
<trkpt lat="30.9230100" lon="35.3493500">
<ele>-323.050018</ele>
<time>2025-12-29T10:40:13.993Z</time>
</trkpt>
<trkpt lat="30.9229500" lon="35.3492300">
<ele>-321.989990</ele>
<time>2025-12-29T10:40:13.993Z</time>
</trkpt>
<trkpt lat="30.9226600" lon="35.3488300">
<ele>-321.330017</ele>
<time>2025-12-29T10:40:13.993Z</time>
</trkpt>
<trkpt lat="30.9223200" lon="35.3480900">
<ele>-320.459991</ele>
<time>2025-12-29T10:40:13.993Z</time>
</trkpt>
<trkpt lat="30.9221400" lon="35.3476200">
<ele>-317.010010</ele>
<time>2025-12-29T10:40:13.993Z</time>
</trkpt>
<trkpt lat="30.9220600" lon="35.3466600">
<ele>-321.219971</ele>
<time>2025-12-29T10:40:13.993Z</time>
</trkpt>
<trkpt lat="30.9219100" lon="35.3460600">
<ele>-324.059998</ele>
<time>2025-12-29T10:40:13.993Z</time>
</trkpt>
<trkpt lat="30.9216000" lon="35.3456100">
<ele>-319.760010</ele>
<time>2025-12-29T10:40:13.993Z</time>
</trkpt>
<trkpt lat="30.9211300" lon="35.3450000">
<ele>-317.069977</ele>
<time>2025-12-29T10:40:13.993Z</time>
</trkpt>
<trkpt lat="30.9205600" lon="35.3440600">
<ele>-318.260010</ele>
<time>2025-12-29T10:40:13.993Z</time>
</trkpt>
<trkpt lat="30.9205000" lon="35.3439200">
<ele>-316.420013</ele>
<time>2025-12-29T10:40:13.993Z</time>
</trkpt>
<trkpt lat="30.9201500" lon="35.3434100">
<ele>-310.029999</ele>
<time>2025-12-29T10:40:13.993Z</time>
</trkpt>
<trkpt lat="30.9197000" lon="35.3431400">
<ele>-312.880005</ele>
<time>2025-12-29T10:40:13.993Z</time>
</trkpt>
<trkpt lat="30.9190400" lon="35.3427900">
<ele>-314.150024</ele>
<time>2025-12-29T10:40:13.993Z</time>
</trkpt>
<trkpt lat="30.9185900" lon="35.3423600">
<ele>-313.540009</ele>
<time>2025-12-29T10:40:13.993Z</time>
</trkpt>
<trkpt lat="30.9184300" lon="35.3420500">
<ele>-314.250000</ele>
<time>2025-12-29T10:40:13.993Z</time>
</trkpt>
<trkpt lat="30.9181500" lon="35.3416700">
<ele>-313.680023</ele>
<time>2025-12-29T10:40:13.993Z</time>
</trkpt>
<trkpt lat="30.9177000" lon="35.3412400">
<ele>-311.179993</ele>
<time>2025-12-29T10:40:13.993Z</time>
</trkpt>
<trkpt lat="30.9175400" lon="35.3408900">
<ele>-310.029999</ele>
<time>2025-12-29T10:40:13.993Z</time>
</trkpt>
<trkpt lat="30.9175100" lon="35.3403000">
<ele>-307.950012</ele>
<time>2025-12-29T10:40:13.993Z</time>
</trkpt>
<trkpt lat="30.9175600" lon="35.3399600">
<ele>-307.630005</ele>
<time>2025-12-29T10:40:13.993Z</time>
</trkpt>
<trkpt lat="30.9179400" lon="35.3390700">
<ele>-310.559998</ele>
<time>2025-12-29T10:40:13.993Z</time>
</trkpt>
<trkpt lat="30.9179700" lon="35.3385900">
<ele>-313.190002</ele>
<time>2025-12-29T10:40:13.993Z</time>
</trkpt>
<trkpt lat="30.9179400" lon="35.3380200">
<ele>-311.559998</ele>
<time>2025-12-29T10:40:13.993Z</time>
</trkpt>
<trkpt lat="30.9177700" lon="35.3372000">
<ele>-312.000000</ele>
<time>2025-12-29T10:40:13.993Z</time>
</trkpt>
<trkpt lat="30.9173100" lon="35.3357700">
<ele>-310.239990</ele>
<time>2025-12-29T10:40:13.993Z</time>
</trkpt>
<trkpt lat="30.9171400" lon="35.3347600">
<ele>-306.149994</ele>
<time>2025-12-29T10:40:13.993Z</time>
</trkpt>
<trkpt lat="30.9169500" lon="35.3326400">
<ele>-300.690002</ele>
<time>2025-12-29T10:40:13.993Z</time>
</trkpt>
<trkpt lat="30.9168600" lon="35.3320500">
<ele>-301.619995</ele>
<time>2025-12-29T10:40:13.993Z</time>
</trkpt>
<trkpt lat="30.9166100" lon="35.3313700">
<ele>-296.169983</ele>
<time>2025-12-29T10:40:13.993Z</time>
</trkpt>
<trkpt lat="30.9159300" lon="35.3303700">
<ele>-273.450012</ele>
<time>2025-12-29T10:40:13.993Z</time>
</trkpt>
<trkpt lat="30.9157400" lon="35.3302700">
<ele>-271.760010</ele>
<time>2025-12-29T10:40:13.993Z</time>
</trkpt>
<trkpt lat="30.9157400" lon="35.3302700">
<ele>-271.760010</ele>
<time>2025-12-29T10:40:13.993Z</time>
</trkpt>
<trkpt lat="30.9155900" lon="35.3301900">
<ele>-273.760010</ele>
<time>2025-12-29T10:40:13.993Z</time>
</trkpt>
<trkpt lat="30.9150000" lon="35.3300800">
<ele>-290.149994</ele>
<time>2025-12-29T10:40:13.993Z</time>
</trkpt>
<trkpt lat="30.9135200" lon="35.3297200">
<ele>-299.649994</ele>
<time>2025-12-29T10:40:13.993Z</time>
</trkpt>
<trkpt lat="30.9127400" lon="35.3295100">
<ele>-298.519989</ele>
<time>2025-12-29T10:40:13.993Z</time>
</trkpt>
<trkpt lat="30.9120500" lon="35.3292500">
<ele>-297.540009</ele>
<time>2025-12-29T10:40:13.993Z</time>
</trkpt>
<trkpt lat="30.9116700" lon="35.3290900">
<ele>-297.010010</ele>
<time>2025-12-29T10:40:13.993Z</time>
</trkpt>
<trkpt lat="30.9112000" lon="35.3289200">
<ele>-296.040009</ele>
<time>2025-12-29T10:40:13.993Z</time>
</trkpt>
<trkpt lat="30.9108100" lon="35.3282500">
<ele>-295.640015</ele>
<time>2025-12-29T10:40:13.993Z</time>
</trkpt>
<trkpt lat="30.9107000" lon="35.3277600">
<ele>-291.279999</ele>
<time>2025-12-29T10:40:13.993Z</time>
</trkpt>
<trkpt lat="30.9105800" lon="35.3258900">
<ele>-280.809998</ele>
<time>2025-12-29T10:40:13.993Z</time>
</trkpt>
<trkpt lat="30.9103200" lon="35.3254200">
<ele>-287.259979</ele>
<time>2025-12-29T10:40:13.993Z</time>
</trkpt>
<trkpt lat="30.9100100" lon="35.3251300">
<ele>-293.380005</ele>
<time>2025-12-29T10:40:13.993Z</time>
</trkpt>
<trkpt lat="30.9097900" lon="35.3247600">
<ele>-291.910004</ele>
<time>2025-12-29T10:40:13.993Z</time>
</trkpt>
<trkpt lat="30.9096400" lon="35.3242800">
<ele>-290.589996</ele>
<time>2025-12-29T10:40:13.993Z</time>
</trkpt>
<trkpt lat="30.9096600" lon="35.3236900">
<ele>-295.139984</ele>
<time>2025-12-29T10:40:13.993Z</time>
</trkpt>
<trkpt lat="30.9094500" lon="35.3229800">
<ele>-292.769989</ele>
<time>2025-12-29T10:40:13.993Z</time>
</trkpt>
<trkpt lat="30.9091100" lon="35.3224500">
<ele>-292.019989</ele>
<time>2025-12-29T10:40:13.993Z</time>
</trkpt>
<trkpt lat="30.9087800" lon="35.3216200">
<ele>-288.359985</ele>
<time>2025-12-29T10:40:13.993Z</time>
</trkpt>
<trkpt lat="30.9086600" lon="35.3211800">
<ele>-284.970001</ele>
<time>2025-12-29T10:40:13.993Z</time>
</trkpt>
<trkpt lat="30.9085400" lon="35.3209700">
<ele>-285.260010</ele>
<time>2025-12-29T10:40:13.993Z</time>
</trkpt>
<trkpt lat="30.9085600" lon="35.3206400">
<ele>-284.739990</ele>
<time>2025-12-29T10:40:13.993Z</time>
</trkpt>
<trkpt lat="30.9085200" lon="35.3201300">
<ele>-282.429993</ele>
<time>2025-12-29T10:40:13.993Z</time>
</trkpt>
<trkpt lat="30.9085100" lon="35.3196200">
<ele>-281.230011</ele>
<time>2025-12-29T10:40:13.993Z</time>
</trkpt>
<trkpt lat="30.9085200" lon="35.3191500">
<ele>-280.640015</ele>
<time>2025-12-29T10:40:13.993Z</time>
</trkpt>
<trkpt lat="30.9085100" lon="35.3187600">
<ele>-281.119995</ele>
<time>2025-12-29T10:40:13.993Z</time>
</trkpt>
<trkpt lat="30.9083900" lon="35.3178900">
<ele>-282.550018</ele>
<time>2025-12-29T10:40:13.993Z</time>
</trkpt>
<trkpt lat="30.9083700" lon="35.3176400">
<ele>-282.140015</ele>
<time>2025-12-29T10:40:13.993Z</time>
</trkpt>
<trkpt lat="30.9083900" lon="35.3173100">
<ele>-281.369995</ele>
<time>2025-12-29T10:40:13.993Z</time>
</trkpt>
<trkpt lat="30.9084800" lon="35.3167400">
<ele>-277.350006</ele>
<time>2025-12-29T10:40:13.993Z</time>
</trkpt>
<trkpt lat="30.9085100" lon="35.3164100">
<ele>-273.859985</ele>
<time>2025-12-29T10:40:13.993Z</time>
</trkpt>
<trkpt lat="30.9085200" lon="35.3161500">
<ele>-270.970001</ele>
<time>2025-12-29T10:40:13.993Z</time>
</trkpt>
<trkpt lat="30.9084900" lon="35.3156400">
<ele>-271.850006</ele>
<time>2025-12-29T10:40:13.993Z</time>
</trkpt>
<trkpt lat="30.9085000" lon="35.3153600">
<ele>-272.880005</ele>
<time>2025-12-29T10:40:13.993Z</time>
</trkpt>
<trkpt lat="30.9085100" lon="35.3152900">
<ele>-272.980011</ele>
<time>2025-12-29T10:40:13.993Z</time>
</trkpt>
<trkpt lat="30.9085600" lon="35.3151500">
<ele>-273.079987</ele>
<time>2025-12-29T10:40:13.993Z</time>
</trkpt>
<trkpt lat="30.9086500" lon="35.3150600">
<ele>-272.850006</ele>
<time>2025-12-29T10:40:13.993Z</time>
</trkpt>
<trkpt lat="30.9089800" lon="35.3148500">
<ele>-272.960022</ele>
<time>2025-12-29T10:40:13.993Z</time>
</trkpt>
<trkpt lat="30.9092400" lon="35.3146400">
<ele>-273.049988</ele>
<time>2025-12-29T10:40:13.993Z</time>
</trkpt>
<trkpt lat="30.9095800" lon="35.3144800">
<ele>-273.320007</ele>
<time>2025-12-29T10:40:13.993Z</time>
</trkpt>
<trkpt lat="30.9099100" lon="35.3141100">
<ele>-270.100006</ele>
<time>2025-12-29T10:40:13.993Z</time>
</trkpt>
<trkpt lat="30.9100700" lon="35.3139000">
<ele>-268.649994</ele>
<time>2025-12-29T10:40:13.993Z</time>
</trkpt>
<trkpt lat="30.9103400" lon="35.3136700">
<ele>-270.209991</ele>
<time>2025-12-29T10:40:13.993Z</time>
</trkpt>
<trkpt lat="30.9104600" lon="35.3134100">
<ele>-270.809998</ele>
<time>2025-12-29T10:40:13.993Z</time>
</trkpt>
<trkpt lat="30.9104600" lon="35.3132600">
<ele>-269.850006</ele>
<time>2025-12-29T10:40:13.993Z</time>
</trkpt>
<trkpt lat="30.9104100" lon="35.3131100">
<ele>-268.410004</ele>
<time>2025-12-29T10:40:13.993Z</time>
</trkpt>
<trkpt lat="30.9102300" lon="35.3128000">
<ele>-264.979980</ele>
<time>2025-12-29T10:40:13.993Z</time>
</trkpt>
<trkpt lat="30.9101200" lon="35.3125400">
<ele>-262.369995</ele>
<time>2025-12-29T10:40:13.993Z</time>
</trkpt>
<trkpt lat="30.9101300" lon="35.3123300">
<ele>-261.279999</ele>
<time>2025-12-29T10:40:13.993Z</time>
</trkpt>
<trkpt lat="30.9101800" lon="35.3120100">
<ele>-258.290009</ele>
<time>2025-12-29T10:40:13.993Z</time>
</trkpt>
<trkpt lat="30.9102900" lon="35.3117400">
<ele>-256.570007</ele>
<time>2025-12-29T10:40:13.993Z</time>
</trkpt>
<trkpt lat="30.9105000" lon="35.3115700">
<ele>-259.440002</ele>
<time>2025-12-29T10:40:13.993Z</time>
</trkpt>
<trkpt lat="30.9108600" lon="35.3113500">
<ele>-264.140015</ele>
<time>2025-12-29T10:40:13.993Z</time>
</trkpt>
<trkpt lat="30.9110000" lon="35.3111400">
<ele>-265.420013</ele>
<time>2025-12-29T10:40:13.993Z</time>
</trkpt>
<trkpt lat="30.9110300" lon="35.3109700">
<ele>-263.429993</ele>
<time>2025-12-29T10:40:13.993Z</time>
</trkpt>
<trkpt lat="30.9110300" lon="35.3108400">
<ele>-261.559998</ele>
<time>2025-12-29T10:40:13.993Z</time>
</trkpt>
<trkpt lat="30.9109600" lon="35.3106500">
<ele>-260.139984</ele>
<time>2025-12-29T10:40:13.993Z</time>
</trkpt>
<trkpt lat="30.9109200" lon="35.3105900">
<ele>-260.269989</ele>
<time>2025-12-29T10:40:13.993Z</time>
</trkpt>
<trkpt lat="30.9106800" lon="35.3103800">
<ele>-258.149994</ele>
<time>2025-12-29T10:40:13.993Z</time>
</trkpt>
<trkpt lat="30.9105700" lon="35.3102600">
<ele>-256.750000</ele>
<time>2025-12-29T10:40:13.993Z</time>
</trkpt>
<trkpt lat="30.9104900" lon="35.3101100">
<ele>-255.989990</ele>
<time>2025-12-29T10:40:13.993Z</time>
</trkpt>
<trkpt lat="30.9104000" lon="35.3098300">
<ele>-256.869995</ele>
<time>2025-12-29T10:40:13.993Z</time>
</trkpt>
<trkpt lat="30.9103400" lon="35.3097300">
<ele>-258.420013</ele>
<time>2025-12-29T10:40:13.993Z</time>
</trkpt>
<trkpt lat="30.9102100" lon="35.3095700">
<ele>-256.260010</ele>
<time>2025-12-29T10:40:13.993Z</time>
</trkpt>
<trkpt lat="30.9100600" lon="35.3093100">
<ele>-252.990005</ele>
<time>2025-12-29T10:40:13.993Z</time>
</trkpt>
<trkpt lat="30.9100000" lon="35.3092500">
<ele>-253.200012</ele>
<time>2025-12-29T10:40:13.993Z</time>
</trkpt>
<trkpt lat="30.9098800" lon="35.3091800">
<ele>-254.700012</ele>
<time>2025-12-29T10:40:13.993Z</time>
</trkpt>
<trkpt lat="30.9097700" lon="35.3091400">
<ele>-256.759979</ele>
<time>2025-12-29T10:40:13.993Z</time>
</trkpt>
<trkpt lat="30.9091500" lon="35.3089800">
<ele>-256.220001</ele>
<time>2025-12-29T10:40:13.993Z</time>
</trkpt>
<trkpt lat="30.9091100" lon="35.3089600">
<ele>-256.209991</ele>
<time>2025-12-29T10:40:13.993Z</time>
</trkpt>
<trkpt lat="30.9090500" lon="35.3088500">
<ele>-256.940002</ele>
<time>2025-12-29T10:40:13.993Z</time>
</trkpt>
<trkpt lat="30.9090100" lon="35.3087200">
<ele>-257.260010</ele>
<time>2025-12-29T10:40:13.993Z</time>
</trkpt>
<trkpt lat="30.9090100" lon="35.3084800">
<ele>-256.990021</ele>
<time>2025-12-29T10:40:13.993Z</time>
</trkpt>
<trkpt lat="30.9090900" lon="35.3081600">
<ele>-253.160004</ele>
<time>2025-12-29T10:40:13.993Z</time>
</trkpt>
<trkpt lat="30.9090900" lon="35.3080100">
<ele>-250.959991</ele>
<time>2025-12-29T10:40:13.993Z</time>
</trkpt>
<trkpt lat="30.9091500" lon="35.3078800">
<ele>-249.979996</ele>
<time>2025-12-29T10:40:13.993Z</time>
</trkpt>
<trkpt lat="30.9092500" lon="35.3077500">
<ele>-250.130005</ele>
<time>2025-12-29T10:40:13.993Z</time>
</trkpt>
<trkpt lat="30.9093400" lon="35.3077000">
<ele>-251.389999</ele>
<time>2025-12-29T10:40:13.993Z</time>
</trkpt>
<trkpt lat="30.9094800" lon="35.3076800">
<ele>-252.799988</ele>
<time>2025-12-29T10:40:13.993Z</time>
</trkpt>
<trkpt lat="30.9100000" lon="35.3077900">
<ele>-246.780014</ele>
<time>2025-12-29T10:40:13.993Z</time>
</trkpt>
<trkpt lat="30.9100400" lon="35.3077800">
<ele>-245.809998</ele>
<time>2025-12-29T10:40:13.993Z</time>
</trkpt>
<trkpt lat="30.9100800" lon="35.3077200">
<ele>-244.929993</ele>
<time>2025-12-29T10:40:13.993Z</time>
</trkpt>
<trkpt lat="30.9100900" lon="35.3076400">
<ele>-244.920013</ele>
<time>2025-12-29T10:40:13.993Z</time>
</trkpt>
<trkpt lat="30.9100800" lon="35.3075600">
<ele>-245.589996</ele>
<time>2025-12-29T10:40:13.993Z</time>
</trkpt>
<trkpt lat="30.9100400" lon="35.3074700">
<ele>-247.559998</ele>
<time>2025-12-29T10:40:13.993Z</time>
</trkpt>
<trkpt lat="30.9099800" lon="35.3073900">
<ele>-249.759995</ele>
<time>2025-12-29T10:40:13.993Z</time>
</trkpt>
<trkpt lat="30.9099500" lon="35.3073500">
<ele>-250.440002</ele>
<time>2025-12-29T10:40:13.993Z</time>
</trkpt>
<trkpt lat="30.9097900" lon="35.3072800">
<ele>-253.569992</ele>
<time>2025-12-29T10:40:13.993Z</time>
</trkpt>
<trkpt lat="30.9095200" lon="35.3072000">
<ele>-254.330002</ele>
<time>2025-12-29T10:40:13.993Z</time>
</trkpt>
<trkpt lat="30.9094600" lon="35.3071100">
<ele>-254.440002</ele>
<time>2025-12-29T10:40:13.993Z</time>
</trkpt>
<trkpt lat="30.9094600" lon="35.3069700">
<ele>-254.910004</ele>
<time>2025-12-29T10:40:13.993Z</time>
</trkpt>
<trkpt lat="30.9094900" lon="35.3068700">
<ele>-254.100006</ele>
<time>2025-12-29T10:40:13.993Z</time>
</trkpt>
<trkpt lat="30.9095900" lon="35.3067000">
<ele>-253.319992</ele>
<time>2025-12-29T10:40:13.993Z</time>
</trkpt>
<trkpt lat="30.9097100" lon="35.3065400">
<ele>-254.350006</ele>
<time>2025-12-29T10:40:13.993Z</time>
</trkpt>
<trkpt lat="30.9097600" lon="35.3065100">
<ele>-254.279999</ele>
<time>2025-12-29T10:40:13.993Z</time>
</trkpt>
<trkpt lat="30.9098200" lon="35.3065000">
<ele>-254.050003</ele>
<time>2025-12-29T10:40:13.993Z</time>
</trkpt>
<trkpt lat="30.9101000" lon="35.3064600">
<ele>-251.819992</ele>
<time>2025-12-29T10:40:13.993Z</time>
</trkpt>
<trkpt lat="30.9102300" lon="35.3063900">
<ele>-250.019989</ele>
<time>2025-12-29T10:40:13.993Z</time>
</trkpt>
<trkpt lat="30.9102700" lon="35.3063500">
<ele>-249.710007</ele>
<time>2025-12-29T10:40:13.993Z</time>
</trkpt>
<trkpt lat="30.9103800" lon="35.3061900">
<ele>-250.019989</ele>
<time>2025-12-29T10:40:13.993Z</time>
</trkpt>
<trkpt lat="30.9104500" lon="35.3060600">
<ele>-249.940002</ele>
<time>2025-12-29T10:40:13.993Z</time>
</trkpt>
<trkpt lat="30.9104900" lon="35.3059100">
<ele>-249.559998</ele>
<time>2025-12-29T10:40:13.993Z</time>
</trkpt>
<trkpt lat="30.9105100" lon="35.3057300">
<ele>-248.809998</ele>
<time>2025-12-29T10:40:13.993Z</time>
</trkpt>
<trkpt lat="30.9105000" lon="35.3054500">
<ele>-247.570007</ele>
<time>2025-12-29T10:40:13.993Z</time>
</trkpt>
<trkpt lat="30.9104400" lon="35.3051400">
<ele>-247.419998</ele>
<time>2025-12-29T10:40:13.993Z</time>
</trkpt>
<trkpt lat="30.9102500" lon="35.3045400">
<ele>-248.110016</ele>
<time>2025-12-29T10:40:13.993Z</time>
</trkpt>
<trkpt lat="30.9101700" lon="35.3042200">
<ele>-248.349991</ele>
<time>2025-12-29T10:40:13.993Z</time>
</trkpt>
<trkpt lat="30.9101700" lon="35.3036900">
<ele>-253.379990</ele>
<time>2025-12-29T10:40:13.993Z</time>
</trkpt>
<trkpt lat="30.9101300" lon="35.3033200">
<ele>-255.170013</ele>
<time>2025-12-29T10:40:13.993Z</time>
</trkpt>
<trkpt lat="30.9101400" lon="35.3030500">
<ele>-255.979996</ele>
<time>2025-12-29T10:40:13.993Z</time>
</trkpt>
<trkpt lat="30.9102200" lon="35.3028900">
<ele>-256.100006</ele>
<time>2025-12-29T10:40:13.993Z</time>
</trkpt>
<trkpt lat="30.9103700" lon="35.3026700">
<ele>-255.139999</ele>
<time>2025-12-29T10:40:13.993Z</time>
</trkpt>
<trkpt lat="30.9104400" lon="35.3025200">
<ele>-254.039993</ele>
<time>2025-12-29T10:40:13.993Z</time>
</trkpt>
<trkpt lat="30.9104600" lon="35.3024300">
<ele>-253.800003</ele>
<time>2025-12-29T10:40:13.993Z</time>
</trkpt>
<trkpt lat="30.9104800" lon="35.3023400">
<ele>-253.619995</ele>
<time>2025-12-29T10:40:13.993Z</time>
</trkpt>
<trkpt lat="30.9104700" lon="35.3021700">
<ele>-253.610016</ele>
<time>2025-12-29T10:40:13.993Z</time>
</trkpt>
<trkpt lat="30.9104300" lon="35.3018100">
<ele>-251.309998</ele>
<time>2025-12-29T10:40:13.993Z</time>
</trkpt>
<trkpt lat="30.9104000" lon="35.3015800">
<ele>-249.909988</ele>
<time>2025-12-29T10:40:13.993Z</time>
</trkpt>
<trkpt lat="30.9103400" lon="35.3014500">
<ele>-250.700012</ele>
<time>2025-12-29T10:40:13.993Z</time>
</trkpt>
<trkpt lat="30.9102000" lon="35.3012700">
<ele>-251.660004</ele>
<time>2025-12-29T10:40:13.993Z</time>
</trkpt>
<trkpt lat="30.9100100" lon="35.3011000">
<ele>-252.770004</ele>
<time>2025-12-29T10:40:13.993Z</time>
</trkpt>
<trkpt lat="30.9099000" lon="35.3010300">
<ele>-252.289993</ele>
<time>2025-12-29T10:40:13.993Z</time>
</trkpt>
<trkpt lat="30.9098000" lon="35.3009900">
<ele>-252.540009</ele>
<time>2025-12-29T10:40:13.993Z</time>
</trkpt>
<trkpt lat="30.9096700" lon="35.3010100">
<ele>-252.830002</ele>
<time>2025-12-29T10:40:13.993Z</time>
</trkpt>
<trkpt lat="30.9095800" lon="35.3010600">
<ele>-253.020004</ele>
<time>2025-12-29T10:40:13.993Z</time>
</trkpt>
<trkpt lat="30.9091900" lon="35.3015000">
<ele>-247.690002</ele>
<time>2025-12-29T10:40:13.993Z</time>
</trkpt>
<trkpt lat="30.9089900" lon="35.3017100">
<ele>-238.090012</ele>
<time>2025-12-29T10:40:13.993Z</time>
</trkpt>
<trkpt lat="30.9088400" lon="35.3017100">
<ele>-236.690002</ele>
<time>2025-12-29T10:40:13.993Z</time>
</trkpt>
<trkpt lat="30.9086800" lon="35.3016000">
<ele>-239.290009</ele>
<time>2025-12-29T10:40:13.993Z</time>
</trkpt>
<trkpt lat="30.9085200" lon="35.3014300">
<ele>-242.419998</ele>
<time>2025-12-29T10:40:13.993Z</time>
</trkpt>
<trkpt lat="30.9084300" lon="35.3012300">
<ele>-244.230011</ele>
<time>2025-12-29T10:40:13.993Z</time>
</trkpt>
<trkpt lat="30.9083400" lon="35.3009500">
<ele>-245.840012</ele>
<time>2025-12-29T10:40:13.993Z</time>
</trkpt>
<trkpt lat="30.9082800" lon="35.3007600">
<ele>-245.909988</ele>
<time>2025-12-29T10:40:13.993Z</time>
</trkpt>
<trkpt lat="30.9082300" lon="35.3005400">
<ele>-246.149994</ele>
<time>2025-12-29T10:40:13.993Z</time>
</trkpt>
<trkpt lat="30.9081000" lon="35.2997500">
<ele>-242.699997</ele>
<time>2025-12-29T10:40:13.993Z</time>
</trkpt>
<trkpt lat="30.9080900" lon="35.2990600">
<ele>-241.720001</ele>
<time>2025-12-29T10:40:13.993Z</time>
</trkpt>
<trkpt lat="30.9080200" lon="35.2987000">
<ele>-244.460007</ele>
<time>2025-12-29T10:40:13.993Z</time>
</trkpt>
<trkpt lat="30.9078700" lon="35.2984800">
<ele>-247.000000</ele>
<time>2025-12-29T10:40:13.993Z</time>
</trkpt>
<trkpt lat="30.9078300" lon="35.2982000">
<ele>-247.139999</ele>
<time>2025-12-29T10:40:13.993Z</time>
</trkpt>
<trkpt lat="30.9079000" lon="35.2979100">
<ele>-246.789993</ele>
<time>2025-12-29T10:40:13.993Z</time>
</trkpt>
<trkpt lat="30.9080300" lon="35.2976600">
<ele>-246.959991</ele>
<time>2025-12-29T10:40:13.993Z</time>
</trkpt>
<trkpt lat="30.9081700" lon="35.2975100">
<ele>-246.990005</ele>
<time>2025-12-29T10:40:13.993Z</time>
</trkpt>
<trkpt lat="30.9083600" lon="35.2973300">
<ele>-246.770004</ele>
<time>2025-12-29T10:40:13.993Z</time>
</trkpt>
<trkpt lat="30.9085600" lon="35.2971500">
<ele>-245.790009</ele>
<time>2025-12-29T10:40:13.993Z</time>
</trkpt>
<trkpt lat="30.9087000" lon="35.2970800">
<ele>-245.550003</ele>
<time>2025-12-29T10:40:13.993Z</time>
</trkpt>
<trkpt lat="30.9089600" lon="35.2969500">
<ele>-244.910004</ele>
<time>2025-12-29T10:40:13.993Z</time>
</trkpt>
<trkpt lat="30.9093700" lon="35.2966400">
<ele>-240.139999</ele>
<time>2025-12-29T10:40:13.993Z</time>
</trkpt>
<trkpt lat="30.9094700" lon="35.2965100">
<ele>-241.270004</ele>
<time>2025-12-29T10:40:13.993Z</time>
</trkpt>
<trkpt lat="30.9095400" lon="35.2963700">
<ele>-242.710007</ele>
<time>2025-12-29T10:40:13.993Z</time>
</trkpt>
<trkpt lat="30.9097500" lon="35.2958600">
<ele>-246.520004</ele>
<time>2025-12-29T10:40:13.993Z</time>
</trkpt>
<trkpt lat="30.9098100" lon="35.2956500">
<ele>-246.710007</ele>
<time>2025-12-29T10:40:13.993Z</time>
</trkpt>
<trkpt lat="30.9098400" lon="35.2954400">
<ele>-246.659988</ele>
<time>2025-12-29T10:40:13.993Z</time>
</trkpt>
<trkpt lat="30.9098700" lon="35.2949100">
<ele>-244.210007</ele>
<time>2025-12-29T10:40:13.993Z</time>
</trkpt>
<trkpt lat="30.9098500" lon="35.2947000">
<ele>-243.880005</ele>
<time>2025-12-29T10:40:13.993Z</time>
</trkpt>
<trkpt lat="30.9097900" lon="35.2943100">
<ele>-241.179993</ele>
<time>2025-12-29T10:40:13.993Z</time>
</trkpt>
<trkpt lat="30.9097900" lon="35.2940400">
<ele>-239.800003</ele>
<time>2025-12-29T10:40:13.993Z</time>
</trkpt>
<trkpt lat="30.9097200" lon="35.2937900">
<ele>-240.939987</ele>
<time>2025-12-29T10:40:13.993Z</time>
</trkpt>
<trkpt lat="30.9095500" lon="35.2934700">
<ele>-238.220001</ele>
<time>2025-12-29T10:40:13.993Z</time>
</trkpt>
<trkpt lat="30.9094900" lon="35.2933000">
<ele>-238.529999</ele>
<time>2025-12-29T10:40:13.993Z</time>
</trkpt>
<trkpt lat="30.9094500" lon="35.2931300">
<ele>-238.730011</ele>
<time>2025-12-29T10:40:13.993Z</time>
</trkpt>
<trkpt lat="30.9094500" lon="35.2931300">
<ele>-238.730011</ele>
<time>2025-12-29T10:40:13.993Z</time>
</trkpt>
<trkpt lat="30.9094500" lon="35.2931300">
<ele>-238.730011</ele>
<time>2025-12-29T10:40:13.993Z</time>
</trkpt>
<trkpt lat="30.9094500" lon="35.2931300">
<ele>-238.730011</ele>
<time>2025-12-29T10:40:13.993Z</time>
</trkpt>
<trkpt lat="30.9093200" lon="35.2925800">
<ele>-235.660004</ele>
<time>2025-12-29T10:40:13.993Z</time>
</trkpt>
<trkpt lat="30.9092900" lon="35.2923800">
<ele>-235.569992</ele>
<time>2025-12-29T10:40:13.993Z</time>
</trkpt>
<trkpt lat="30.9093100" lon="35.2921800">
<ele>-235.880005</ele>
<time>2025-12-29T10:40:13.993Z</time>
</trkpt>
<trkpt lat="30.9094800" lon="35.2915800">
<ele>-235.509995</ele>
<time>2025-12-29T10:40:13.993Z</time>
</trkpt>
<trkpt lat="30.9095500" lon="35.2914500">
<ele>-235.050003</ele>
<time>2025-12-29T10:40:13.993Z</time>
</trkpt>
<trkpt lat="30.9096800" lon="35.2913100">
<ele>-235.000000</ele>
<time>2025-12-29T10:40:13.993Z</time>
</trkpt>
<trkpt lat="30.9099500" lon="35.2911500">
<ele>-234.069992</ele>
<time>2025-12-29T10:40:13.993Z</time>
</trkpt>
<trkpt lat="30.9100900" lon="35.2911000">
<ele>-234.000000</ele>
<time>2025-12-29T10:40:13.993Z</time>
</trkpt>
<trkpt lat="30.9108300" lon="35.2909400">
<ele>-235.589996</ele>
<time>2025-12-29T10:40:13.993Z</time>
</trkpt>
<trkpt lat="30.9110500" lon="35.2908400">
<ele>-236.010010</ele>
<time>2025-12-29T10:40:13.993Z</time>
</trkpt>
<trkpt lat="30.9112400" lon="35.2907000">
<ele>-232.860001</ele>
<time>2025-12-29T10:40:13.993Z</time>
</trkpt>
<trkpt lat="30.9113900" lon="35.2905100">
<ele>-231.000000</ele>
<time>2025-12-29T10:40:13.993Z</time>
</trkpt>
<trkpt lat="30.9114700" lon="35.2903700">
<ele>-231.490005</ele>
<time>2025-12-29T10:40:13.993Z</time>
</trkpt>
<trkpt lat="30.9115100" lon="35.2902100">
<ele>-231.869995</ele>
<time>2025-12-29T10:40:13.993Z</time>
</trkpt>
<trkpt lat="30.9115000" lon="35.2900400">
<ele>-231.799988</ele>
<time>2025-12-29T10:40:13.993Z</time>
</trkpt>
<trkpt lat="30.9112300" lon="35.2894500">
<ele>-230.570007</ele>
<time>2025-12-29T10:40:13.993Z</time>
</trkpt>
<trkpt lat="30.9112100" lon="35.2893100">
<ele>-230.470001</ele>
<time>2025-12-29T10:40:13.993Z</time>
</trkpt>
<trkpt lat="30.9110900" lon="35.2888300">
<ele>-229.210007</ele>
<time>2025-12-29T10:40:13.993Z</time>
</trkpt>
<trkpt lat="30.9110700" lon="35.2886000">
<ele>-230.680008</ele>
<time>2025-12-29T10:40:13.993Z</time>
</trkpt>
<trkpt lat="30.9110700" lon="35.2882400">
<ele>-229.809998</ele>
<time>2025-12-29T10:40:13.993Z</time>
</trkpt>
<trkpt lat="30.9110900" lon="35.2879400">
<ele>-228.660004</ele>
<time>2025-12-29T10:40:13.993Z</time>
</trkpt>
<trkpt lat="30.9111300" lon="35.2877700">
<ele>-227.799988</ele>
<time>2025-12-29T10:40:13.993Z</time>
</trkpt>
<trkpt lat="30.9112700" lon="35.2873800">
<ele>-226.470016</ele>
<time>2025-12-29T10:40:13.993Z</time>
</trkpt>
<trkpt lat="30.9114800" lon="35.2869800">
<ele>-226.129990</ele>
<time>2025-12-29T10:40:13.993Z</time>
</trkpt>
<trkpt lat="30.9115900" lon="35.2866100">
<ele>-225.619995</ele>
<time>2025-12-29T10:40:13.993Z</time>
</trkpt>
<trkpt lat="30.9116300" lon="35.2863900">
<ele>-224.399994</ele>
<time>2025-12-29T10:40:13.993Z</time>
</trkpt>
<trkpt lat="30.9116900" lon="35.2861300">
<ele>-222.729996</ele>
<time>2025-12-29T10:40:13.993Z</time>
</trkpt>
<trkpt lat="30.9117900" lon="35.2858700">
<ele>-221.220001</ele>
<time>2025-12-29T10:40:13.993Z</time>
</trkpt>
<trkpt lat="30.9119200" lon="35.2856000">
<ele>-220.190002</ele>
<time>2025-12-29T10:40:13.993Z</time>
</trkpt>
<trkpt lat="30.9121700" lon="35.2852400">
<ele>-219.589996</ele>
<time>2025-12-29T10:40:13.993Z</time>
</trkpt>
<trkpt lat="30.9129200" lon="35.2839900">
<ele>-218.400009</ele>
<time>2025-12-29T10:40:13.993Z</time>
</trkpt>
<trkpt lat="30.9130400" lon="35.2837600">
<ele>-218.180008</ele>
<time>2025-12-29T10:40:13.993Z</time>
</trkpt>
<trkpt lat="30.9132700" lon="35.2831200">
<ele>-218.729996</ele>
<time>2025-12-29T10:40:13.993Z</time>
</trkpt>
<trkpt lat="30.9133600" lon="35.2828700">
<ele>-219.649994</ele>
<time>2025-12-29T10:40:13.993Z</time>
</trkpt>
<trkpt lat="30.9135100" lon="35.2823700">
<ele>-219.449997</ele>
<time>2025-12-29T10:40:13.993Z</time>
</trkpt>
<trkpt lat="30.9136400" lon="35.2821400">
<ele>-217.900009</ele>
<time>2025-12-29T10:40:13.993Z</time>
</trkpt>
<trkpt lat="30.9137100" lon="35.2820400">
<ele>-217.639999</ele>
<time>2025-12-29T10:40:13.993Z</time>
</trkpt>
<trkpt lat="30.9137900" lon="35.2819600">
<ele>-217.360001</ele>
<time>2025-12-29T10:40:13.993Z</time>
</trkpt>
<trkpt lat="30.9140500" lon="35.2817500">
<ele>-216.880005</ele>
<time>2025-12-29T10:40:13.993Z</time>
</trkpt>
<trkpt lat="30.9142100" lon="35.2816500">
<ele>-217.039993</ele>
<time>2025-12-29T10:40:13.993Z</time>
</trkpt>
<trkpt lat="30.9144500" lon="35.2815100">
<ele>-216.910004</ele>
<time>2025-12-29T10:40:13.993Z</time>
</trkpt>
<trkpt lat="30.9146400" lon="35.2813700">
<ele>-217.869995</ele>
<time>2025-12-29T10:40:13.993Z</time>
</trkpt>
<trkpt lat="30.9148900" lon="35.2811700">
<ele>-215.040009</ele>
<time>2025-12-29T10:40:13.993Z</time>
</trkpt>
<trkpt lat="30.9152500" lon="35.2808300">
<ele>-208.270004</ele>
<time>2025-12-29T10:40:13.993Z</time>
</trkpt>
<trkpt lat="30.9154400" lon="35.2807300">
<ele>-205.349991</ele>
<time>2025-12-29T10:40:13.993Z</time>
</trkpt>
<trkpt lat="30.9157700" lon="35.2805100">
<ele>-202.689987</ele>
<time>2025-12-29T10:40:13.993Z</time>
</trkpt>
<trkpt lat="30.9160400" lon="35.2802900">
<ele>-202.179993</ele>
<time>2025-12-29T10:40:13.993Z</time>
</trkpt>
<trkpt lat="30.9162600" lon="35.2800800">
<ele>-204.750000</ele>
<time>2025-12-29T10:40:13.993Z</time>
</trkpt>
<trkpt lat="30.9165500" lon="35.2798900">
<ele>-203.919998</ele>
<time>2025-12-29T10:40:13.993Z</time>
</trkpt>
<trkpt lat="30.9167200" lon="35.2798400">
<ele>-202.649994</ele>
<time>2025-12-29T10:40:13.993Z</time>
</trkpt>
<trkpt lat="30.9168900" lon="35.2798200">
<ele>-201.630005</ele>
<time>2025-12-29T10:40:13.993Z</time>
</trkpt>
<trkpt lat="30.9170700" lon="35.2798300">
<ele>-200.949997</ele>
<time>2025-12-29T10:40:13.993Z</time>
</trkpt>
<trkpt lat="30.9174400" lon="35.2799100">
<ele>-201.110001</ele>
<time>2025-12-29T10:40:13.993Z</time>
</trkpt>
<trkpt lat="30.9175400" lon="35.2799000">
<ele>-201.069992</ele>
<time>2025-12-29T10:40:13.993Z</time>
</trkpt>
<trkpt lat="30.9177900" lon="35.2798300">
<ele>-199.509995</ele>
<time>2025-12-29T10:40:13.993Z</time>
</trkpt>
<trkpt lat="30.9181500" lon="35.2796800">
<ele>-198.639999</ele>
<time>2025-12-29T10:40:13.993Z</time>
</trkpt>
<trkpt lat="30.9183000" lon="35.2796400">
<ele>-199.470001</ele>
<time>2025-12-29T10:40:13.993Z</time>
</trkpt>
<trkpt lat="30.9184100" lon="35.2796500">
<ele>-199.779999</ele>
<time>2025-12-29T10:40:13.993Z</time>
</trkpt>
<trkpt lat="30.9185600" lon="35.2797000">
<ele>-200.529999</ele>
<time>2025-12-29T10:40:13.993Z</time>
</trkpt>
<trkpt lat="30.9193100" lon="35.2798000">
<ele>-195.169998</ele>
<time>2025-12-29T10:40:13.993Z</time>
</trkpt>
<trkpt lat="30.9193600" lon="35.2797800">
<ele>-194.699997</ele>
<time>2025-12-29T10:40:13.993Z</time>
</trkpt>
<trkpt lat="30.9194300" lon="35.2797200">
<ele>-194.179993</ele>
<time>2025-12-29T10:40:13.993Z</time>
</trkpt>
<trkpt lat="30.9195300" lon="35.2796900">
<ele>-194.889999</ele>
<time>2025-12-29T10:40:13.993Z</time>
</trkpt>
<trkpt lat="30.9201100" lon="35.2796700">
<ele>-195.219986</ele>
<time>2025-12-29T10:40:13.993Z</time>
</trkpt>
<trkpt lat="30.9202200" lon="35.2796100">
<ele>-194.989990</ele>
<time>2025-12-29T10:40:13.993Z</time>
</trkpt>
<trkpt lat="30.9202700" lon="35.2795600">
<ele>-195.369995</ele>
<time>2025-12-29T10:40:13.993Z</time>
</trkpt>
<trkpt lat="30.9203000" lon="35.2795000">
<ele>-196.149994</ele>
<time>2025-12-29T10:40:13.993Z</time>
</trkpt>
<trkpt lat="30.9203100" lon="35.2794200">
<ele>-196.880005</ele>
<time>2025-12-29T10:40:13.993Z</time>
</trkpt>
<trkpt lat="30.9203000" lon="35.2793000">
<ele>-196.919998</ele>
<time>2025-12-29T10:40:13.993Z</time>
</trkpt>
<trkpt lat="30.9203500" lon="35.2791100">
<ele>-196.639999</ele>
<time>2025-12-29T10:40:13.993Z</time>
</trkpt>
<trkpt lat="30.9204000" lon="35.2790400">
<ele>-196.509995</ele>
<time>2025-12-29T10:40:13.993Z</time>
</trkpt>
<trkpt lat="30.9204400" lon="35.2790100">
<ele>-196.509995</ele>
<time>2025-12-29T10:40:13.993Z</time>
</trkpt>
<trkpt lat="30.9206500" lon="35.2789300">
<ele>-196.269989</ele>
<time>2025-12-29T10:40:13.993Z</time>
</trkpt>
<trkpt lat="30.9207200" lon="35.2788800">
<ele>-195.759995</ele>
<time>2025-12-29T10:40:13.993Z</time>
</trkpt>
<trkpt lat="30.9207700" lon="35.2788500">
<ele>-195.250000</ele>
<time>2025-12-29T10:40:13.993Z</time>
</trkpt>
<trkpt lat="30.9207800" lon="35.2787600">
<ele>-194.740005</ele>
<time>2025-12-29T10:40:13.993Z</time>
</trkpt>
<trkpt lat="30.9207800" lon="35.2784100">
<ele>-193.279999</ele>
<time>2025-12-29T10:40:13.993Z</time>
</trkpt>
<trkpt lat="30.9208100" lon="35.2782900">
<ele>-192.990005</ele>
<time>2025-12-29T10:40:13.993Z</time>
</trkpt>
<trkpt lat="30.9209600" lon="35.2774800">
<ele>-191.510010</ele>
<time>2025-12-29T10:40:13.993Z</time>
</trkpt>
<trkpt lat="30.9209800" lon="35.2767600">
<ele>-187.620010</ele>
<time>2025-12-29T10:40:13.993Z</time>
</trkpt>
<trkpt lat="30.9210600" lon="35.2764300">
<ele>-185.520004</ele>
<time>2025-12-29T10:40:13.993Z</time>
</trkpt>
<trkpt lat="30.9210900" lon="35.2762100">
<ele>-185.099991</ele>
<time>2025-12-29T10:40:13.993Z</time>
</trkpt>
<trkpt lat="30.9211300" lon="35.2754500">
<ele>-183.949997</ele>
<time>2025-12-29T10:40:13.993Z</time>
</trkpt>
<trkpt lat="30.9211600" lon="35.2752400">
<ele>-183.759995</ele>
<time>2025-12-29T10:40:13.993Z</time>
</trkpt>
<trkpt lat="30.9212000" lon="35.2751500">
<ele>-183.669998</ele>
<time>2025-12-29T10:40:13.993Z</time>
</trkpt>
<trkpt lat="30.9213100" lon="35.2750000">
<ele>-182.849991</ele>
<time>2025-12-29T10:40:13.993Z</time>
</trkpt>
<trkpt lat="30.9216400" lon="35.2746700">
<ele>-179.100006</ele>
<time>2025-12-29T10:40:13.993Z</time>
</trkpt>
<trkpt lat="30.9223400" lon="35.2738600">
<ele>-173.660004</ele>
<time>2025-12-29T10:40:13.993Z</time>
</trkpt>
<trkpt lat="30.9224700" lon="35.2737500">
<ele>-174.000000</ele>
<time>2025-12-29T10:40:13.993Z</time>
</trkpt>
<trkpt lat="30.9227800" lon="35.2735800">
<ele>-170.750000</ele>
<time>2025-12-29T10:40:13.993Z</time>
</trkpt>
<trkpt lat="30.9232200" lon="35.2731700">
<ele>-166.960007</ele>
<time>2025-12-29T10:40:13.993Z</time>
</trkpt>
<trkpt lat="30.9235100" lon="35.2728400">
<ele>-163.799988</ele>
<time>2025-12-29T10:40:13.993Z</time>
</trkpt>
<trkpt lat="30.9237500" lon="35.2724700">
<ele>-161.449997</ele>
<time>2025-12-29T10:40:13.993Z</time>
</trkpt>
<trkpt lat="30.9239700" lon="35.2722400">
<ele>-156.059998</ele>
<time>2025-12-29T10:40:13.993Z</time>
</trkpt>
<trkpt lat="30.9240800" lon="35.2721500">
<ele>-152.319992</ele>
<time>2025-12-29T10:40:13.993Z</time>
</trkpt>
<trkpt lat="30.9242000" lon="35.2720900">
<ele>-149.709991</ele>
<time>2025-12-29T10:40:13.993Z</time>
</trkpt>
<trkpt lat="30.9246100" lon="35.2719800">
<ele>-150.009995</ele>
<time>2025-12-29T10:40:13.993Z</time>
</trkpt>
<trkpt lat="30.9247300" lon="35.2719700">
<ele>-150.570007</ele>
<time>2025-12-29T10:40:13.993Z</time>
</trkpt>
<trkpt lat="30.9249600" lon="35.2719700">
<ele>-151.320007</ele>
<time>2025-12-29T10:40:13.993Z</time>
</trkpt>
<trkpt lat="30.9252800" lon="35.2720100">
<ele>-157.110001</ele>
<time>2025-12-29T10:40:13.993Z</time>
</trkpt>
<trkpt lat="30.9255200" lon="35.2720100">
<ele>-162.699997</ele>
<time>2025-12-29T10:40:13.993Z</time>
</trkpt>
<trkpt lat="30.9262400" lon="35.2719200">
<ele>-168.919998</ele>
<time>2025-12-29T10:40:13.993Z</time>
</trkpt>
<trkpt lat="30.9267400" lon="35.2718900">
<ele>-173.720001</ele>
<time>2025-12-29T10:40:13.993Z</time>
</trkpt>
<trkpt lat="30.9271300" lon="35.2718200">
<ele>-180.369995</ele>
<time>2025-12-29T10:40:13.993Z</time>
</trkpt>
<trkpt lat="30.9273900" lon="35.2718000">
<ele>-180.400009</ele>
<time>2025-12-29T10:40:13.993Z</time>
</trkpt>
<trkpt lat="30.9275100" lon="35.2717800">
<ele>-179.959991</ele>
<time>2025-12-29T10:40:13.993Z</time>
</trkpt>
<trkpt lat="30.9280000" lon="35.2718000">
<ele>-176.220001</ele>
<time>2025-12-29T10:40:13.993Z</time>
</trkpt>
<trkpt lat="30.9282500" lon="35.2717500">
<ele>-172.690002</ele>
<time>2025-12-29T10:40:13.993Z</time>
</trkpt>
<trkpt lat="30.9284700" lon="35.2718400">
<ele>-172.290009</ele>
<time>2025-12-29T10:40:13.993Z</time>
</trkpt>
<trkpt lat="30.9285300" lon="35.2718300">
<ele>-173.119995</ele>
<time>2025-12-29T10:40:13.993Z</time>
</trkpt>
<trkpt lat="30.9285600" lon="35.2718100">
<ele>-173.779999</ele>
<time>2025-12-29T10:40:13.993Z</time>
</trkpt>
<trkpt lat="30.9287200" lon="35.2716700">
<ele>-184.389984</ele>
<time>2025-12-29T10:40:13.993Z</time>
</trkpt>
<trkpt lat="30.9287800" lon="35.2715900">
<ele>-190.039993</ele>
<time>2025-12-29T10:40:13.993Z</time>
</trkpt>
<trkpt lat="30.9287900" lon="35.2712500">
<ele>-195.339996</ele>
<time>2025-12-29T10:40:13.993Z</time>
</trkpt>
<trkpt lat="30.9287100" lon="35.2709400">
<ele>-193.710007</ele>
<time>2025-12-29T10:40:13.993Z</time>
</trkpt>
<trkpt lat="30.9287600" lon="35.2706600">
<ele>-198.989990</ele>
<time>2025-12-29T10:40:13.993Z</time>
</trkpt>
<trkpt lat="30.9287400" lon="35.2704100">
<ele>-198.699997</ele>
<time>2025-12-29T10:40:13.993Z</time>
</trkpt>
<trkpt lat="30.9287400" lon="35.2702200">
<ele>-197.360016</ele>
<time>2025-12-29T10:40:13.993Z</time>
</trkpt>
<trkpt lat="30.9287600" lon="35.2701300">
<ele>-198.210007</ele>
<time>2025-12-29T10:40:13.993Z</time>
</trkpt>
<trkpt lat="30.9288100" lon="35.2700200">
<ele>-199.990005</ele>
<time>2025-12-29T10:40:13.993Z</time>
</trkpt>
<trkpt lat="30.9288600" lon="35.2698800">
<ele>-201.860001</ele>
<time>2025-12-29T10:40:13.993Z</time>
</trkpt>
<trkpt lat="30.9289200" lon="35.2694900">
<ele>-204.619995</ele>
<time>2025-12-29T10:40:13.993Z</time>
</trkpt>
<trkpt lat="30.9289500" lon="35.2691800">
<ele>-205.850006</ele>
<time>2025-12-29T10:40:13.993Z</time>
</trkpt>
<trkpt lat="30.9289300" lon="35.2689200">
<ele>-204.440002</ele>
<time>2025-12-29T10:40:13.993Z</time>
</trkpt>
<trkpt lat="30.9288700" lon="35.2686500">
<ele>-200.590012</ele>
<time>2025-12-29T10:40:13.993Z</time>
</trkpt>
<trkpt lat="30.9286300" lon="35.2682200">
<ele>-199.410004</ele>
<time>2025-12-29T10:40:13.993Z</time>
</trkpt>
<trkpt lat="30.9285400" lon="35.2681000">
<ele>-198.559998</ele>
<time>2025-12-29T10:40:13.993Z</time>
</trkpt>
<trkpt lat="30.9283800" lon="35.2679300">
<ele>-196.589996</ele>
<time>2025-12-29T10:40:13.993Z</time>
</trkpt>
<trkpt lat="30.9282500" lon="35.2676900">
<ele>-195.069992</ele>
<time>2025-12-29T10:40:13.993Z</time>
</trkpt>
<trkpt lat="30.9281000" lon="35.2675000">
<ele>-192.639999</ele>
<time>2025-12-29T10:40:13.993Z</time>
</trkpt>
<trkpt lat="30.9280200" lon="35.2673800">
<ele>-193.270004</ele>
<time>2025-12-29T10:40:13.993Z</time>
</trkpt>
<trkpt lat="30.9278200" lon="35.2669700">
<ele>-197.860001</ele>
<time>2025-12-29T10:40:13.993Z</time>
</trkpt>
<trkpt lat="30.9277800" lon="35.2668100">
<ele>-199.470001</ele>
<time>2025-12-29T10:40:13.993Z</time>
</trkpt>
<trkpt lat="30.9275500" lon="35.2663700">
<ele>-199.779999</ele>
<time>2025-12-29T10:40:13.993Z</time>
</trkpt>
<trkpt lat="30.9275200" lon="35.2662400">
<ele>-199.789993</ele>
<time>2025-12-29T10:40:13.993Z</time>
</trkpt>
<trkpt lat="30.9274900" lon="35.2660600">
<ele>-199.960007</ele>
<time>2025-12-29T10:40:13.993Z</time>
</trkpt>
<trkpt lat="30.9274400" lon="35.2658900">
<ele>-199.329987</ele>
<time>2025-12-29T10:40:13.993Z</time>
</trkpt>
<trkpt lat="30.9274600" lon="35.2657300">
<ele>-200.050003</ele>
<time>2025-12-29T10:40:13.993Z</time>
</trkpt>
<trkpt lat="30.9274400" lon="35.2656000">
<ele>-199.670013</ele>
<time>2025-12-29T10:40:13.993Z</time>
</trkpt>
<trkpt lat="30.9274100" lon="35.2655100">
<ele>-199.159988</ele>
<time>2025-12-29T10:40:13.993Z</time>
</trkpt>
<trkpt lat="30.9273300" lon="35.2653400">
<ele>-198.280014</ele>
<time>2025-12-29T10:40:13.993Z</time>
</trkpt>
<trkpt lat="30.9273000" lon="35.2651500">
<ele>-198.910004</ele>
<time>2025-12-29T10:40:13.993Z</time>
</trkpt>
<trkpt lat="30.9272200" lon="35.2650100">
<ele>-198.819992</ele>
<time>2025-12-29T10:40:13.993Z</time>
</trkpt>
<trkpt lat="30.9272900" lon="35.2647700">
<ele>-200.979996</ele>
<time>2025-12-29T10:40:13.993Z</time>
</trkpt>
<trkpt lat="30.9272900" lon="35.2646700">
<ele>-201.290009</ele>
<time>2025-12-29T10:40:13.993Z</time>
</trkpt>
<trkpt lat="30.9272700" lon="35.2645900">
<ele>-201.250000</ele>
<time>2025-12-29T10:40:13.993Z</time>
</trkpt>
<trkpt lat="30.9271900" lon="35.2643500">
<ele>-199.090012</ele>
<time>2025-12-29T10:40:13.993Z</time>
</trkpt>
<trkpt lat="30.9270400" lon="35.2640300">
<ele>-192.909988</ele>
<time>2025-12-29T10:40:13.993Z</time>
</trkpt>
<trkpt lat="30.9269300" lon="35.2638500">
<ele>-190.410004</ele>
<time>2025-12-29T10:40:13.993Z</time>
</trkpt>
<trkpt lat="30.9267100" lon="35.2635300">
<ele>-185.309998</ele>
<time>2025-12-29T10:40:13.993Z</time>
</trkpt>
<trkpt lat="30.9265500" lon="35.2631800">
<ele>-186.639999</ele>
<time>2025-12-29T10:40:13.993Z</time>
</trkpt>
<trkpt lat="30.9264200" lon="35.2629500">
<ele>-186.180008</ele>
<time>2025-12-29T10:40:13.993Z</time>
</trkpt>
<trkpt lat="30.9263900" lon="35.2628100">
<ele>-187.550003</ele>
<time>2025-12-29T10:40:13.993Z</time>
</trkpt>
<trkpt lat="30.9264500" lon="35.2627400">
<ele>-189.259995</ele>
<time>2025-12-29T10:40:13.993Z</time>
</trkpt>
<trkpt lat="30.9266000" lon="35.2626600">
<ele>-191.989990</ele>
<time>2025-12-29T10:40:13.993Z</time>
</trkpt>
<trkpt lat="30.9266700" lon="35.2626000">
<ele>-193.259995</ele>
<time>2025-12-29T10:40:13.993Z</time>
</trkpt>
<trkpt lat="30.9267200" lon="35.2624800">
<ele>-193.480011</ele>
<time>2025-12-29T10:40:13.993Z</time>
</trkpt>
<trkpt lat="30.9267800" lon="35.2622300">
<ele>-193.350006</ele>
<time>2025-12-29T10:40:13.993Z</time>
</trkpt>
<trkpt lat="30.9268200" lon="35.2620800">
<ele>-192.789993</ele>
<time>2025-12-29T10:40:13.993Z</time>
</trkpt>
<trkpt lat="30.9268400" lon="35.2619500">
<ele>-192.500015</ele>
<time>2025-12-29T10:40:13.993Z</time>
</trkpt>
<trkpt lat="30.9268400" lon="35.2617300">
<ele>-191.250000</ele>
<time>2025-12-29T10:40:13.993Z</time>
</trkpt>
<trkpt lat="30.9268100" lon="35.2615500">
<ele>-191.419998</ele>
<time>2025-12-29T10:40:13.993Z</time>
</trkpt>
<trkpt lat="30.9268000" lon="35.2612000">
<ele>-191.250000</ele>
<time>2025-12-29T10:40:13.993Z</time>
</trkpt>
<trkpt lat="30.9268100" lon="35.2610700">
<ele>-190.860001</ele>
<time>2025-12-29T10:40:13.993Z</time>
</trkpt>
<trkpt lat="30.9269100" lon="35.2604900">
<ele>-190.539993</ele>
<time>2025-12-29T10:40:13.993Z</time>
</trkpt>
<trkpt lat="30.9270600" lon="35.2600600">
<ele>-189.699997</ele>
<time>2025-12-29T10:40:13.993Z</time>
</trkpt>
<trkpt lat="30.9273300" lon="35.2594700">
<ele>-183.559998</ele>
<time>2025-12-29T10:40:13.993Z</time>
</trkpt>
<trkpt lat="30.9273700" lon="35.2593300">
<ele>-183.660004</ele>
<time>2025-12-29T10:40:13.993Z</time>
</trkpt>
<trkpt lat="30.9273900" lon="35.2591500">
<ele>-184.799988</ele>
<time>2025-12-29T10:40:13.993Z</time>
</trkpt>
<trkpt lat="30.9274000" lon="35.2589300">
<ele>-187.539993</ele>
<time>2025-12-29T10:40:13.993Z</time>
</trkpt>
<trkpt lat="30.9274300" lon="35.2588000">
<ele>-188.960007</ele>
<time>2025-12-29T10:40:13.993Z</time>
</trkpt>
<trkpt lat="30.9275900" lon="35.2584700">
<ele>-192.070007</ele>
<time>2025-12-29T10:40:13.993Z</time>
</trkpt>
<trkpt lat="30.9277200" lon="35.2581400">
<ele>-194.810013</ele>
<time>2025-12-29T10:40:13.993Z</time>
</trkpt>
<trkpt lat="30.9277800" lon="35.2580600">
<ele>-194.940002</ele>
<time>2025-12-29T10:40:13.993Z</time>
</trkpt>
<trkpt lat="30.9278900" lon="35.2579500">
<ele>-194.100006</ele>
<time>2025-12-29T10:40:13.993Z</time>
</trkpt>
<trkpt lat="30.9284400" lon="35.2574800">
<ele>-191.020004</ele>
<time>2025-12-29T10:40:13.993Z</time>
</trkpt>
<trkpt lat="30.9288800" lon="35.2571200">
<ele>-192.880005</ele>
<time>2025-12-29T10:40:13.993Z</time>
</trkpt>
<trkpt lat="30.9292200" lon="35.2568900">
<ele>-190.299988</ele>
<time>2025-12-29T10:40:13.993Z</time>
</trkpt>
<trkpt lat="30.9294000" lon="35.2567400">
<ele>-186.829987</ele>
<time>2025-12-29T10:40:13.993Z</time>
</trkpt>
<trkpt lat="30.9295700" lon="35.2566400">
<ele>-183.889999</ele>
<time>2025-12-29T10:40:13.993Z</time>
</trkpt>
<trkpt lat="30.9299100" lon="35.2566900">
<ele>-187.740005</ele>
<time>2025-12-29T10:40:13.993Z</time>
</trkpt>
<trkpt lat="30.9302700" lon="35.2567800">
<ele>-188.349991</ele>
<time>2025-12-29T10:40:13.993Z</time>
</trkpt>
<trkpt lat="30.9307300" lon="35.2566800">
<ele>-182.659988</ele>
<time>2025-12-29T10:40:13.993Z</time>
</trkpt>
<trkpt lat="30.9310600" lon="35.2563200">
<ele>-187.770004</ele>
<time>2025-12-29T10:40:13.993Z</time>
</trkpt>
<trkpt lat="30.9312300" lon="35.2561200">
<ele>-189.310013</ele>
<time>2025-12-29T10:40:13.993Z</time>
</trkpt>
<trkpt lat="30.9313100" lon="35.2560100">
<ele>-188.520004</ele>
<time>2025-12-29T10:40:13.993Z</time>
</trkpt>
<trkpt lat="30.9314400" lon="35.2556700">
<ele>-188.370010</ele>
<time>2025-12-29T10:40:13.993Z</time>
</trkpt>
<trkpt lat="30.9315700" lon="35.2551500">
<ele>-187.529999</ele>
<time>2025-12-29T10:40:13.993Z</time>
</trkpt>
<trkpt lat="30.9316000" lon="35.2545300">
<ele>-188.479996</ele>
<time>2025-12-29T10:40:13.993Z</time>
</trkpt>
<trkpt lat="30.9315700" lon="35.2543800">
<ele>-188.390015</ele>
<time>2025-12-29T10:40:13.993Z</time>
</trkpt>
<trkpt lat="30.9310700" lon="35.2530100">
<ele>-183.939987</ele>
<time>2025-12-29T10:40:13.993Z</time>
</trkpt>
<trkpt lat="30.9310800" lon="35.2528100">
<ele>-182.360001</ele>
<time>2025-12-29T10:40:13.993Z</time>
</trkpt>
<trkpt lat="30.9310400" lon="35.2526600">
<ele>-180.680008</ele>
<time>2025-12-29T10:40:13.993Z</time>
</trkpt>
<trkpt lat="30.9308200" lon="35.2523800">
<ele>-181.190002</ele>
<time>2025-12-29T10:40:13.993Z</time>
</trkpt>
<trkpt lat="30.9297500" lon="35.2515200">
<ele>-172.639999</ele>
<time>2025-12-29T10:40:13.993Z</time>
</trkpt>
<trkpt lat="30.9288800" lon="35.2509300">
<ele>-169.510010</ele>
<time>2025-12-29T10:40:13.993Z</time>
</trkpt>
<trkpt lat="30.9283100" lon="35.2504600">
<ele>-176.860001</ele>
<time>2025-12-29T10:40:13.993Z</time>
</trkpt>
<trkpt lat="30.9263800" lon="35.2486000">
<ele>-176.839996</ele>
<time>2025-12-29T10:40:13.993Z</time>
</trkpt>
<trkpt lat="30.9260900" lon="35.2479500">
<ele>-178.849991</ele>
<time>2025-12-29T10:40:13.993Z</time>
</trkpt>
<trkpt lat="30.9260600" lon="35.2474800">
<ele>-175.669998</ele>
<time>2025-12-29T10:40:13.993Z</time>
</trkpt>
<trkpt lat="30.9261200" lon="35.2470700">
<ele>-173.309998</ele>
<time>2025-12-29T10:40:13.993Z</time>
</trkpt>
<trkpt lat="30.9264400" lon="35.2460200">
<ele>-171.840012</ele>
<time>2025-12-29T10:40:13.993Z</time>
</trkpt>
<trkpt lat="30.9263600" lon="35.2448500">
<ele>-173.270004</ele>
<time>2025-12-29T10:40:13.993Z</time>
</trkpt>
<trkpt lat="30.9262800" lon="35.2444200">
<ele>-170.349991</ele>
<time>2025-12-29T10:40:13.993Z</time>
</trkpt>
<trkpt lat="30.9262200" lon="35.2442200">
<ele>-171.750000</ele>
<time>2025-12-29T10:40:13.993Z</time>
</trkpt>
<trkpt lat="30.9263100" lon="35.2441200">
<ele>-171.520004</ele>
<time>2025-12-29T10:40:13.993Z</time>
</trkpt>
<trkpt lat="30.9263900" lon="35.2441500">
<ele>-170.989990</ele>
<time>2025-12-29T10:40:13.993Z</time>
</trkpt>
<trkpt lat="30.9264600" lon="35.2442400">
<ele>-170.229996</ele>
<time>2025-12-29T10:40:13.993Z</time>
</trkpt>
<trkpt lat="30.9265900" lon="35.2445200">
<ele>-168.509995</ele>
<time>2025-12-29T10:40:13.993Z</time>
</trkpt>
<trkpt lat="30.9266300" lon="35.2445700">
<ele>-167.670013</ele>
<time>2025-12-29T10:40:13.993Z</time>
</trkpt>
<trkpt lat="30.9267000" lon="35.2445900">
<ele>-165.690002</ele>
<time>2025-12-29T10:40:13.993Z</time>
</trkpt>
<trkpt lat="30.9267700" lon="35.2445700">
<ele>-163.210007</ele>
<time>2025-12-29T10:40:13.993Z</time>
</trkpt>
<trkpt lat="30.9269000" lon="35.2444200">
<ele>-159.819992</ele>
<time>2025-12-29T10:40:13.993Z</time>
</trkpt>
<trkpt lat="30.9270800" lon="35.2442900">
<ele>-154.839996</ele>
<time>2025-12-29T10:40:13.993Z</time>
</trkpt>
<trkpt lat="30.9272800" lon="35.2441500">
<ele>-150.350006</ele>
<time>2025-12-29T10:40:13.993Z</time>
</trkpt>
<trkpt lat="30.9277400" lon="35.2437700">
<ele>-144.050003</ele>
<time>2025-12-29T10:40:13.993Z</time>
</trkpt>
<trkpt lat="30.9280300" lon="35.2434900">
<ele>-142.720001</ele>
<time>2025-12-29T10:40:13.993Z</time>
</trkpt>
<trkpt lat="30.9281500" lon="35.2434300">
<ele>-138.679993</ele>
<time>2025-12-29T10:40:13.993Z</time>
</trkpt>
<trkpt lat="30.9284800" lon="35.2434300">
<ele>-124.920006</ele>
<time>2025-12-29T10:40:13.993Z</time>
</trkpt>
<trkpt lat="30.9285700" lon="35.2434200">
<ele>-121.540001</ele>
<time>2025-12-29T10:40:13.993Z</time>
</trkpt>
<trkpt lat="30.9286300" lon="35.2434000">
<ele>-119.820000</ele>
<time>2025-12-29T10:40:13.993Z</time>
</trkpt>
<trkpt lat="30.9286600" lon="35.2433400">
<ele>-120.660004</ele>
<time>2025-12-29T10:40:13.993Z</time>
</trkpt>
<trkpt lat="30.9285500" lon="35.2430700">
<ele>-124.559998</ele>
<time>2025-12-29T10:40:13.993Z</time>
</trkpt>
<trkpt lat="30.9285700" lon="35.2429700">
<ele>-123.370003</ele>
<time>2025-12-29T10:40:13.993Z</time>
</trkpt>
<trkpt lat="30.9286500" lon="35.2428800">
<ele>-121.160004</ele>
<time>2025-12-29T10:40:13.993Z</time>
</trkpt>
<trkpt lat="30.9287200" lon="35.2428700">
<ele>-120.099998</ele>
<time>2025-12-29T10:40:13.993Z</time>
</trkpt>
<trkpt lat="30.9290500" lon="35.2429000">
<ele>-114.919998</ele>
<time>2025-12-29T10:40:13.993Z</time>
</trkpt>
<trkpt lat="30.9292200" lon="35.2428600">
<ele>-112.539993</ele>
<time>2025-12-29T10:40:13.993Z</time>
</trkpt>
<trkpt lat="30.9293000" lon="35.2428700">
<ele>-111.879997</ele>
<time>2025-12-29T10:40:13.993Z</time>
</trkpt>
<trkpt lat="30.9294900" lon="35.2431200">
<ele>-111.490005</ele>
<time>2025-12-29T10:40:13.993Z</time>
</trkpt>
<trkpt lat="30.9297300" lon="35.2431700">
<ele>-111.609993</ele>
<time>2025-12-29T10:40:13.993Z</time>
</trkpt>
<trkpt lat="30.9298600" lon="35.2431700">
<ele>-114.910004</ele>
<time>2025-12-29T10:40:13.993Z</time>
</trkpt>
<trkpt lat="30.9299600" lon="35.2431300">
<ele>-116.700005</ele>
<time>2025-12-29T10:40:13.993Z</time>
</trkpt>
<trkpt lat="30.9300200" lon="35.2430800">
<ele>-116.799995</ele>
<time>2025-12-29T10:40:13.993Z</time>
</trkpt>
<trkpt lat="30.9301200" lon="35.2429600">
<ele>-116.260002</ele>
<time>2025-12-29T10:40:13.993Z</time>
</trkpt>
<trkpt lat="30.9302300" lon="35.2427300">
<ele>-116.019997</ele>
<time>2025-12-29T10:40:13.993Z</time>
</trkpt>
<trkpt lat="30.9302600" lon="35.2426000">
<ele>-115.450005</ele>
<time>2025-12-29T10:40:13.993Z</time>
</trkpt>
<trkpt lat="30.9301700" lon="35.2423300">
<ele>-109.510002</ele>
<time>2025-12-29T10:40:13.993Z</time>
</trkpt>
<trkpt lat="30.9301500" lon="35.2422300">
<ele>-108.000000</ele>
<time>2025-12-29T10:40:13.993Z</time>
</trkpt>
<trkpt lat="30.9302800" lon="35.2419500">
<ele>-113.030006</ele>
<time>2025-12-29T10:40:13.993Z</time>
</trkpt>
<trkpt lat="30.9302700" lon="35.2418300">
<ele>-111.500000</ele>
<time>2025-12-29T10:40:13.993Z</time>
</trkpt>
<trkpt lat="30.9302200" lon="35.2416200">
<ele>-107.760002</ele>
<time>2025-12-29T10:40:13.993Z</time>
</trkpt>
<trkpt lat="30.9302200" lon="35.2416200">
<ele>-107.760002</ele>
<time>2025-12-29T10:40:13.993Z</time>
</trkpt>
<trkpt lat="30.9301900" lon="35.2415400">
<ele>-106.360001</ele>
<time>2025-12-29T10:40:13.993Z</time>
</trkpt>
<trkpt lat="30.9302000" lon="35.2414200">
<ele>-105.809998</ele>
<time>2025-12-29T10:40:13.993Z</time>
</trkpt>
<trkpt lat="30.9302300" lon="35.2413300">
<ele>-105.650002</ele>
<time>2025-12-29T10:40:13.993Z</time>
</trkpt>
<trkpt lat="30.9303300" lon="35.2413000">
<ele>-105.300003</ele>
<time>2025-12-29T10:40:13.993Z</time>
</trkpt>
<trkpt lat="30.9304500" lon="35.2413300">
<ele>-104.340004</ele>
<time>2025-12-29T10:40:13.993Z</time>
</trkpt>
<trkpt lat="30.9305300" lon="35.2413800">
<ele>-104.909996</ele>
<time>2025-12-29T10:40:13.993Z</time>
</trkpt>
<trkpt lat="30.9307400" lon="35.2416100">
<ele>-107.120003</ele>
<time>2025-12-29T10:40:13.993Z</time>
</trkpt>
<trkpt lat="30.9311400" lon="35.2416400">
<ele>-106.780006</ele>
<time>2025-12-29T10:40:13.993Z</time>
</trkpt>
<trkpt lat="30.9312200" lon="35.2416300">
<ele>-108.059998</ele>
<time>2025-12-29T10:40:13.993Z</time>
</trkpt>
<trkpt lat="30.9313900" lon="35.2415000">
<ele>-109.009995</ele>
<time>2025-12-29T10:40:13.993Z</time>
</trkpt>
<trkpt lat="30.9314000" lon="35.2412900">
<ele>-105.779999</ele>
<time>2025-12-29T10:40:13.993Z</time>
</trkpt>
<trkpt lat="30.9316000" lon="35.2411900">
<ele>-108.809998</ele>
<time>2025-12-29T10:40:13.993Z</time>
</trkpt>
<trkpt lat="30.9317700" lon="35.2411100">
<ele>-110.000000</ele>
<time>2025-12-29T10:40:13.993Z</time>
</trkpt>
<trkpt lat="30.9321200" lon="35.2407700">
<ele>-109.029999</ele>
<time>2025-12-29T10:40:13.993Z</time>
</trkpt>
<trkpt lat="30.9325200" lon="35.2407000">
<ele>-110.339996</ele>
<time>2025-12-29T10:40:13.993Z</time>
</trkpt>
<trkpt lat="30.9329500" lon="35.2405800">
<ele>-108.010002</ele>
<time>2025-12-29T10:40:13.993Z</time>
</trkpt>
<trkpt lat="30.9332700" lon="35.2405600">
<ele>-105.949997</ele>
<time>2025-12-29T10:40:13.993Z</time>
</trkpt>
<trkpt lat="30.9334000" lon="35.2406000">
<ele>-103.839996</ele>
<time>2025-12-29T10:40:13.993Z</time>
</trkpt>
<trkpt lat="30.9336000" lon="35.2407300">
<ele>-100.769997</ele>
<time>2025-12-29T10:40:13.993Z</time>
</trkpt>
<trkpt lat="30.9337300" lon="35.2408000">
<ele>-100.990005</ele>
<time>2025-12-29T10:40:13.993Z</time>
</trkpt>
<trkpt lat="30.9338800" lon="35.2407900">
<ele>-100.110001</ele>
<time>2025-12-29T10:40:13.993Z</time>
</trkpt>
<trkpt lat="30.9340000" lon="35.2407500">
<ele>-102.279999</ele>
<time>2025-12-29T10:40:13.993Z</time>
</trkpt>
<trkpt lat="30.9343500" lon="35.2404800">
<ele>-108.170006</ele>
<time>2025-12-29T10:40:13.993Z</time>
</trkpt>
<trkpt lat="30.9344400" lon="35.2404700">
<ele>-111.589996</ele>
<time>2025-12-29T10:40:13.993Z</time>
</trkpt>
<trkpt lat="30.9345000" lon="35.2405100">
<ele>-112.940002</ele>
<time>2025-12-29T10:40:13.993Z</time>
</trkpt>
<trkpt lat="30.9346100" lon="35.2406500">
<ele>-116.080002</ele>
<time>2025-12-29T10:40:13.993Z</time>
</trkpt>
<trkpt lat="30.9347500" lon="35.2407500">
<ele>-119.529999</ele>
<time>2025-12-29T10:40:13.993Z</time>
</trkpt>
<trkpt lat="30.9347900" lon="35.2408100">
<ele>-120.599998</ele>
<time>2025-12-29T10:40:13.993Z</time>
</trkpt>
<trkpt lat="30.9348100" lon="35.2408600">
<ele>-121.130005</ele>
<time>2025-12-29T10:40:13.993Z</time>
</trkpt>
<trkpt lat="30.9347700" lon="35.2412700">
<ele>-123.790001</ele>
<time>2025-12-29T10:40:13.993Z</time>
</trkpt>
<trkpt lat="30.9348300" lon="35.2415100">
<ele>-125.939995</ele>
<time>2025-12-29T10:40:13.993Z</time>
</trkpt>
<trkpt lat="30.9348600" lon="35.2419900">
<ele>-128.160004</ele>
<time>2025-12-29T10:40:13.993Z</time>
</trkpt>
<trkpt lat="30.9349600" lon="35.2422400">
<ele>-128.940002</ele>
<time>2025-12-29T10:40:13.993Z</time>
</trkpt>
<trkpt lat="30.9351300" lon="35.2423900">
<ele>-127.929993</ele>
<time>2025-12-29T10:40:13.993Z</time>
</trkpt>
<trkpt lat="30.9352900" lon="35.2423100">
<ele>-127.729996</ele>
<time>2025-12-29T10:40:13.993Z</time>
</trkpt>
<trkpt lat="30.9355000" lon="35.2422600">
<ele>-129.139999</ele>
<time>2025-12-29T10:40:13.993Z</time>
</trkpt>
<trkpt lat="30.9356100" lon="35.2422500">
<ele>-128.860001</ele>
<time>2025-12-29T10:40:13.993Z</time>
</trkpt>
<trkpt lat="30.9359600" lon="35.2421000">
<ele>-128.050003</ele>
<time>2025-12-29T10:40:13.993Z</time>
</trkpt>
<trkpt lat="30.9365400" lon="35.2419100">
<ele>-131.809998</ele>
<time>2025-12-29T10:40:13.993Z</time>
</trkpt>
<trkpt lat="30.9368400" lon="35.2417800">
<ele>-132.570007</ele>
<time>2025-12-29T10:40:13.993Z</time>
</trkpt>
<trkpt lat="30.9372500" lon="35.2415000">
<ele>-127.940002</ele>
<time>2025-12-29T10:40:13.993Z</time>
</trkpt>
<trkpt lat="30.9375100" lon="35.2414100">
<ele>-124.669998</ele>
<time>2025-12-29T10:40:13.993Z</time>
</trkpt>
<trkpt lat="30.9378800" lon="35.2412300">
<ele>-123.700005</ele>
<time>2025-12-29T10:40:13.993Z</time>
</trkpt>
<trkpt lat="30.9382300" lon="35.2412400">
<ele>-119.059998</ele>
<time>2025-12-29T10:40:13.993Z</time>
</trkpt>
<trkpt lat="30.9385600" lon="35.2410200">
<ele>-121.260002</ele>
<time>2025-12-29T10:40:13.993Z</time>
</trkpt>
<trkpt lat="30.9392200" lon="35.2409300">
<ele>-121.760002</ele>
<time>2025-12-29T10:40:13.993Z</time>
</trkpt>
<trkpt lat="30.9396500" lon="35.2409700">
<ele>-117.180000</ele>
<time>2025-12-29T10:40:13.993Z</time>
</trkpt>
<trkpt lat="30.9401700" lon="35.2409200">
<ele>-117.669998</ele>
<time>2025-12-29T10:40:13.993Z</time>
</trkpt>
<trkpt lat="30.9407200" lon="35.2409300">
<ele>-114.080002</ele>
<time>2025-12-29T10:40:13.993Z</time>
</trkpt>
<trkpt lat="30.9409100" lon="35.2409100">
<ele>-112.870003</ele>
<time>2025-12-29T10:40:13.993Z</time>
</trkpt>
<trkpt lat="30.9410500" lon="35.2409100">
<ele>-111.500000</ele>
<time>2025-12-29T10:40:13.993Z</time>
</trkpt>
<trkpt lat="30.9413300" lon="35.2410400">
<ele>-108.239998</ele>
<time>2025-12-29T10:40:13.993Z</time>
</trkpt>
<trkpt lat="30.9414600" lon="35.2411300">
<ele>-108.020004</ele>
<time>2025-12-29T10:40:13.993Z</time>
</trkpt>
<trkpt lat="30.9416700" lon="35.2413200">
<ele>-111.030006</ele>
<time>2025-12-29T10:40:13.993Z</time>
</trkpt>
<trkpt lat="30.9420600" lon="35.2415900">
<ele>-111.779999</ele>
<time>2025-12-29T10:40:13.993Z</time>
</trkpt>
<trkpt lat="30.9421600" lon="35.2416400">
<ele>-111.769997</ele>
<time>2025-12-29T10:40:13.993Z</time>
</trkpt>
<trkpt lat="30.9429500" lon="35.2418500">
<ele>-103.659996</ele>
<time>2025-12-29T10:40:13.993Z</time>
</trkpt>
<trkpt lat="30.9431900" lon="35.2418400">
<ele>-100.680000</ele>
<time>2025-12-29T10:40:13.993Z</time>
</trkpt>
<trkpt lat="30.9444400" lon="35.2415800">
<ele>-107.309998</ele>
<time>2025-12-29T10:40:13.993Z</time>
</trkpt>
<trkpt lat="30.9449000" lon="35.2414200">
<ele>-104.459999</ele>
<time>2025-12-29T10:40:13.993Z</time>
</trkpt>
<trkpt lat="30.9453100" lon="35.2412300">
<ele>-103.110001</ele>
<time>2025-12-29T10:40:13.993Z</time>
</trkpt>
<trkpt lat="30.9456800" lon="35.2411000">
<ele>-100.129997</ele>
<time>2025-12-29T10:40:13.993Z</time>
</trkpt>
<trkpt lat="30.9461800" lon="35.2408600">
<ele>-99.910004</ele>
<time>2025-12-29T10:40:13.993Z</time>
</trkpt>
<trkpt lat="30.9466700" lon="35.2406700">
<ele>-102.129997</ele>
<time>2025-12-29T10:40:13.993Z</time>
</trkpt>
<trkpt lat="30.9471100" lon="35.2404100">
<ele>-98.850006</ele>
<time>2025-12-29T10:40:13.993Z</time>
</trkpt>
<trkpt lat="30.9472100" lon="35.2403100">
<ele>-98.159996</ele>
<time>2025-12-29T10:40:13.993Z</time>
</trkpt>
<trkpt lat="30.9473800" lon="35.2399700">
<ele>-100.760002</ele>
<time>2025-12-29T10:40:13.993Z</time>
</trkpt>
<trkpt lat="30.9474800" lon="35.2395100">
<ele>-104.500000</ele>
<time>2025-12-29T10:40:13.993Z</time>
</trkpt>
<trkpt lat="30.9475700" lon="35.2392400">
<ele>-104.129997</ele>
<time>2025-12-29T10:40:13.993Z</time>
</trkpt>
<trkpt lat="30.9476500" lon="35.2391100">
<ele>-103.910004</ele>
<time>2025-12-29T10:40:13.993Z</time>
</trkpt>
<trkpt lat="30.9478200" lon="35.2389000">
<ele>-104.439995</ele>
<time>2025-12-29T10:40:13.993Z</time>
</trkpt>
<trkpt lat="30.9478800" lon="35.2388000">
<ele>-104.230003</ele>
<time>2025-12-29T10:40:13.993Z</time>
</trkpt>
<trkpt lat="30.9479400" lon="35.2386500">
<ele>-103.029999</ele>
<time>2025-12-29T10:40:13.993Z</time>
</trkpt>
<trkpt lat="30.9480100" lon="35.2383100">
<ele>-98.870003</ele>
<time>2025-12-29T10:40:13.993Z</time>
</trkpt>
<trkpt lat="30.9480500" lon="35.2380500">
<ele>-97.059998</ele>
<time>2025-12-29T10:40:13.993Z</time>
</trkpt>
<trkpt lat="30.9480500" lon="35.2377700">
<ele>-97.030006</ele>
<time>2025-12-29T10:40:13.993Z</time>
</trkpt>
<trkpt lat="30.9481300" lon="35.2376000">
<ele>-96.610001</ele>
<time>2025-12-29T10:40:13.993Z</time>
</trkpt>
<trkpt lat="30.9483500" lon="35.2373400">
<ele>-99.310005</ele>
<time>2025-12-29T10:40:13.993Z</time>
</trkpt>
<trkpt lat="30.9481100" lon="35.2368100">
<ele>-97.889999</ele>
<time>2025-12-29T10:40:13.993Z</time>
</trkpt>
<trkpt lat="30.9479200" lon="35.2361300">
<ele>-91.629997</ele>
<time>2025-12-29T10:40:13.993Z</time>
</trkpt>
<trkpt lat="30.9477500" lon="35.2355700">
<ele>-88.400002</ele>
<time>2025-12-29T10:40:13.993Z</time>
</trkpt>
<trkpt lat="30.9475200" lon="35.2349100">
<ele>-87.070000</ele>
<time>2025-12-29T10:40:13.993Z</time>
</trkpt>
<trkpt lat="30.9471600" lon="35.2339800">
<ele>-85.549995</ele>
<time>2025-12-29T10:40:13.993Z</time>
</trkpt>
<trkpt lat="30.9470700" lon="35.2337000">
<ele>-85.180000</ele>
<time>2025-12-29T10:40:13.993Z</time>
</trkpt>
<trkpt lat="30.9467200" lon="35.2321000">
<ele>-82.449997</ele>
<time>2025-12-29T10:40:13.993Z</time>
</trkpt>
<trkpt lat="30.9466300" lon="35.2314900">
<ele>-85.109993</ele>
<time>2025-12-29T10:40:13.993Z</time>
</trkpt>
<trkpt lat="30.9466000" lon="35.2310600">
<ele>-89.019997</ele>
<time>2025-12-29T10:40:13.993Z</time>
</trkpt>
<trkpt lat="30.9466200" lon="35.2308300">
<ele>-87.820000</ele>
<time>2025-12-29T10:40:13.993Z</time>
</trkpt>
<trkpt lat="30.9468100" lon="35.2303300">
<ele>-82.029999</ele>
<time>2025-12-29T10:40:13.993Z</time>
</trkpt>
<trkpt lat="30.9468800" lon="35.2300500">
<ele>-82.570000</ele>
<time>2025-12-29T10:40:13.993Z</time>
</trkpt>
<trkpt lat="30.9469200" lon="35.2298600">
<ele>-82.900002</ele>
<time>2025-12-29T10:40:13.993Z</time>
</trkpt>
<trkpt lat="30.9469500" lon="35.2295100">
<ele>-84.470001</ele>
<time>2025-12-29T10:40:13.993Z</time>
</trkpt>
<trkpt lat="30.9468300" lon="35.2292200">
<ele>-87.270004</ele>
<time>2025-12-29T10:40:13.993Z</time>
</trkpt>
<trkpt lat="30.9467300" lon="35.2288200">
<ele>-87.070000</ele>
<time>2025-12-29T10:40:13.993Z</time>
</trkpt>
<trkpt lat="30.9467500" lon="35.2281800">
<ele>-77.290001</ele>
<time>2025-12-29T10:40:13.993Z</time>
</trkpt>
<trkpt lat="30.9467700" lon="35.2280100">
<ele>-75.820000</ele>
<time>2025-12-29T10:40:13.993Z</time>
</trkpt>
<trkpt lat="30.9468900" lon="35.2277700">
<ele>-72.889999</ele>
<time>2025-12-29T10:40:13.993Z</time>
</trkpt>
<trkpt lat="30.9469800" lon="35.2274700">
<ele>-69.040001</ele>
<time>2025-12-29T10:40:13.993Z</time>
</trkpt>
<trkpt lat="30.9470800" lon="35.2272800">
<ele>-68.389999</ele>
<time>2025-12-29T10:40:13.993Z</time>
</trkpt>
<trkpt lat="30.9472200" lon="35.2270800">
<ele>-66.939995</ele>
<time>2025-12-29T10:40:13.993Z</time>
</trkpt>
<trkpt lat="30.9475700" lon="35.2267600">
<ele>-67.870003</ele>
<time>2025-12-29T10:40:13.993Z</time>
</trkpt>
<trkpt lat="30.9477500" lon="35.2265400">
<ele>-65.900002</ele>
<time>2025-12-29T10:40:13.993Z</time>
</trkpt>
<trkpt lat="30.9478200" lon="35.2264300">
<ele>-62.860001</ele>
<time>2025-12-29T10:40:13.993Z</time>
</trkpt>
<trkpt lat="30.9480100" lon="35.2260200">
<ele>-58.130001</ele>
<time>2025-12-29T10:40:13.993Z</time>
</trkpt>
<trkpt lat="30.9482700" lon="35.2256700">
<ele>-61.090000</ele>
<time>2025-12-29T10:40:13.993Z</time>
</trkpt>
<trkpt lat="30.9484400" lon="35.2252600">
<ele>-58.680000</ele>
<time>2025-12-29T10:40:13.993Z</time>
</trkpt>
<trkpt lat="30.9487900" lon="35.2246000">
<ele>-52.040001</ele>
<time>2025-12-29T10:40:13.993Z</time>
</trkpt>
<trkpt lat="30.9488300" lon="35.2244100">
<ele>-49.939999</ele>
<time>2025-12-29T10:40:13.993Z</time>
</trkpt>
<trkpt lat="30.9488200" lon="35.2242100">
<ele>-48.350002</ele>
<time>2025-12-29T10:40:13.993Z</time>
</trkpt>
<trkpt lat="30.9487700" lon="35.2239700">
<ele>-45.770000</ele>
<time>2025-12-29T10:40:13.993Z</time>
</trkpt>
<trkpt lat="30.9485700" lon="35.2233600">
<ele>-44.049999</ele>
<time>2025-12-29T10:40:13.993Z</time>
</trkpt>
<trkpt lat="30.9484500" lon="35.2228100">
<ele>-39.809998</ele>
<time>2025-12-29T10:40:13.993Z</time>
</trkpt>
<trkpt lat="30.9483700" lon="35.2225300">
<ele>-37.220001</ele>
<time>2025-12-29T10:40:13.993Z</time>
</trkpt>
<trkpt lat="30.9482600" lon="35.2222700">
<ele>-34.079998</ele>
<time>2025-12-29T10:40:13.993Z</time>
</trkpt>
<trkpt lat="30.9480200" lon="35.2218000">
<ele>-30.059999</ele>
<time>2025-12-29T10:40:13.993Z</time>
</trkpt>
<trkpt lat="30.9479400" lon="35.2215400">
<ele>-26.310001</ele>
<time>2025-12-29T10:40:13.993Z</time>
</trkpt>
<trkpt lat="30.9478400" lon="35.2211100">
<ele>-16.320000</ele>
<time>2025-12-29T10:40:13.993Z</time>
</trkpt>
<trkpt lat="30.9477800" lon="35.2209700">
<ele>-12.000000</ele>
<time>2025-12-29T10:40:13.993Z</time>
</trkpt>
<trkpt lat="30.9477300" lon="35.2209200">
<ele>-11.230000</ele>
<time>2025-12-29T10:40:13.993Z</time>
</trkpt>
<trkpt lat="30.9476800" lon="35.2208900">
<ele>-11.060000</ele>
<time>2025-12-29T10:40:13.993Z</time>
</trkpt>
<trkpt lat="30.9474500" lon="35.2208200">
<ele>-12.630000</ele>
<time>2025-12-29T10:40:13.993Z</time>
</trkpt>
<trkpt lat="30.9472000" lon="35.2207000">
<ele>-15.719999</ele>
<time>2025-12-29T10:40:13.993Z</time>
</trkpt>
<trkpt lat="30.9469000" lon="35.2206000">
<ele>-17.910000</ele>
<time>2025-12-29T10:40:13.993Z</time>
</trkpt>
<trkpt lat="30.9464100" lon="35.2204000">
<ele>-14.400001</ele>
<time>2025-12-29T10:40:13.993Z</time>
</trkpt>
<trkpt lat="30.9462400" lon="35.2202800">
<ele>-14.099999</ele>
<time>2025-12-29T10:40:13.993Z</time>
</trkpt>
<trkpt lat="30.9458000" lon="35.2198400">
<ele>-17.629999</ele>
<time>2025-12-29T10:40:13.993Z</time>
</trkpt>
<trkpt lat="30.9456000" lon="35.2196800">
<ele>-17.940001</ele>
<time>2025-12-29T10:40:13.993Z</time>
</trkpt>
<trkpt lat="30.9449900" lon="35.2194800">
<ele>-17.350000</ele>
<time>2025-12-29T10:40:13.993Z</time>
</trkpt>
<trkpt lat="30.9448800" lon="35.2194800">
<ele>-18.440001</ele>
<time>2025-12-29T10:40:13.993Z</time>
</trkpt>
<trkpt lat="30.9446300" lon="35.2195200">
<ele>-20.000000</ele>
<time>2025-12-29T10:40:13.993Z</time>
</trkpt>
<trkpt lat="30.9445500" lon="35.2195200">
<ele>-20.000000</ele>
<time>2025-12-29T10:40:13.993Z</time>
</trkpt>
<trkpt lat="30.9444600" lon="35.2194700">
<ele>-20.000000</ele>
<time>2025-12-29T10:40:13.993Z</time>
</trkpt>
<trkpt lat="30.9443600" lon="35.2193700">
<ele>-20.570000</ele>
<time>2025-12-29T10:40:13.993Z</time>
</trkpt>
<trkpt lat="30.9443400" lon="35.2193100">
<ele>-20.860001</ele>
<time>2025-12-29T10:40:13.993Z</time>
</trkpt>
<trkpt lat="30.9443200" lon="35.2192200">
<ele>-21.260000</ele>
<time>2025-12-29T10:40:13.993Z</time>
</trkpt>
<trkpt lat="30.9443300" lon="35.2191500">
<ele>-21.349998</ele>
<time>2025-12-29T10:40:13.993Z</time>
</trkpt>
<trkpt lat="30.9444500" lon="35.2189100">
<ele>-20.040001</ele>
<time>2025-12-29T10:40:13.993Z</time>
</trkpt>
<trkpt lat="30.9445100" lon="35.2187500">
<ele>-19.410000</ele>
<time>2025-12-29T10:40:13.993Z</time>
</trkpt>
<trkpt lat="30.9445300" lon="35.2185600">
<ele>-18.709999</ele>
<time>2025-12-29T10:40:13.993Z</time>
</trkpt>
<trkpt lat="30.9445100" lon="35.2184500">
<ele>-18.130001</ele>
<time>2025-12-29T10:40:13.993Z</time>
</trkpt>
<trkpt lat="30.9444200" lon="35.2182800">
<ele>-17.660000</ele>
<time>2025-12-29T10:40:13.993Z</time>
</trkpt>
<trkpt lat="30.9442200" lon="35.2180100">
<ele>-20.660000</ele>
<time>2025-12-29T10:40:13.993Z</time>
</trkpt>
<trkpt lat="30.9441000" lon="35.2177200">
<ele>-24.710001</ele>
<time>2025-12-29T10:40:13.993Z</time>
</trkpt>
<trkpt lat="30.9440400" lon="35.2176200">
<ele>-25.840000</ele>
<time>2025-12-29T10:40:13.993Z</time>
</trkpt>
<trkpt lat="30.9440000" lon="35.2175800">
<ele>-26.799999</ele>
<time>2025-12-29T10:40:13.993Z</time>
</trkpt>
<trkpt lat="30.9439500" lon="35.2175800">
<ele>-27.850000</ele>
<time>2025-12-29T10:40:13.993Z</time>
</trkpt>
<trkpt lat="30.9439100" lon="35.2176000">
<ele>-28.500000</ele>
<time>2025-12-29T10:40:13.993Z</time>
</trkpt>
<trkpt lat="30.9437200" lon="35.2176100">
<ele>-32.220001</ele>
<time>2025-12-29T10:40:13.993Z</time>
</trkpt>
<trkpt lat="30.9435100" lon="35.2175400">
<ele>-35.160000</ele>
<time>2025-12-29T10:40:13.993Z</time>
</trkpt>
<trkpt lat="30.9433900" lon="35.2175300">
<ele>-34.939999</ele>
<time>2025-12-29T10:40:13.993Z</time>
</trkpt>
<trkpt lat="30.9432000" lon="35.2174700">
<ele>-37.189999</ele>
<time>2025-12-29T10:40:13.993Z</time>
</trkpt>
<trkpt lat="30.9432000" lon="35.2174700">
<ele>-37.189999</ele>
<time>2025-12-29T10:40:13.993Z</time>
</trkpt>
<trkpt lat="30.9431700" lon="35.2174600">
<ele>-37.630001</ele>
<time>2025-12-29T10:40:13.993Z</time>
</trkpt>
<trkpt lat="30.9430300" lon="35.2173600">
<ele>-39.039997</ele>
<time>2025-12-29T10:40:13.993Z</time>
</trkpt>
<trkpt lat="30.9428800" lon="35.2173400">
<ele>-42.060001</ele>
<time>2025-12-29T10:40:13.993Z</time>
</trkpt>
<trkpt lat="30.9426900" lon="35.2173500">
<ele>-45.620003</ele>
<time>2025-12-29T10:40:13.993Z</time>
</trkpt>
<trkpt lat="30.9424200" lon="35.2172700">
<ele>-48.339996</ele>
<time>2025-12-29T10:40:13.993Z</time>
</trkpt>
<trkpt lat="30.9422400" lon="35.2172600">
<ele>-51.660000</ele>
<time>2025-12-29T10:40:13.993Z</time>
</trkpt>
<trkpt lat="30.9419900" lon="35.2173000">
<ele>-61.330002</ele>
<time>2025-12-29T10:40:13.993Z</time>
</trkpt>
<trkpt lat="30.9418800" lon="35.2172900">
<ele>-65.360001</ele>
<time>2025-12-29T10:40:13.993Z</time>
</trkpt>
<trkpt lat="30.9416800" lon="35.2172100">
<ele>-72.349998</ele>
<time>2025-12-29T10:40:13.993Z</time>
</trkpt>
<trkpt lat="30.9416100" lon="35.2172000">
<ele>-73.209999</ele>
<time>2025-12-29T10:40:13.993Z</time>
</trkpt>
<trkpt lat="30.9414500" lon="35.2172400">
<ele>-75.250000</ele>
<time>2025-12-29T10:40:13.993Z</time>
</trkpt>
<trkpt lat="30.9412400" lon="35.2173800">
<ele>-74.970001</ele>
<time>2025-12-29T10:40:13.993Z</time>
</trkpt>
<trkpt lat="30.9411900" lon="35.2173900">
<ele>-74.830002</ele>
<time>2025-12-29T10:40:13.993Z</time>
</trkpt>
<trkpt lat="30.9410500" lon="35.2173200">
<ele>-73.989998</ele>
<time>2025-12-29T10:40:13.993Z</time>
</trkpt>
<trkpt lat="30.9409300" lon="35.2173300">
<ele>-73.339996</ele>
<time>2025-12-29T10:40:13.993Z</time>
</trkpt>
<trkpt lat="30.9408000" lon="35.2172800">
<ele>-72.400002</ele>
<time>2025-12-29T10:40:13.993Z</time>
</trkpt>
<trkpt lat="30.9406600" lon="35.2173100">
<ele>-72.799995</ele>
<time>2025-12-29T10:40:13.993Z</time>
</trkpt>
<trkpt lat="30.9406100" lon="35.2173500">
<ele>-73.599998</ele>
<time>2025-12-29T10:40:13.993Z</time>
</trkpt>
<trkpt lat="30.9405600" lon="35.2173700">
<ele>-74.169998</ele>
<time>2025-12-29T10:40:13.993Z</time>
</trkpt>
<trkpt lat="30.9405000" lon="35.2173800">
<ele>-75.519997</ele>
<time>2025-12-29T10:40:13.993Z</time>
</trkpt>
<trkpt lat="30.9402900" lon="35.2173400">
<ele>-78.730003</ele>
<time>2025-12-29T10:40:13.993Z</time>
</trkpt>
<trkpt lat="30.9402100" lon="35.2173600">
<ele>-81.430000</ele>
<time>2025-12-29T10:40:13.993Z</time>
</trkpt>
<trkpt lat="30.9401300" lon="35.2173900">
<ele>-84.260002</ele>
<time>2025-12-29T10:40:13.993Z</time>
</trkpt>
<trkpt lat="30.9400100" lon="35.2175000">
<ele>-88.780006</ele>
<time>2025-12-29T10:40:13.993Z</time>
</trkpt>
<trkpt lat="30.9399700" lon="35.2175800">
<ele>-89.529999</ele>
<time>2025-12-29T10:40:13.993Z</time>
</trkpt>
<trkpt lat="30.9399300" lon="35.2177500">
<ele>-91.000000</ele>
<time>2025-12-29T10:40:13.993Z</time>
</trkpt>
<trkpt lat="30.9399400" lon="35.2180400">
<ele>-96.010002</ele>
<time>2025-12-29T10:40:13.993Z</time>
</trkpt>
<trkpt lat="30.9399000" lon="35.2182300">
<ele>-96.529999</ele>
<time>2025-12-29T10:40:13.993Z</time>
</trkpt>
<trkpt lat="30.9398400" lon="35.2184100">
<ele>-96.120003</ele>
<time>2025-12-29T10:40:13.993Z</time>
</trkpt>
<trkpt lat="30.9397100" lon="35.2185800">
<ele>-96.620003</ele>
<time>2025-12-29T10:40:13.993Z</time>
</trkpt>
<trkpt lat="30.9396500" lon="35.2186500">
<ele>-95.989998</ele>
<time>2025-12-29T10:40:13.993Z</time>
</trkpt>
<trkpt lat="30.9394900" lon="35.2187200">
<ele>-96.860001</ele>
<time>2025-12-29T10:40:13.993Z</time>
</trkpt>
<trkpt lat="30.9391400" lon="35.2187400">
<ele>-101.910004</ele>
<time>2025-12-29T10:40:13.993Z</time>
</trkpt>
<trkpt lat="30.9389100" lon="35.2188000">
<ele>-103.410004</ele>
<time>2025-12-29T10:40:13.993Z</time>
</trkpt>
<trkpt lat="30.9387600" lon="35.2187900">
<ele>-105.839996</ele>
<time>2025-12-29T10:40:13.993Z</time>
</trkpt>
<trkpt lat="30.9386700" lon="35.2188100">
<ele>-107.400002</ele>
<time>2025-12-29T10:40:13.993Z</time>
</trkpt>
<trkpt lat="30.9386000" lon="35.2188700">
<ele>-108.950005</ele>
<time>2025-12-29T10:40:13.993Z</time>
</trkpt>
<trkpt lat="30.9384700" lon="35.2190400">
<ele>-108.950005</ele>
<time>2025-12-29T10:40:13.993Z</time>
</trkpt>
<trkpt lat="30.9384100" lon="35.2191400">
<ele>-109.449997</ele>
<time>2025-12-29T10:40:13.993Z</time>
</trkpt>
<trkpt lat="30.9383600" lon="35.2192900">
<ele>-108.650002</ele>
<time>2025-12-29T10:40:13.993Z</time>
</trkpt>
<trkpt lat="30.9383100" lon="35.2193600">
<ele>-108.500000</ele>
<time>2025-12-29T10:40:13.993Z</time>
</trkpt>
<trkpt lat="30.9381800" lon="35.2194500">
<ele>-109.150002</ele>
<time>2025-12-29T10:40:13.993Z</time>
</trkpt>
<trkpt lat="30.9380100" lon="35.2194700">
<ele>-112.160004</ele>
<time>2025-12-29T10:40:13.993Z</time>
</trkpt>
<trkpt lat="30.9377700" lon="35.2194000">
<ele>-118.619995</ele>
<time>2025-12-29T10:40:13.993Z</time>
</trkpt>
<trkpt lat="30.9373900" lon="35.2193600">
<ele>-113.289993</ele>
<time>2025-12-29T10:40:13.993Z</time>
</trkpt>
<trkpt lat="30.9370900" lon="35.2193800">
<ele>-109.580002</ele>
<time>2025-12-29T10:40:13.993Z</time>
</trkpt>
<trkpt lat="30.9369000" lon="35.2194300">
<ele>-110.809998</ele>
<time>2025-12-29T10:40:13.993Z</time>
</trkpt>
<trkpt lat="30.9368100" lon="35.2194200">
<ele>-112.680000</ele>
<time>2025-12-29T10:40:13.993Z</time>
</trkpt>
<trkpt lat="30.9366800" lon="35.2193600">
<ele>-115.089996</ele>
<time>2025-12-29T10:40:13.993Z</time>
</trkpt>
<trkpt lat="30.9364800" lon="35.2192200">
<ele>-116.530006</ele>
<time>2025-12-29T10:40:13.993Z</time>
</trkpt>
<trkpt lat="30.9364100" lon="35.2192000">
<ele>-117.120003</ele>
<time>2025-12-29T10:40:13.993Z</time>
</trkpt>
<trkpt lat="30.9361600" lon="35.2192100">
<ele>-118.729996</ele>
<time>2025-12-29T10:40:13.993Z</time>
</trkpt>
<trkpt lat="30.9359700" lon="35.2191900">
<ele>-119.040001</ele>
<time>2025-12-29T10:40:13.993Z</time>
</trkpt>
<trkpt lat="30.9358800" lon="35.2191600">
<ele>-118.980003</ele>
<time>2025-12-29T10:40:13.993Z</time>
</trkpt>
<trkpt lat="30.9356800" lon="35.2190500">
<ele>-117.809998</ele>
<time>2025-12-29T10:40:13.993Z</time>
</trkpt>
<trkpt lat="30.9356000" lon="35.2190500">
<ele>-117.190002</ele>
<time>2025-12-29T10:40:13.993Z</time>
</trkpt>
<trkpt lat="30.9354900" lon="35.2191100">
<ele>-115.510002</ele>
<time>2025-12-29T10:40:13.993Z</time>
</trkpt>
<trkpt lat="30.9353400" lon="35.2192500">
<ele>-113.439995</ele>
<time>2025-12-29T10:40:13.993Z</time>
</trkpt>
<trkpt lat="30.9351700" lon="35.2195300">
<ele>-111.989998</ele>
<time>2025-12-29T10:40:13.993Z</time>
</trkpt>
<trkpt lat="30.9350600" lon="35.2198000">
<ele>-112.590004</ele>
<time>2025-12-29T10:40:13.993Z</time>
</trkpt>
<trkpt lat="30.9349100" lon="35.2200100">
<ele>-114.479996</ele>
<time>2025-12-29T10:40:13.993Z</time>
</trkpt>
<trkpt lat="30.9348400" lon="35.2200500">
<ele>-114.459999</ele>
<time>2025-12-29T10:40:13.993Z</time>
</trkpt>
<trkpt lat="30.9347800" lon="35.2200500">
<ele>-113.989998</ele>
<time>2025-12-29T10:40:13.993Z</time>
</trkpt>
<trkpt lat="30.9347000" lon="35.2200400">
<ele>-113.639999</ele>
<time>2025-12-29T10:40:13.993Z</time>
</trkpt>
<trkpt lat="30.9346600" lon="35.2200100">
<ele>-113.589996</ele>
<time>2025-12-29T10:40:13.993Z</time>
</trkpt>
<trkpt lat="30.9344300" lon="35.2196100">
<ele>-110.859993</ele>
<time>2025-12-29T10:40:13.993Z</time>
</trkpt>
<trkpt lat="30.9343300" lon="35.2192800">
<ele>-110.730003</ele>
<time>2025-12-29T10:40:13.993Z</time>
</trkpt>
<trkpt lat="30.9341000" lon="35.2191600">
<ele>-110.910004</ele>
<time>2025-12-29T10:40:13.993Z</time>
</trkpt>
<trkpt lat="30.9339400" lon="35.2190100">
<ele>-111.680000</ele>
<time>2025-12-29T10:40:13.993Z</time>
</trkpt>
<trkpt lat="30.9338700" lon="35.2189200">
<ele>-111.479996</ele>
<time>2025-12-29T10:40:13.993Z</time>
</trkpt>
<trkpt lat="30.9338100" lon="35.2187500">
<ele>-110.139999</ele>
<time>2025-12-29T10:40:13.993Z</time>
</trkpt>
<trkpt lat="30.9337700" lon="35.2186900">
<ele>-109.500008</ele>
<time>2025-12-29T10:40:13.993Z</time>
</trkpt>
<trkpt lat="30.9334000" lon="35.2183900">
<ele>-107.099998</ele>
<time>2025-12-29T10:40:13.993Z</time>
</trkpt>
<trkpt lat="30.9332400" lon="35.2182200">
<ele>-105.779999</ele>
<time>2025-12-29T10:40:13.993Z</time>
</trkpt>
<trkpt lat="30.9331700" lon="35.2180600">
<ele>-104.050003</ele>
<time>2025-12-29T10:40:13.993Z</time>
</trkpt>
<trkpt lat="30.9331400" lon="35.2178800">
<ele>-103.369995</ele>
<time>2025-12-29T10:40:13.993Z</time>
</trkpt>
<trkpt lat="30.9330900" lon="35.2177900">
<ele>-103.040001</ele>
<time>2025-12-29T10:40:13.993Z</time>
</trkpt>
<trkpt lat="30.9328800" lon="35.2174400">
<ele>-102.589996</ele>
<time>2025-12-29T10:40:13.993Z</time>
</trkpt>
<trkpt lat="30.9327100" lon="35.2172300">
<ele>-100.329994</ele>
<time>2025-12-29T10:40:13.993Z</time>
</trkpt>
<trkpt lat="30.9326900" lon="35.2171700">
<ele>-99.750008</ele>
<time>2025-12-29T10:40:13.993Z</time>
</trkpt>
<trkpt lat="30.9327100" lon="35.2169700">
<ele>-97.520004</ele>
<time>2025-12-29T10:40:13.993Z</time>
</trkpt>
<trkpt lat="30.9326900" lon="35.2168900">
<ele>-97.050003</ele>
<time>2025-12-29T10:40:13.993Z</time>
</trkpt>
<trkpt lat="30.9326500" lon="35.2168400">
<ele>-97.050003</ele>
<time>2025-12-29T10:40:13.993Z</time>
</trkpt>
<trkpt lat="30.9326000" lon="35.2168100">
<ele>-97.289993</ele>
<time>2025-12-29T10:40:13.993Z</time>
</trkpt>
<trkpt lat="30.9322800" lon="35.2167300">
<ele>-102.750000</ele>
<time>2025-12-29T10:40:13.993Z</time>
</trkpt>
<trkpt lat="30.9322000" lon="35.2167300">
<ele>-103.919998</ele>
<time>2025-12-29T10:40:13.993Z</time>
</trkpt>
<trkpt lat="30.9320300" lon="35.2167800">
<ele>-103.309998</ele>
<time>2025-12-29T10:40:13.993Z</time>
</trkpt>
<trkpt lat="30.9317500" lon="35.2169500">
<ele>-102.410004</ele>
<time>2025-12-29T10:40:13.993Z</time>
</trkpt>
<trkpt lat="30.9316300" lon="35.2169500">
<ele>-102.490005</ele>
<time>2025-12-29T10:40:13.993Z</time>
</trkpt>
<trkpt lat="30.9315800" lon="35.2169000">
<ele>-102.849998</ele>
<time>2025-12-29T10:40:13.993Z</time>
</trkpt>
<trkpt lat="30.9315100" lon="35.2166500">
<ele>-101.719994</ele>
<time>2025-12-29T10:40:13.993Z</time>
</trkpt>
<trkpt lat="30.9314400" lon="35.2165600">
<ele>-100.290001</ele>
<time>2025-12-29T10:40:13.993Z</time>
</trkpt>
<trkpt lat="30.9313400" lon="35.2164900">
<ele>-99.379997</ele>
<time>2025-12-29T10:40:13.993Z</time>
</trkpt>
<trkpt lat="30.9311600" lon="35.2164100">
<ele>-99.809998</ele>
<time>2025-12-29T10:40:13.993Z</time>
</trkpt>
<trkpt lat="30.9311100" lon="35.2164000">
<ele>-100.080002</ele>
<time>2025-12-29T10:40:13.993Z</time>
</trkpt>
<trkpt lat="30.9310500" lon="35.2164000">
<ele>-100.080002</ele>
<time>2025-12-29T10:40:13.993Z</time>
</trkpt>
<trkpt lat="30.9308800" lon="35.2164500">
<ele>-100.440002</ele>
<time>2025-12-29T10:40:13.993Z</time>
</trkpt>
<trkpt lat="30.9307600" lon="35.2164500">
<ele>-100.440002</ele>
<time>2025-12-29T10:40:13.993Z</time>
</trkpt>
<trkpt lat="30.9306400" lon="35.2163900">
<ele>-100.009995</ele>
<time>2025-12-29T10:40:13.993Z</time>
</trkpt>
<trkpt lat="30.9305200" lon="35.2162700">
<ele>-99.320000</ele>
<time>2025-12-29T10:40:13.993Z</time>
</trkpt>
<trkpt lat="30.9304000" lon="35.2160800">
<ele>-97.770004</ele>
<time>2025-12-29T10:40:13.993Z</time>
</trkpt>
<trkpt lat="30.9303700" lon="35.2160000">
<ele>-97.259995</ele>
<time>2025-12-29T10:40:13.993Z</time>
</trkpt>
<trkpt lat="30.9303300" lon="35.2158400">
<ele>-96.400002</ele>
<time>2025-12-29T10:40:13.993Z</time>
</trkpt>
<trkpt lat="30.9302600" lon="35.2156800">
<ele>-95.580002</ele>
<time>2025-12-29T10:40:13.993Z</time>
</trkpt>
<trkpt lat="30.9301200" lon="35.2155000">
<ele>-96.019997</ele>
<time>2025-12-29T10:40:13.993Z</time>
</trkpt>
<trkpt lat="30.9300700" lon="35.2154200">
<ele>-96.130005</ele>
<time>2025-12-29T10:40:13.993Z</time>
</trkpt>
<trkpt lat="30.9299500" lon="35.2153000">
<ele>-95.909996</ele>
<time>2025-12-29T10:40:13.993Z</time>
</trkpt>
<trkpt lat="30.9298800" lon="35.2152000">
<ele>-94.730003</ele>
<time>2025-12-29T10:40:13.993Z</time>
</trkpt>
<trkpt lat="30.9298100" lon="35.2150600">
<ele>-92.959999</ele>
<time>2025-12-29T10:40:13.993Z</time>
</trkpt>
<trkpt lat="30.9297400" lon="35.2148300">
<ele>-92.059998</ele>
<time>2025-12-29T10:40:13.993Z</time>
</trkpt>
<trkpt lat="30.9295500" lon="35.2146600">
<ele>-90.879997</ele>
<time>2025-12-29T10:40:13.993Z</time>
</trkpt>
<trkpt lat="30.9294200" lon="35.2144700">
<ele>-88.269997</ele>
<time>2025-12-29T10:40:13.993Z</time>
</trkpt>
<trkpt lat="30.9292800" lon="35.2141200">
<ele>-86.550003</ele>
<time>2025-12-29T10:40:13.993Z</time>
</trkpt>
<trkpt lat="30.9292200" lon="35.2140900">
<ele>-86.929993</ele>
<time>2025-12-29T10:40:13.993Z</time>
</trkpt>
<trkpt lat="30.9291100" lon="35.2141100">
<ele>-87.820000</ele>
<time>2025-12-29T10:40:13.993Z</time>
</trkpt>
<trkpt lat="30.9289600" lon="35.2141100">
<ele>-89.440002</ele>
<time>2025-12-29T10:40:13.993Z</time>
</trkpt>
<trkpt lat="30.9288400" lon="35.2140600">
<ele>-90.780006</ele>
<time>2025-12-29T10:40:13.993Z</time>
</trkpt>
<trkpt lat="30.9287600" lon="35.2139700">
<ele>-91.440002</ele>
<time>2025-12-29T10:40:13.993Z</time>
</trkpt>
<trkpt lat="30.9287300" lon="35.2139100">
<ele>-91.580002</ele>
<time>2025-12-29T10:40:13.993Z</time>
</trkpt>
<trkpt lat="30.9287000" lon="35.2137700">
<ele>-91.099998</ele>
<time>2025-12-29T10:40:13.993Z</time>
</trkpt>
<trkpt lat="30.9286600" lon="35.2137100">
<ele>-90.760002</ele>
<time>2025-12-29T10:40:13.993Z</time>
</trkpt>
<trkpt lat="30.9285800" lon="35.2136300">
<ele>-90.150002</ele>
<time>2025-12-29T10:40:13.993Z</time>
</trkpt>
<trkpt lat="30.9284600" lon="35.2135800">
<ele>-89.939995</ele>
<time>2025-12-29T10:40:13.993Z</time>
</trkpt>
<trkpt lat="30.9284100" lon="35.2135300">
<ele>-89.790001</ele>
<time>2025-12-29T10:40:13.993Z</time>
</trkpt>
<trkpt lat="30.9283600" lon="35.2134500">
<ele>-89.479996</ele>
<time>2025-12-29T10:40:13.993Z</time>
</trkpt>
<trkpt lat="30.9283100" lon="35.2133300">
<ele>-89.229996</ele>
<time>2025-12-29T10:40:13.993Z</time>
</trkpt>
<trkpt lat="30.9283000" lon="35.2133200">
<ele>-89.260002</ele>
<time>2025-12-29T10:40:13.993Z</time>
</trkpt>
<trkpt lat="30.9283000" lon="35.2133200">
<ele>-89.260002</ele>
<time>2025-12-29T10:40:13.993Z</time>
</trkpt>
<trkpt lat="30.9283100" lon="35.2133300">
<ele>-89.229996</ele>
<time>2025-12-29T10:40:13.993Z</time>
</trkpt>
<trkpt lat="30.9282500" lon="35.2131800">
<ele>-88.630005</ele>
<time>2025-12-29T10:40:13.993Z</time>
</trkpt>
<trkpt lat="30.9281800" lon="35.2128600">
<ele>-87.399994</ele>
<time>2025-12-29T10:40:13.993Z</time>
</trkpt>
<trkpt lat="30.9281700" lon="35.2127400">
<ele>-87.389999</ele>
<time>2025-12-29T10:40:13.993Z</time>
</trkpt>
<trkpt lat="30.9281200" lon="35.2126400">
<ele>-88.409996</ele>
<time>2025-12-29T10:40:13.993Z</time>
</trkpt>
<trkpt lat="30.9281700" lon="35.2123000">
<ele>-89.059998</ele>
<time>2025-12-29T10:40:13.993Z</time>
</trkpt>
<trkpt lat="30.9281500" lon="35.2122000">
<ele>-89.320000</ele>
<time>2025-12-29T10:40:13.993Z</time>
</trkpt>
<trkpt lat="30.9281100" lon="35.2121000">
<ele>-89.610001</ele>
<time>2025-12-29T10:40:13.993Z</time>
</trkpt>
<trkpt lat="30.9278200" lon="35.2118600">
<ele>-89.440002</ele>
<time>2025-12-29T10:40:13.993Z</time>
</trkpt>
<trkpt lat="30.9277200" lon="35.2117300">
<ele>-88.459999</ele>
<time>2025-12-29T10:40:13.993Z</time>
</trkpt>
<trkpt lat="30.9276700" lon="35.2116000">
<ele>-87.669998</ele>
<time>2025-12-29T10:40:13.993Z</time>
</trkpt>
<trkpt lat="30.9276600" lon="35.2114200">
<ele>-86.739998</ele>
<time>2025-12-29T10:40:13.993Z</time>
</trkpt>
<trkpt lat="30.9276100" lon="35.2113000">
<ele>-85.559998</ele>
<time>2025-12-29T10:40:13.993Z</time>
</trkpt>
<trkpt lat="30.9276000" lon="35.2112200">
<ele>-84.750000</ele>
<time>2025-12-29T10:40:13.993Z</time>
</trkpt>
<trkpt lat="30.9275300" lon="35.2106000">
<ele>-77.800003</ele>
<time>2025-12-29T10:40:13.993Z</time>
</trkpt>
<trkpt lat="30.9274300" lon="35.2100600">
<ele>-76.010002</ele>
<time>2025-12-29T10:40:13.993Z</time>
</trkpt>
<trkpt lat="30.9274300" lon="35.2099400">
<ele>-76.500000</ele>
<time>2025-12-29T10:40:13.993Z</time>
</trkpt>
<trkpt lat="30.9273900" lon="35.2098900">
<ele>-78.120003</ele>
<time>2025-12-29T10:40:13.993Z</time>
</trkpt>
<trkpt lat="30.9272000" lon="35.2098900">
<ele>-83.790001</ele>
<time>2025-12-29T10:40:13.993Z</time>
</trkpt>
<trkpt lat="30.9272000" lon="35.2098900">
<ele>-83.790001</ele>
<time>2025-12-29T10:40:13.993Z</time>
</trkpt>
<trkpt lat="30.9271600" lon="35.2098800">
<ele>-85.029999</ele>
<time>2025-12-29T10:40:13.993Z</time>
</trkpt>
<trkpt lat="30.9271100" lon="35.2098700">
<ele>-86.580002</ele>
<time>2025-12-29T10:40:13.993Z</time>
</trkpt>
<trkpt lat="30.9270600" lon="35.2098400">
<ele>-88.579994</ele>
<time>2025-12-29T10:40:13.993Z</time>
</trkpt>
<trkpt lat="30.9270400" lon="35.2097900">
<ele>-90.190002</ele>
<time>2025-12-29T10:40:13.993Z</time>
</trkpt>
<trkpt lat="30.9270600" lon="35.2096000">
<ele>-94.180000</ele>
<time>2025-12-29T10:40:13.993Z</time>
</trkpt>
<trkpt lat="30.9270800" lon="35.2094900">
<ele>-96.400002</ele>
<time>2025-12-29T10:40:13.993Z</time>
</trkpt>
<trkpt lat="30.9271000" lon="35.2094100">
<ele>-97.449997</ele>
<time>2025-12-29T10:40:13.993Z</time>
</trkpt>
<trkpt lat="30.9271400" lon="35.2093700">
<ele>-96.839996</ele>
<time>2025-12-29T10:40:13.993Z</time>
</trkpt>
<trkpt lat="30.9272600" lon="35.2093200">
<ele>-93.889999</ele>
<time>2025-12-29T10:40:13.993Z</time>
</trkpt>
<trkpt lat="30.9273700" lon="35.2093000">
<ele>-89.500000</ele>
<time>2025-12-29T10:40:13.993Z</time>
</trkpt>
<trkpt lat="30.9274400" lon="35.2092200">
<ele>-88.419998</ele>
<time>2025-12-29T10:40:13.993Z</time>
</trkpt>
<trkpt lat="30.9276000" lon="35.2091000">
<ele>-85.320000</ele>
<time>2025-12-29T10:40:13.993Z</time>
</trkpt>
<trkpt lat="30.9277700" lon="35.2088800">
<ele>-85.500000</ele>
<time>2025-12-29T10:40:13.993Z</time>
</trkpt>
<trkpt lat="30.9278200" lon="35.2087500">
<ele>-86.750000</ele>
<time>2025-12-29T10:40:13.993Z</time>
</trkpt>
<trkpt lat="30.9278600" lon="35.2087000">
<ele>-86.410004</ele>
<time>2025-12-29T10:40:13.993Z</time>
</trkpt>
<trkpt lat="30.9283900" lon="35.2083600">
<ele>-73.570000</ele>
<time>2025-12-29T10:40:13.993Z</time>
</trkpt>
<trkpt lat="30.9285700" lon="35.2082000">
<ele>-75.459999</ele>
<time>2025-12-29T10:40:13.993Z</time>
</trkpt>
<trkpt lat="30.9286000" lon="35.2081500">
<ele>-76.589996</ele>
<time>2025-12-29T10:40:13.993Z</time>
</trkpt>
<trkpt lat="30.9286200" lon="35.2080300">
<ele>-79.899994</ele>
<time>2025-12-29T10:40:13.993Z</time>
</trkpt>
<trkpt lat="30.9286000" lon="35.2077000">
<ele>-84.980003</ele>
<time>2025-12-29T10:40:13.993Z</time>
</trkpt>
<trkpt lat="30.9285300" lon="35.2074200">
<ele>-87.699997</ele>
<time>2025-12-29T10:40:13.993Z</time>
</trkpt>
<trkpt lat="30.9284600" lon="35.2072300">
<ele>-91.830002</ele>
<time>2025-12-29T10:40:13.993Z</time>
</trkpt>
<trkpt lat="30.9285400" lon="35.2069000">
<ele>-92.979996</ele>
<time>2025-12-29T10:40:13.993Z</time>
</trkpt>
<trkpt lat="30.9285400" lon="35.2066100">
<ele>-96.450005</ele>
<time>2025-12-29T10:40:13.993Z</time>
</trkpt>
<trkpt lat="30.9285200" lon="35.2065500">
<ele>-98.019997</ele>
<time>2025-12-29T10:40:13.993Z</time>
</trkpt>
<trkpt lat="30.9284700" lon="35.2065300">
<ele>-99.239998</ele>
<time>2025-12-29T10:40:13.993Z</time>
</trkpt>
<trkpt lat="30.9284300" lon="35.2065600">
<ele>-99.310005</ele>
<time>2025-12-29T10:40:13.993Z</time>
</trkpt>
<trkpt lat="30.9283800" lon="35.2065800">
<ele>-99.770004</ele>
<time>2025-12-29T10:40:13.993Z</time>
</trkpt>
<trkpt lat="30.9283200" lon="35.2065700">
<ele>-100.919998</ele>
<time>2025-12-29T10:40:13.993Z</time>
</trkpt>
<trkpt lat="30.9281400" lon="35.2064800">
<ele>-104.680000</ele>
<time>2025-12-29T10:40:13.993Z</time>
</trkpt>
<trkpt lat="30.9280800" lon="35.2064200">
<ele>-106.279999</ele>
<time>2025-12-29T10:40:13.993Z</time>
</trkpt>
<trkpt lat="30.9280800" lon="35.2064200">
<ele>-106.279999</ele>
<time>2025-12-29T10:40:13.993Z</time>
</trkpt>
<trkpt lat="30.9280800" lon="35.2064200">
<ele>-106.279999</ele>
<time>2025-12-29T10:40:13.993Z</time>
</trkpt>
<trkpt lat="30.9280100" lon="35.2063200">
<ele>-107.659996</ele>
<time>2025-12-29T10:40:13.993Z</time>
</trkpt>
<trkpt lat="30.9279700" lon="35.2059400">
<ele>-107.690002</ele>
<time>2025-12-29T10:40:13.993Z</time>
</trkpt>
<trkpt lat="30.9279000" lon="35.2056100">
<ele>-107.300003</ele>
<time>2025-12-29T10:40:13.993Z</time>
</trkpt>
<trkpt lat="30.9278800" lon="35.2055500">
<ele>-107.479996</ele>
<time>2025-12-29T10:40:13.993Z</time>
</trkpt>
<trkpt lat="30.9278300" lon="35.2054900">
<ele>-107.730003</ele>
<time>2025-12-29T10:40:13.993Z</time>
</trkpt>
<trkpt lat="30.9277700" lon="35.2054500">
<ele>-108.330002</ele>
<time>2025-12-29T10:40:13.993Z</time>
</trkpt>
<trkpt lat="30.9276000" lon="35.2053600">
<ele>-110.220001</ele>
<time>2025-12-29T10:40:13.993Z</time>
</trkpt>
<trkpt lat="30.9274000" lon="35.2052300">
<ele>-112.440002</ele>
<time>2025-12-29T10:40:13.993Z</time>
</trkpt>
<trkpt lat="30.9273700" lon="35.2051700">
<ele>-112.339996</ele>
<time>2025-12-29T10:40:13.993Z</time>
</trkpt>
<trkpt lat="30.9273600" lon="35.2050500">
<ele>-111.779999</ele>
<time>2025-12-29T10:40:13.993Z</time>
</trkpt>
<trkpt lat="30.9273300" lon="35.2050100">
<ele>-111.889999</ele>
<time>2025-12-29T10:40:13.993Z</time>
</trkpt>
<trkpt lat="30.9272700" lon="35.2050000">
<ele>-112.479996</ele>
<time>2025-12-29T10:40:13.993Z</time>
</trkpt>
<trkpt lat="30.9272300" lon="35.2050500">
<ele>-113.099998</ele>
<time>2025-12-29T10:40:13.993Z</time>
</trkpt>
<trkpt lat="30.9272000" lon="35.2051000">
<ele>-113.570000</ele>
<time>2025-12-29T10:40:13.993Z</time>
</trkpt>
<trkpt lat="30.9271600" lon="35.2051200">
<ele>-114.010002</ele>
<time>2025-12-29T10:40:13.993Z</time>
</trkpt>
<trkpt lat="30.9271100" lon="35.2051300">
<ele>-114.489998</ele>
<time>2025-12-29T10:40:13.993Z</time>
</trkpt>
<trkpt lat="30.9270600" lon="35.2051100">
<ele>-114.919998</ele>
<time>2025-12-29T10:40:13.993Z</time>
</trkpt>
<trkpt lat="30.9269800" lon="35.2051800">
<ele>-115.699997</ele>
<time>2025-12-29T10:40:13.993Z</time>
</trkpt>
<trkpt lat="30.9269100" lon="35.2051600">
<ele>-116.120003</ele>
<time>2025-12-29T10:40:13.993Z</time>
</trkpt>
<trkpt lat="30.9268400" lon="35.2051400">
<ele>-116.380005</ele>
<time>2025-12-29T10:40:13.993Z</time>
</trkpt>
<trkpt lat="30.9268100" lon="35.2053700">
<ele>-115.830002</ele>
<time>2025-12-29T10:40:13.993Z</time>
</trkpt>
<trkpt lat="30.9266800" lon="35.2056300">
<ele>-113.260002</ele>
<time>2025-12-29T10:40:13.993Z</time>
</trkpt>
<trkpt lat="30.9266200" lon="35.2057900">
<ele>-111.870003</ele>
<time>2025-12-29T10:40:13.993Z</time>
</trkpt>
<trkpt lat="30.9267100" lon="35.2059400">
<ele>-112.219994</ele>
<time>2025-12-29T10:40:13.993Z</time>
</trkpt>
<trkpt lat="30.9267100" lon="35.2059400">
<ele>-112.219994</ele>
<time>2025-12-29T10:40:13.993Z</time>
</trkpt>
<trkpt lat="30.9271100" lon="35.2066500">
<ele>-117.190002</ele>
<time>2025-12-29T10:40:13.993Z</time>
</trkpt>
<trkpt lat="30.9272500" lon="35.2068800">
<ele>-116.110001</ele>
<time>2025-12-29T10:40:13.993Z</time>
</trkpt>
<trkpt lat="30.9274600" lon="35.2071000">
<ele>-114.750000</ele>
<time>2025-12-29T10:40:13.993Z</time>
</trkpt>
<trkpt lat="30.9274300" lon="35.2073700">
<ele>-113.959999</ele>
<time>2025-12-29T10:40:13.993Z</time>
</trkpt>
<trkpt lat="30.9273500" lon="35.2073700">
<ele>-115.129997</ele>
<time>2025-12-29T10:40:13.993Z</time>
</trkpt>
<trkpt lat="30.9273300" lon="35.2074400">
<ele>-115.229996</ele>
<time>2025-12-29T10:40:13.993Z</time>
</trkpt>
<trkpt lat="30.9273300" lon="35.2075500">
<ele>-114.739998</ele>
<time>2025-12-29T10:40:13.993Z</time>
</trkpt>
<trkpt lat="30.9274500" lon="35.2079000">
<ele>-110.259995</ele>
<time>2025-12-29T10:40:13.993Z</time>
</trkpt>
<trkpt lat="30.9273500" lon="35.2082100">
<ele>-111.970001</ele>
<time>2025-12-29T10:40:13.993Z</time>
</trkpt>
<trkpt lat="30.9271300" lon="35.2085300">
<ele>-113.020004</ele>
<time>2025-12-29T10:40:13.993Z</time>
</trkpt>
<trkpt lat="30.9265100" lon="35.2090800">
<ele>-113.330002</ele>
<time>2025-12-29T10:40:13.993Z</time>
</trkpt>
<trkpt lat="30.9265100" lon="35.2091300">
<ele>-112.710007</ele>
<time>2025-12-29T10:40:13.993Z</time>
</trkpt>
<trkpt lat="30.9264400" lon="35.2092400">
<ele>-113.330002</ele>
<time>2025-12-29T10:40:13.993Z</time>
</trkpt>
<trkpt lat="30.9264100" lon="35.2094400">
<ele>-114.380005</ele>
<time>2025-12-29T10:40:13.993Z</time>
</trkpt>
<trkpt lat="30.9263200" lon="35.2095100">
<ele>-116.789993</ele>
<time>2025-12-29T10:40:13.993Z</time>
</trkpt>
<trkpt lat="30.9263200" lon="35.2095500">
<ele>-116.830002</ele>
<time>2025-12-29T10:40:13.993Z</time>
</trkpt>
<trkpt lat="30.9262800" lon="35.2095800">
<ele>-118.210007</ele>
<time>2025-12-29T10:40:13.993Z</time>
</trkpt>
<trkpt lat="30.9261600" lon="35.2096600">
<ele>-123.189995</ele>
<time>2025-12-29T10:40:13.993Z</time>
</trkpt>
<trkpt lat="30.9261500" lon="35.2097100">
<ele>-124.170006</ele>
<time>2025-12-29T10:40:13.993Z</time>
</trkpt>
<trkpt lat="30.9261500" lon="35.2097100">
<ele>-124.170006</ele>
<time>2025-12-29T10:40:13.993Z</time>
</trkpt>
<trkpt lat="30.9261500" lon="35.2097100">
<ele>-124.170006</ele>
<time>2025-12-29T10:40:13.993Z</time>
</trkpt>
<trkpt lat="30.9260000" lon="35.2098900">
<ele>-123.720001</ele>
<time>2025-12-29T10:40:13.993Z</time>
</trkpt>
<trkpt lat="30.9259500" lon="35.2099900">
<ele>-123.230003</ele>
<time>2025-12-29T10:40:13.993Z</time>
</trkpt>
<trkpt lat="30.9259100" lon="35.2100300">
<ele>-122.430000</ele>
<time>2025-12-29T10:40:13.993Z</time>
</trkpt>
<trkpt lat="30.9258300" lon="35.2100100">
<ele>-121.930000</ele>
<time>2025-12-29T10:40:13.993Z</time>
</trkpt>
<trkpt lat="30.9257200" lon="35.2100400">
<ele>-121.829994</ele>
<time>2025-12-29T10:40:13.993Z</time>
</trkpt>
<trkpt lat="30.9257000" lon="35.2100500">
<ele>-121.809998</ele>
<time>2025-12-29T10:40:13.993Z</time>
</trkpt>
<trkpt lat="30.9256700" lon="35.2101000">
<ele>-121.700005</ele>
<time>2025-12-29T10:40:13.993Z</time>
</trkpt>
<trkpt lat="30.9256000" lon="35.2101100">
<ele>-121.870003</ele>
<time>2025-12-29T10:40:13.993Z</time>
</trkpt>
<trkpt lat="30.9255300" lon="35.2101400">
<ele>-122.230003</ele>
<time>2025-12-29T10:40:13.993Z</time>
</trkpt>
<trkpt lat="30.9254900" lon="35.2102000">
<ele>-122.749992</ele>
<time>2025-12-29T10:40:13.993Z</time>
</trkpt>
<trkpt lat="30.9254600" lon="35.2102100">
<ele>-123.120003</ele>
<time>2025-12-29T10:40:13.993Z</time>
</trkpt>
<trkpt lat="30.9253900" lon="35.2101900">
<ele>-123.819992</ele>
<time>2025-12-29T10:40:13.993Z</time>
</trkpt>
<trkpt lat="30.9252800" lon="35.2101300">
<ele>-124.379997</ele>
<time>2025-12-29T10:40:13.993Z</time>
</trkpt>
<trkpt lat="30.9252900" lon="35.2101400">
<ele>-124.399994</ele>
<time>2025-12-29T10:40:13.993Z</time>
</trkpt>
<trkpt lat="30.9252900" lon="35.2101400">
<ele>-124.399994</ele>
<time>2025-12-29T10:40:13.993Z</time>
</trkpt>
<trkpt lat="30.9252900" lon="35.2101300">
<ele>-124.300003</ele>
<time>2025-12-29T10:40:13.993Z</time>
</trkpt>
<trkpt lat="30.9253900" lon="35.2101900">
<ele>-123.819992</ele>
<time>2025-12-29T10:40:13.993Z</time>
</trkpt>
<trkpt lat="30.9254600" lon="35.2102000">
<ele>-123.090004</ele>
<time>2025-12-29T10:40:13.993Z</time>
</trkpt>
<trkpt lat="30.9254900" lon="35.2102000">
<ele>-122.749992</ele>
<time>2025-12-29T10:40:13.993Z</time>
</trkpt>
<trkpt lat="30.9255300" lon="35.2101400">
<ele>-122.230003</ele>
<time>2025-12-29T10:40:13.993Z</time>
</trkpt>
<trkpt lat="30.9256000" lon="35.2101100">
<ele>-121.870003</ele>
<time>2025-12-29T10:40:13.993Z</time>
</trkpt>
<trkpt lat="30.9256700" lon="35.2101000">
<ele>-121.700005</ele>
<time>2025-12-29T10:40:13.993Z</time>
</trkpt>
<trkpt lat="30.9257000" lon="35.2100600">
<ele>-121.779999</ele>
<time>2025-12-29T10:40:13.993Z</time>
</trkpt>
<trkpt lat="30.9257200" lon="35.2100400">
<ele>-121.829994</ele>
<time>2025-12-29T10:40:13.993Z</time>
</trkpt>
<trkpt lat="30.9258300" lon="35.2100100">
<ele>-121.930000</ele>
<time>2025-12-29T10:40:13.993Z</time>
</trkpt>
<trkpt lat="30.9260600" lon="35.2096700">
<ele>-124.140007</ele>
<time>2025-12-29T10:40:13.993Z</time>
</trkpt>
<trkpt lat="30.9260600" lon="35.2096700">
<ele>-124.140007</ele>
<time>2025-12-29T10:40:13.993Z</time>
</trkpt>
<trkpt lat="30.9263600" lon="35.2092300">
<ele>-114.390007</ele>
<time>2025-12-29T10:40:13.993Z</time>
</trkpt>
<trkpt lat="30.9265100" lon="35.2090800">
<ele>-113.330002</ele>
<time>2025-12-29T10:40:13.993Z</time>
</trkpt>
<trkpt lat="30.9271300" lon="35.2085300">
<ele>-113.020004</ele>
<time>2025-12-29T10:40:13.993Z</time>
</trkpt>
<trkpt lat="30.9273500" lon="35.2082100">
<ele>-111.970001</ele>
<time>2025-12-29T10:40:13.993Z</time>
</trkpt>
<trkpt lat="30.9274500" lon="35.2079000">
<ele>-110.259995</ele>
<time>2025-12-29T10:40:13.993Z</time>
</trkpt>
<trkpt lat="30.9273300" lon="35.2075500">
<ele>-114.739998</ele>
<time>2025-12-29T10:40:13.993Z</time>
</trkpt>
<trkpt lat="30.9273300" lon="35.2074400">
<ele>-115.229996</ele>
<time>2025-12-29T10:40:13.993Z</time>
</trkpt>
<trkpt lat="30.9273500" lon="35.2073700">
<ele>-115.129997</ele>
<time>2025-12-29T10:40:13.993Z</time>
</trkpt>
<trkpt lat="30.9275200" lon="35.2073700">
<ele>-112.430000</ele>
<time>2025-12-29T10:40:13.993Z</time>
</trkpt>
<trkpt lat="30.9275500" lon="35.2069400">
<ele>-113.739998</ele>
<time>2025-12-29T10:40:13.993Z</time>
</trkpt>
<trkpt lat="30.9275100" lon="35.2067000">
<ele>-114.779999</ele>
<time>2025-12-29T10:40:13.993Z</time>
</trkpt>
<trkpt lat="30.9272400" lon="35.2062200">
<ele>-112.989998</ele>
<time>2025-12-29T10:40:13.993Z</time>
</trkpt>
<trkpt lat="30.9270900" lon="35.2060400">
<ele>-112.650002</ele>
<time>2025-12-29T10:40:13.993Z</time>
</trkpt>
<trkpt lat="30.9269700" lon="35.2057300">
<ele>-113.680000</ele>
<time>2025-12-29T10:40:13.993Z</time>
</trkpt>
<trkpt lat="30.9269300" lon="35.2053500">
<ele>-115.760002</ele>
<time>2025-12-29T10:40:13.993Z</time>
</trkpt>
<trkpt lat="30.9269300" lon="35.2053500">
<ele>-115.760002</ele>
<time>2025-12-29T10:40:13.993Z</time>
</trkpt>
<trkpt lat="30.9269100" lon="35.2051600">
<ele>-116.120003</ele>
<time>2025-12-29T10:40:13.993Z</time>
</trkpt>
<trkpt lat="30.9269800" lon="35.2051800">
<ele>-115.699997</ele>
<time>2025-12-29T10:40:13.993Z</time>
</trkpt>
<trkpt lat="30.9270600" lon="35.2051100">
<ele>-114.919998</ele>
<time>2025-12-29T10:40:13.993Z</time>
</trkpt>
<trkpt lat="30.9271100" lon="35.2051300">
<ele>-114.489998</ele>
<time>2025-12-29T10:40:13.993Z</time>
</trkpt>
<trkpt lat="30.9271600" lon="35.2051200">
<ele>-114.010002</ele>
<time>2025-12-29T10:40:13.993Z</time>
</trkpt>
<trkpt lat="30.9272000" lon="35.2051000">
<ele>-113.570000</ele>
<time>2025-12-29T10:40:13.993Z</time>
</trkpt>
<trkpt lat="30.9272300" lon="35.2050500">
<ele>-113.099998</ele>
<time>2025-12-29T10:40:13.993Z</time>
</trkpt>
<trkpt lat="30.9272700" lon="35.2050000">
<ele>-112.479996</ele>
<time>2025-12-29T10:40:13.993Z</time>
</trkpt>
<trkpt lat="30.9273300" lon="35.2050100">
<ele>-111.889999</ele>
<time>2025-12-29T10:40:13.993Z</time>
</trkpt>
<trkpt lat="30.9273600" lon="35.2050500">
<ele>-111.779999</ele>
<time>2025-12-29T10:40:13.993Z</time>
</trkpt>
<trkpt lat="30.9273700" lon="35.2051700">
<ele>-112.339996</ele>
<time>2025-12-29T10:40:13.993Z</time>
</trkpt>
<trkpt lat="30.9274000" lon="35.2052300">
<ele>-112.440002</ele>
<time>2025-12-29T10:40:13.993Z</time>
</trkpt>
<trkpt lat="30.9276000" lon="35.2053600">
<ele>-110.220001</ele>
<time>2025-12-29T10:40:13.993Z</time>
</trkpt>
<trkpt lat="30.9277700" lon="35.2054500">
<ele>-108.330002</ele>
<time>2025-12-29T10:40:13.993Z</time>
</trkpt>
<trkpt lat="30.9278300" lon="35.2054900">
<ele>-107.730003</ele>
<time>2025-12-29T10:40:13.993Z</time>
</trkpt>
<trkpt lat="30.9278800" lon="35.2055500">
<ele>-107.479996</ele>
<time>2025-12-29T10:40:13.993Z</time>
</trkpt>
<trkpt lat="30.9279000" lon="35.2056100">
<ele>-107.300003</ele>
<time>2025-12-29T10:40:13.993Z</time>
</trkpt>
<trkpt lat="30.9279700" lon="35.2059400">
<ele>-107.690002</ele>
<time>2025-12-29T10:40:13.993Z</time>
</trkpt>
<trkpt lat="30.9280100" lon="35.2063200">
<ele>-107.659996</ele>
<time>2025-12-29T10:40:13.993Z</time>
</trkpt>
<trkpt lat="30.9280700" lon="35.2064100">
<ele>-106.540001</ele>
<time>2025-12-29T10:40:13.993Z</time>
</trkpt>
<trkpt lat="30.9281400" lon="35.2064800">
<ele>-104.680000</ele>
<time>2025-12-29T10:40:13.993Z</time>
</trkpt>
<trkpt lat="30.9283200" lon="35.2065700">
<ele>-100.919998</ele>
<time>2025-12-29T10:40:13.993Z</time>
</trkpt>
<trkpt lat="30.9283700" lon="35.2065800">
<ele>-99.940002</ele>
<time>2025-12-29T10:40:13.993Z</time>
</trkpt>
<trkpt lat="30.9284300" lon="35.2065600">
<ele>-99.310005</ele>
<time>2025-12-29T10:40:13.993Z</time>
</trkpt>
<trkpt lat="30.9284700" lon="35.2065300">
<ele>-99.239998</ele>
<time>2025-12-29T10:40:13.993Z</time>
</trkpt>
<trkpt lat="30.9285200" lon="35.2065500">
<ele>-98.019997</ele>
<time>2025-12-29T10:40:13.993Z</time>
</trkpt>
<trkpt lat="30.9285400" lon="35.2066100">
<ele>-96.450005</ele>
<time>2025-12-29T10:40:13.993Z</time>
</trkpt>
<trkpt lat="30.9285400" lon="35.2069000">
<ele>-92.979996</ele>
<time>2025-12-29T10:40:13.993Z</time>
</trkpt>
<trkpt lat="30.9284600" lon="35.2072300">
<ele>-91.830002</ele>
<time>2025-12-29T10:40:13.993Z</time>
</trkpt>
<trkpt lat="30.9285300" lon="35.2074200">
<ele>-87.699997</ele>
<time>2025-12-29T10:40:13.993Z</time>
</trkpt>
<trkpt lat="30.9286000" lon="35.2077000">
<ele>-84.980003</ele>
<time>2025-12-29T10:40:13.993Z</time>
</trkpt>
<trkpt lat="30.9286200" lon="35.2080300">
<ele>-79.899994</ele>
<time>2025-12-29T10:40:13.993Z</time>
</trkpt>
<trkpt lat="30.9286000" lon="35.2081500">
<ele>-76.589996</ele>
<time>2025-12-29T10:40:13.993Z</time>
</trkpt>
<trkpt lat="30.9285700" lon="35.2082000">
<ele>-75.459999</ele>
<time>2025-12-29T10:40:13.993Z</time>
</trkpt>
<trkpt lat="30.9283900" lon="35.2083600">
<ele>-73.570000</ele>
<time>2025-12-29T10:40:13.993Z</time>
</trkpt>
<trkpt lat="30.9278600" lon="35.2087000">
<ele>-86.410004</ele>
<time>2025-12-29T10:40:13.993Z</time>
</trkpt>
<trkpt lat="30.9278200" lon="35.2087500">
<ele>-86.750000</ele>
<time>2025-12-29T10:40:13.993Z</time>
</trkpt>
<trkpt lat="30.9277700" lon="35.2088800">
<ele>-85.500000</ele>
<time>2025-12-29T10:40:13.993Z</time>
</trkpt>
<trkpt lat="30.9276000" lon="35.2091000">
<ele>-85.320000</ele>
<time>2025-12-29T10:40:13.993Z</time>
</trkpt>
<trkpt lat="30.9274400" lon="35.2092200">
<ele>-88.419998</ele>
<time>2025-12-29T10:40:13.993Z</time>
</trkpt>
<trkpt lat="30.9273700" lon="35.2093000">
<ele>-89.500000</ele>
<time>2025-12-29T10:40:13.993Z</time>
</trkpt>
<trkpt lat="30.9272600" lon="35.2093200">
<ele>-93.889999</ele>
<time>2025-12-29T10:40:13.993Z</time>
</trkpt>
<trkpt lat="30.9271400" lon="35.2093700">
<ele>-96.839996</ele>
<time>2025-12-29T10:40:13.993Z</time>
</trkpt>
<trkpt lat="30.9271000" lon="35.2094100">
<ele>-97.449997</ele>
<time>2025-12-29T10:40:13.993Z</time>
</trkpt>
<trkpt lat="30.9270600" lon="35.2096000">
<ele>-94.180000</ele>
<time>2025-12-29T10:40:13.993Z</time>
</trkpt>
<trkpt lat="30.9270400" lon="35.2097900">
<ele>-90.190002</ele>
<time>2025-12-29T10:40:13.993Z</time>
</trkpt>
<trkpt lat="30.9270600" lon="35.2098400">
<ele>-88.579994</ele>
<time>2025-12-29T10:40:13.993Z</time>
</trkpt>
<trkpt lat="30.9271100" lon="35.2098700">
<ele>-86.580002</ele>
<time>2025-12-29T10:40:13.993Z</time>
</trkpt>
<trkpt lat="30.9271500" lon="35.2098800">
<ele>-85.310005</ele>
<time>2025-12-29T10:40:13.993Z</time>
</trkpt>
<trkpt lat="30.9273900" lon="35.2098900">
<ele>-78.120003</ele>
<time>2025-12-29T10:40:13.993Z</time>
</trkpt>
<trkpt lat="30.9274300" lon="35.2099400">
<ele>-76.500000</ele>
<time>2025-12-29T10:40:13.993Z</time>
</trkpt>
<trkpt lat="30.9274300" lon="35.2100600">
<ele>-76.010002</ele>
<time>2025-12-29T10:40:13.993Z</time>
</trkpt>
<trkpt lat="30.9275300" lon="35.2106000">
<ele>-77.800003</ele>
<time>2025-12-29T10:40:13.993Z</time>
</trkpt>
<trkpt lat="30.9276000" lon="35.2112200">
<ele>-84.750000</ele>
<time>2025-12-29T10:40:13.993Z</time>
</trkpt>
<trkpt lat="30.9276100" lon="35.2113000">
<ele>-85.559998</ele>
<time>2025-12-29T10:40:13.993Z</time>
</trkpt>
<trkpt lat="30.9276500" lon="35.2114200">
<ele>-86.700005</ele>
<time>2025-12-29T10:40:13.993Z</time>
</trkpt>
<trkpt lat="30.9276700" lon="35.2116000">
<ele>-87.669998</ele>
<time>2025-12-29T10:40:13.993Z</time>
</trkpt>
<trkpt lat="30.9277200" lon="35.2117300">
<ele>-88.459999</ele>
<time>2025-12-29T10:40:13.993Z</time>
</trkpt>
<trkpt lat="30.9278200" lon="35.2118600">
<ele>-89.440002</ele>
<time>2025-12-29T10:40:13.993Z</time>
</trkpt>
<trkpt lat="30.9281100" lon="35.2121000">
<ele>-89.610001</ele>
<time>2025-12-29T10:40:13.993Z</time>
</trkpt>
<trkpt lat="30.9281500" lon="35.2122000">
<ele>-89.320000</ele>
<time>2025-12-29T10:40:13.993Z</time>
</trkpt>
<trkpt lat="30.9281700" lon="35.2123000">
<ele>-89.059998</ele>
<time>2025-12-29T10:40:13.993Z</time>
</trkpt>
<trkpt lat="30.9281200" lon="35.2126400">
<ele>-88.409996</ele>
<time>2025-12-29T10:40:13.993Z</time>
</trkpt>
<trkpt lat="30.9281700" lon="35.2127400">
<ele>-87.389999</ele>
<time>2025-12-29T10:40:13.993Z</time>
</trkpt>
<trkpt lat="30.9281800" lon="35.2128600">
<ele>-87.399994</ele>
<time>2025-12-29T10:40:13.993Z</time>
</trkpt>
<trkpt lat="30.9282500" lon="35.2131800">
<ele>-88.630005</ele>
<time>2025-12-29T10:40:13.993Z</time>
</trkpt>
<trkpt lat="30.9283600" lon="35.2134500">
<ele>-89.479996</ele>
<time>2025-12-29T10:40:13.993Z</time>
</trkpt>
<trkpt lat="30.9284100" lon="35.2135300">
<ele>-89.790001</ele>
<time>2025-12-29T10:40:13.993Z</time>
</trkpt>
<trkpt lat="30.9284600" lon="35.2135800">
<ele>-89.939995</ele>
<time>2025-12-29T10:40:13.993Z</time>
</trkpt>
<trkpt lat="30.9285800" lon="35.2136300">
<ele>-90.150002</ele>
<time>2025-12-29T10:40:13.993Z</time>
</trkpt>
<trkpt lat="30.9286600" lon="35.2137100">
<ele>-90.760002</ele>
<time>2025-12-29T10:40:13.993Z</time>
</trkpt>
<trkpt lat="30.9287000" lon="35.2137700">
<ele>-91.099998</ele>
<time>2025-12-29T10:40:13.993Z</time>
</trkpt>
<trkpt lat="30.9287300" lon="35.2139100">
<ele>-91.580002</ele>
<time>2025-12-29T10:40:13.993Z</time>
</trkpt>
<trkpt lat="30.9287600" lon="35.2139700">
<ele>-91.440002</ele>
<time>2025-12-29T10:40:13.993Z</time>
</trkpt>
<trkpt lat="30.9288400" lon="35.2140600">
<ele>-90.780006</ele>
<time>2025-12-29T10:40:13.993Z</time>
</trkpt>
<trkpt lat="30.9289600" lon="35.2141100">
<ele>-89.440002</ele>
<time>2025-12-29T10:40:13.993Z</time>
</trkpt>
<trkpt lat="30.9291100" lon="35.2141100">
<ele>-87.820000</ele>
<time>2025-12-29T10:40:13.993Z</time>
</trkpt>
<trkpt lat="30.9292200" lon="35.2140900">
<ele>-86.929993</ele>
<time>2025-12-29T10:40:13.993Z</time>
</trkpt>
<trkpt lat="30.9292800" lon="35.2141200">
<ele>-86.550003</ele>
<time>2025-12-29T10:40:13.993Z</time>
</trkpt>
<trkpt lat="30.9294200" lon="35.2144700">
<ele>-88.269997</ele>
<time>2025-12-29T10:40:13.993Z</time>
</trkpt>
<trkpt lat="30.9295500" lon="35.2146600">
<ele>-90.879997</ele>
<time>2025-12-29T10:40:13.993Z</time>
</trkpt>
<trkpt lat="30.9297400" lon="35.2148300">
<ele>-92.059998</ele>
<time>2025-12-29T10:40:13.993Z</time>
</trkpt>
<trkpt lat="30.9298100" lon="35.2150600">
<ele>-92.959999</ele>
<time>2025-12-29T10:40:13.993Z</time>
</trkpt>
<trkpt lat="30.9298800" lon="35.2152000">
<ele>-94.730003</ele>
<time>2025-12-29T10:40:13.993Z</time>
</trkpt>
<trkpt lat="30.9299500" lon="35.2153000">
<ele>-95.909996</ele>
<time>2025-12-29T10:40:13.993Z</time>
</trkpt>
<trkpt lat="30.9300700" lon="35.2154200">
<ele>-96.130005</ele>
<time>2025-12-29T10:40:13.993Z</time>
</trkpt>
<trkpt lat="30.9301200" lon="35.2155000">
<ele>-96.019997</ele>
<time>2025-12-29T10:40:13.993Z</time>
</trkpt>
<trkpt lat="30.9302600" lon="35.2156800">
<ele>-95.580002</ele>
<time>2025-12-29T10:40:13.993Z</time>
</trkpt>
<trkpt lat="30.9303300" lon="35.2158400">
<ele>-96.400002</ele>
<time>2025-12-29T10:40:13.993Z</time>
</trkpt>
<trkpt lat="30.9303700" lon="35.2160000">
<ele>-97.259995</ele>
<time>2025-12-29T10:40:13.993Z</time>
</trkpt>
<trkpt lat="30.9304000" lon="35.2160800">
<ele>-97.770004</ele>
<time>2025-12-29T10:40:13.993Z</time>
</trkpt>
<trkpt lat="30.9305200" lon="35.2162700">
<ele>-99.320000</ele>
<time>2025-12-29T10:40:13.993Z</time>
</trkpt>
<trkpt lat="30.9306400" lon="35.2163900">
<ele>-100.009995</ele>
<time>2025-12-29T10:40:13.993Z</time>
</trkpt>
<trkpt lat="30.9307600" lon="35.2164500">
<ele>-100.440002</ele>
<time>2025-12-29T10:40:13.993Z</time>
</trkpt>
<trkpt lat="30.9308800" lon="35.2164500">
<ele>-100.440002</ele>
<time>2025-12-29T10:40:13.993Z</time>
</trkpt>
<trkpt lat="30.9310500" lon="35.2164000">
<ele>-100.080002</ele>
<time>2025-12-29T10:40:13.993Z</time>
</trkpt>
<trkpt lat="30.9311100" lon="35.2164000">
<ele>-100.080002</ele>
<time>2025-12-29T10:40:13.993Z</time>
</trkpt>
<trkpt lat="30.9311600" lon="35.2164100">
<ele>-99.809998</ele>
<time>2025-12-29T10:40:13.993Z</time>
</trkpt>
<trkpt lat="30.9313400" lon="35.2164900">
<ele>-99.379997</ele>
<time>2025-12-29T10:40:13.993Z</time>
</trkpt>
<trkpt lat="30.9314400" lon="35.2165600">
<ele>-100.290001</ele>
<time>2025-12-29T10:40:13.993Z</time>
</trkpt>
<trkpt lat="30.9315100" lon="35.2166500">
<ele>-101.719994</ele>
<time>2025-12-29T10:40:13.993Z</time>
</trkpt>
<trkpt lat="30.9315800" lon="35.2169000">
<ele>-102.849998</ele>
<time>2025-12-29T10:40:13.993Z</time>
</trkpt>
<trkpt lat="30.9316300" lon="35.2169500">
<ele>-102.490005</ele>
<time>2025-12-29T10:40:13.993Z</time>
</trkpt>
<trkpt lat="30.9317500" lon="35.2169500">
<ele>-102.410004</ele>
<time>2025-12-29T10:40:13.993Z</time>
</trkpt>
<trkpt lat="30.9320300" lon="35.2167800">
<ele>-103.309998</ele>
<time>2025-12-29T10:40:13.993Z</time>
</trkpt>
<trkpt lat="30.9322000" lon="35.2167300">
<ele>-103.919998</ele>
<time>2025-12-29T10:40:13.993Z</time>
</trkpt>
<trkpt lat="30.9322800" lon="35.2167300">
<ele>-102.750000</ele>
<time>2025-12-29T10:40:13.993Z</time>
</trkpt>
<trkpt lat="30.9326000" lon="35.2168100">
<ele>-97.289993</ele>
<time>2025-12-29T10:40:13.993Z</time>
</trkpt>
<trkpt lat="30.9326500" lon="35.2168400">
<ele>-97.050003</ele>
<time>2025-12-29T10:40:13.993Z</time>
</trkpt>
<trkpt lat="30.9326900" lon="35.2168900">
<ele>-97.050003</ele>
<time>2025-12-29T10:40:13.993Z</time>
</trkpt>
<trkpt lat="30.9327100" lon="35.2169700">
<ele>-97.520004</ele>
<time>2025-12-29T10:40:13.993Z</time>
</trkpt>
<trkpt lat="30.9326900" lon="35.2171700">
<ele>-99.750008</ele>
<time>2025-12-29T10:40:13.993Z</time>
</trkpt>
<trkpt lat="30.9327100" lon="35.2172300">
<ele>-100.329994</ele>
<time>2025-12-29T10:40:13.993Z</time>
</trkpt>
<trkpt lat="30.9328800" lon="35.2174400">
<ele>-102.589996</ele>
<time>2025-12-29T10:40:13.993Z</time>
</trkpt>
<trkpt lat="30.9330900" lon="35.2177900">
<ele>-103.040001</ele>
<time>2025-12-29T10:40:13.993Z</time>
</trkpt>
<trkpt lat="30.9331400" lon="35.2178800">
<ele>-103.369995</ele>
<time>2025-12-29T10:40:13.993Z</time>
</trkpt>
<trkpt lat="30.9331700" lon="35.2180600">
<ele>-104.050003</ele>
<time>2025-12-29T10:40:13.993Z</time>
</trkpt>
<trkpt lat="30.9332400" lon="35.2182200">
<ele>-105.779999</ele>
<time>2025-12-29T10:40:13.993Z</time>
</trkpt>
<trkpt lat="30.9334000" lon="35.2183900">
<ele>-107.099998</ele>
<time>2025-12-29T10:40:13.993Z</time>
</trkpt>
<trkpt lat="30.9337700" lon="35.2186900">
<ele>-109.500008</ele>
<time>2025-12-29T10:40:13.993Z</time>
</trkpt>
<trkpt lat="30.9338100" lon="35.2187500">
<ele>-110.139999</ele>
<time>2025-12-29T10:40:13.993Z</time>
</trkpt>
<trkpt lat="30.9338700" lon="35.2189200">
<ele>-111.479996</ele>
<time>2025-12-29T10:40:13.993Z</time>
</trkpt>
<trkpt lat="30.9339400" lon="35.2190100">
<ele>-111.680000</ele>
<time>2025-12-29T10:40:13.993Z</time>
</trkpt>
<trkpt lat="30.9341000" lon="35.2191600">
<ele>-110.910004</ele>
<time>2025-12-29T10:40:13.993Z</time>
</trkpt>
<trkpt lat="30.9343300" lon="35.2192800">
<ele>-110.730003</ele>
<time>2025-12-29T10:40:13.993Z</time>
</trkpt>
<trkpt lat="30.9344300" lon="35.2196100">
<ele>-110.859993</ele>
<time>2025-12-29T10:40:13.993Z</time>
</trkpt>
<trkpt lat="30.9346600" lon="35.2200100">
<ele>-113.589996</ele>
<time>2025-12-29T10:40:13.993Z</time>
</trkpt>
<trkpt lat="30.9347000" lon="35.2200400">
<ele>-113.639999</ele>
<time>2025-12-29T10:40:13.993Z</time>
</trkpt>
<trkpt lat="30.9347800" lon="35.2200500">
<ele>-113.989998</ele>
<time>2025-12-29T10:40:13.993Z</time>
</trkpt>
<trkpt lat="30.9348400" lon="35.2200500">
<ele>-114.459999</ele>
<time>2025-12-29T10:40:13.993Z</time>
</trkpt>
<trkpt lat="30.9349100" lon="35.2200100">
<ele>-114.479996</ele>
<time>2025-12-29T10:40:13.993Z</time>
</trkpt>
<trkpt lat="30.9350600" lon="35.2198000">
<ele>-112.590004</ele>
<time>2025-12-29T10:40:13.993Z</time>
</trkpt>
<trkpt lat="30.9351700" lon="35.2195300">
<ele>-111.989998</ele>
<time>2025-12-29T10:40:13.993Z</time>
</trkpt>
<trkpt lat="30.9353400" lon="35.2192500">
<ele>-113.439995</ele>
<time>2025-12-29T10:40:13.993Z</time>
</trkpt>
<trkpt lat="30.9354900" lon="35.2191100">
<ele>-115.510002</ele>
<time>2025-12-29T10:40:13.993Z</time>
</trkpt>
<trkpt lat="30.9356000" lon="35.2190500">
<ele>-117.190002</ele>
<time>2025-12-29T10:40:13.993Z</time>
</trkpt>
<trkpt lat="30.9356800" lon="35.2190500">
<ele>-117.809998</ele>
<time>2025-12-29T10:40:13.993Z</time>
</trkpt>
<trkpt lat="30.9358800" lon="35.2191600">
<ele>-118.980003</ele>
<time>2025-12-29T10:40:13.993Z</time>
</trkpt>
<trkpt lat="30.9359700" lon="35.2191900">
<ele>-119.040001</ele>
<time>2025-12-29T10:40:13.993Z</time>
</trkpt>
<trkpt lat="30.9361600" lon="35.2192100">
<ele>-118.729996</ele>
<time>2025-12-29T10:40:13.993Z</time>
</trkpt>
<trkpt lat="30.9364100" lon="35.2192000">
<ele>-117.120003</ele>
<time>2025-12-29T10:40:13.993Z</time>
</trkpt>
<trkpt lat="30.9364800" lon="35.2192200">
<ele>-116.530006</ele>
<time>2025-12-29T10:40:13.993Z</time>
</trkpt>
<trkpt lat="30.9366800" lon="35.2193600">
<ele>-115.089996</ele>
<time>2025-12-29T10:40:13.993Z</time>
</trkpt>
<trkpt lat="30.9368100" lon="35.2194200">
<ele>-112.680000</ele>
<time>2025-12-29T10:40:13.993Z</time>
</trkpt>
<trkpt lat="30.9369000" lon="35.2194300">
<ele>-110.809998</ele>
<time>2025-12-29T10:40:13.993Z</time>
</trkpt>
<trkpt lat="30.9370900" lon="35.2193800">
<ele>-109.580002</ele>
<time>2025-12-29T10:40:13.993Z</time>
</trkpt>
<trkpt lat="30.9373900" lon="35.2193600">
<ele>-113.289993</ele>
<time>2025-12-29T10:40:13.993Z</time>
</trkpt>
<trkpt lat="30.9377700" lon="35.2194000">
<ele>-118.619995</ele>
<time>2025-12-29T10:40:13.993Z</time>
</trkpt>
<trkpt lat="30.9380100" lon="35.2194700">
<ele>-112.160004</ele>
<time>2025-12-29T10:40:13.993Z</time>
</trkpt>
<trkpt lat="30.9381800" lon="35.2194500">
<ele>-109.150002</ele>
<time>2025-12-29T10:40:13.993Z</time>
</trkpt>
<trkpt lat="30.9383100" lon="35.2193600">
<ele>-108.500000</ele>
<time>2025-12-29T10:40:13.993Z</time>
</trkpt>
<trkpt lat="30.9383600" lon="35.2192900">
<ele>-108.650002</ele>
<time>2025-12-29T10:40:13.993Z</time>
</trkpt>
<trkpt lat="30.9384100" lon="35.2191400">
<ele>-109.449997</ele>
<time>2025-12-29T10:40:13.993Z</time>
</trkpt>
<trkpt lat="30.9384700" lon="35.2190400">
<ele>-108.950005</ele>
<time>2025-12-29T10:40:13.993Z</time>
</trkpt>
<trkpt lat="30.9386000" lon="35.2188700">
<ele>-108.950005</ele>
<time>2025-12-29T10:40:13.993Z</time>
</trkpt>
<trkpt lat="30.9386700" lon="35.2188100">
<ele>-107.400002</ele>
<time>2025-12-29T10:40:13.993Z</time>
</trkpt>
<trkpt lat="30.9387600" lon="35.2187900">
<ele>-105.839996</ele>
<time>2025-12-29T10:40:13.993Z</time>
</trkpt>
<trkpt lat="30.9389100" lon="35.2188000">
<ele>-103.410004</ele>
<time>2025-12-29T10:40:13.993Z</time>
</trkpt>
<trkpt lat="30.9391400" lon="35.2187400">
<ele>-101.910004</ele>
<time>2025-12-29T10:40:13.993Z</time>
</trkpt>
<trkpt lat="30.9394900" lon="35.2187200">
<ele>-96.860001</ele>
<time>2025-12-29T10:40:13.993Z</time>
</trkpt>
<trkpt lat="30.9396500" lon="35.2186500">
<ele>-95.989998</ele>
<time>2025-12-29T10:40:13.993Z</time>
</trkpt>
<trkpt lat="30.9397100" lon="35.2185800">
<ele>-96.620003</ele>
<time>2025-12-29T10:40:13.993Z</time>
</trkpt>
<trkpt lat="30.9398400" lon="35.2184100">
<ele>-96.120003</ele>
<time>2025-12-29T10:40:13.993Z</time>
</trkpt>
<trkpt lat="30.9399000" lon="35.2182300">
<ele>-96.529999</ele>
<time>2025-12-29T10:40:13.993Z</time>
</trkpt>
<trkpt lat="30.9399400" lon="35.2180400">
<ele>-96.010002</ele>
<time>2025-12-29T10:40:13.993Z</time>
</trkpt>
<trkpt lat="30.9399300" lon="35.2177500">
<ele>-91.000000</ele>
<time>2025-12-29T10:40:13.993Z</time>
</trkpt>
<trkpt lat="30.9399700" lon="35.2175800">
<ele>-89.529999</ele>
<time>2025-12-29T10:40:13.993Z</time>
</trkpt>
<trkpt lat="30.9400100" lon="35.2175000">
<ele>-88.780006</ele>
<time>2025-12-29T10:40:13.993Z</time>
</trkpt>
<trkpt lat="30.9401300" lon="35.2173900">
<ele>-84.260002</ele>
<time>2025-12-29T10:40:13.993Z</time>
</trkpt>
<trkpt lat="30.9402100" lon="35.2173600">
<ele>-81.430000</ele>
<time>2025-12-29T10:40:13.993Z</time>
</trkpt>
<trkpt lat="30.9402900" lon="35.2173400">
<ele>-78.730003</ele>
<time>2025-12-29T10:40:13.993Z</time>
</trkpt>
<trkpt lat="30.9405000" lon="35.2173800">
<ele>-75.519997</ele>
<time>2025-12-29T10:40:13.993Z</time>
</trkpt>
<trkpt lat="30.9405600" lon="35.2173700">
<ele>-74.169998</ele>
<time>2025-12-29T10:40:13.993Z</time>
</trkpt>
<trkpt lat="30.9406100" lon="35.2173500">
<ele>-73.599998</ele>
<time>2025-12-29T10:40:13.993Z</time>
</trkpt>
<trkpt lat="30.9406600" lon="35.2173100">
<ele>-72.799995</ele>
<time>2025-12-29T10:40:13.993Z</time>
</trkpt>
<trkpt lat="30.9408000" lon="35.2172800">
<ele>-72.400002</ele>
<time>2025-12-29T10:40:13.993Z</time>
</trkpt>
<trkpt lat="30.9409300" lon="35.2173300">
<ele>-73.339996</ele>
<time>2025-12-29T10:40:13.993Z</time>
</trkpt>
<trkpt lat="30.9410500" lon="35.2173200">
<ele>-73.989998</ele>
<time>2025-12-29T10:40:13.993Z</time>
</trkpt>
<trkpt lat="30.9411900" lon="35.2173900">
<ele>-74.830002</ele>
<time>2025-12-29T10:40:13.993Z</time>
</trkpt>
<trkpt lat="30.9412400" lon="35.2173800">
<ele>-74.970001</ele>
<time>2025-12-29T10:40:13.993Z</time>
</trkpt>
<trkpt lat="30.9414500" lon="35.2172400">
<ele>-75.250000</ele>
<time>2025-12-29T10:40:13.993Z</time>
</trkpt>
<trkpt lat="30.9416100" lon="35.2172000">
<ele>-73.209999</ele>
<time>2025-12-29T10:40:13.993Z</time>
</trkpt>
<trkpt lat="30.9416800" lon="35.2172100">
<ele>-72.349998</ele>
<time>2025-12-29T10:40:13.993Z</time>
</trkpt>
<trkpt lat="30.9418800" lon="35.2172900">
<ele>-65.360001</ele>
<time>2025-12-29T10:40:13.993Z</time>
</trkpt>
<trkpt lat="30.9419900" lon="35.2173000">
<ele>-61.330002</ele>
<time>2025-12-29T10:40:13.993Z</time>
</trkpt>
<trkpt lat="30.9422400" lon="35.2172600">
<ele>-51.660000</ele>
<time>2025-12-29T10:40:13.993Z</time>
</trkpt>
<trkpt lat="30.9424200" lon="35.2172700">
<ele>-48.339996</ele>
<time>2025-12-29T10:40:13.993Z</time>
</trkpt>
<trkpt lat="30.9426300" lon="35.2173300">
<ele>-46.170002</ele>
<time>2025-12-29T10:40:13.993Z</time>
</trkpt>
<trkpt lat="30.9426400" lon="35.2172900">
<ele>-45.460003</ele>
<time>2025-12-29T10:40:13.993Z</time>
</trkpt>
<trkpt lat="30.9426400" lon="35.2172900">
<ele>-45.460003</ele>
<time>2025-12-29T10:40:13.993Z</time>
</trkpt>
<trkpt lat="30.9426300" lon="35.2173300">
<ele>-46.170002</ele>
<time>2025-12-29T10:40:13.993Z</time>
</trkpt>
<trkpt lat="30.9426900" lon="35.2173500">
<ele>-45.620003</ele>
<time>2025-12-29T10:40:13.993Z</time>
</trkpt>
<trkpt lat="30.9428800" lon="35.2173400">
<ele>-42.060001</ele>
<time>2025-12-29T10:40:13.993Z</time>
</trkpt>
<trkpt lat="30.9430300" lon="35.2173600">
<ele>-39.039997</ele>
<time>2025-12-29T10:40:13.993Z</time>
</trkpt>
<trkpt lat="30.9431700" lon="35.2174600">
<ele>-37.630001</ele>
<time>2025-12-29T10:40:13.993Z</time>
</trkpt>
<trkpt lat="30.9433900" lon="35.2175300">
<ele>-34.939999</ele>
<time>2025-12-29T10:40:13.993Z</time>
</trkpt>
<trkpt lat="30.9435100" lon="35.2175400">
<ele>-35.160000</ele>
<time>2025-12-29T10:40:13.993Z</time>
</trkpt>
<trkpt lat="30.9437200" lon="35.2176100">
<ele>-32.220001</ele>
<time>2025-12-29T10:40:13.993Z</time>
</trkpt>
<trkpt lat="30.9439100" lon="35.2176000">
<ele>-28.500000</ele>
<time>2025-12-29T10:40:13.993Z</time>
</trkpt>
<trkpt lat="30.9439500" lon="35.2175800">
<ele>-27.850000</ele>
<time>2025-12-29T10:40:13.993Z</time>
</trkpt>
<trkpt lat="30.9440000" lon="35.2175800">
<ele>-26.799999</ele>
<time>2025-12-29T10:40:13.993Z</time>
</trkpt>
<trkpt lat="30.9440400" lon="35.2176200">
<ele>-25.840000</ele>
<time>2025-12-29T10:40:13.993Z</time>
</trkpt>
<trkpt lat="30.9441000" lon="35.2177200">
<ele>-24.710001</ele>
<time>2025-12-29T10:40:13.993Z</time>
</trkpt>
<trkpt lat="30.9442200" lon="35.2180100">
<ele>-20.660000</ele>
<time>2025-12-29T10:40:13.993Z</time>
</trkpt>
<trkpt lat="30.9444200" lon="35.2182800">
<ele>-17.660000</ele>
<time>2025-12-29T10:40:13.993Z</time>
</trkpt>
<trkpt lat="30.9445100" lon="35.2184500">
<ele>-18.130001</ele>
<time>2025-12-29T10:40:13.993Z</time>
</trkpt>
<trkpt lat="30.9445300" lon="35.2185600">
<ele>-18.709999</ele>
<time>2025-12-29T10:40:13.993Z</time>
</trkpt>
<trkpt lat="30.9445100" lon="35.2187500">
<ele>-19.410000</ele>
<time>2025-12-29T10:40:13.993Z</time>
</trkpt>
<trkpt lat="30.9444500" lon="35.2189100">
<ele>-20.040001</ele>
<time>2025-12-29T10:40:13.993Z</time>
</trkpt>
<trkpt lat="30.9443300" lon="35.2191500">
<ele>-21.349998</ele>
<time>2025-12-29T10:40:13.993Z</time>
</trkpt>
<trkpt lat="30.9443200" lon="35.2192200">
<ele>-21.260000</ele>
<time>2025-12-29T10:40:13.993Z</time>
</trkpt>
<trkpt lat="30.9443400" lon="35.2193100">
<ele>-20.860001</ele>
<time>2025-12-29T10:40:13.993Z</time>
</trkpt>
<trkpt lat="30.9443600" lon="35.2193700">
<ele>-20.570000</ele>
<time>2025-12-29T10:40:13.993Z</time>
</trkpt>
<trkpt lat="30.9444600" lon="35.2194700">
<ele>-20.000000</ele>
<time>2025-12-29T10:40:13.993Z</time>
</trkpt>
<trkpt lat="30.9445500" lon="35.2195200">
<ele>-20.000000</ele>
<time>2025-12-29T10:40:13.993Z</time>
</trkpt>
<trkpt lat="30.9446300" lon="35.2195200">
<ele>-20.000000</ele>
<time>2025-12-29T10:40:13.993Z</time>
</trkpt>
<trkpt lat="30.9448800" lon="35.2194800">
<ele>-18.440001</ele>
<time>2025-12-29T10:40:13.993Z</time>
</trkpt>
<trkpt lat="30.9449900" lon="35.2194800">
<ele>-17.350000</ele>
<time>2025-12-29T10:40:13.993Z</time>
</trkpt>
<trkpt lat="30.9456000" lon="35.2196800">
<ele>-17.940001</ele>
<time>2025-12-29T10:40:13.993Z</time>
</trkpt>
<trkpt lat="30.9458000" lon="35.2198400">
<ele>-17.629999</ele>
<time>2025-12-29T10:40:13.993Z</time>
</trkpt>
<trkpt lat="30.9462400" lon="35.2202800">
<ele>-14.099999</ele>
<time>2025-12-29T10:40:13.993Z</time>
</trkpt>
<trkpt lat="30.9464100" lon="35.2204000">
<ele>-14.400001</ele>
<time>2025-12-29T10:40:13.993Z</time>
</trkpt>
<trkpt lat="30.9469000" lon="35.2206000">
<ele>-17.910000</ele>
<time>2025-12-29T10:40:13.993Z</time>
</trkpt>
<trkpt lat="30.9472000" lon="35.2207000">
<ele>-15.719999</ele>
<time>2025-12-29T10:40:13.993Z</time>
</trkpt>
<trkpt lat="30.9474500" lon="35.2208200">
<ele>-12.630000</ele>
<time>2025-12-29T10:40:13.993Z</time>
</trkpt>
<trkpt lat="30.9476800" lon="35.2208900">
<ele>-11.060000</ele>
<time>2025-12-29T10:40:13.993Z</time>
</trkpt>
<trkpt lat="30.9477300" lon="35.2209200">
<ele>-11.230000</ele>
<time>2025-12-29T10:40:13.993Z</time>
</trkpt>
<trkpt lat="30.9477800" lon="35.2209700">
<ele>-12.000000</ele>
<time>2025-12-29T10:40:13.993Z</time>
</trkpt>
<trkpt lat="30.9478400" lon="35.2211100">
<ele>-16.320000</ele>
<time>2025-12-29T10:40:13.993Z</time>
</trkpt>
<trkpt lat="30.9479400" lon="35.2215400">
<ele>-26.310001</ele>
<time>2025-12-29T10:40:13.993Z</time>
</trkpt>
<trkpt lat="30.9480200" lon="35.2218000">
<ele>-30.059999</ele>
<time>2025-12-29T10:40:13.993Z</time>
</trkpt>
<trkpt lat="30.9482600" lon="35.2222700">
<ele>-34.079998</ele>
<time>2025-12-29T10:40:13.993Z</time>
</trkpt>
<trkpt lat="30.9483700" lon="35.2225300">
<ele>-37.220001</ele>
<time>2025-12-29T10:40:13.993Z</time>
</trkpt>
<trkpt lat="30.9484500" lon="35.2228100">
<ele>-39.809998</ele>
<time>2025-12-29T10:40:13.993Z</time>
</trkpt>
<trkpt lat="30.9485700" lon="35.2233600">
<ele>-44.049999</ele>
<time>2025-12-29T10:40:13.993Z</time>
</trkpt>
<trkpt lat="30.9487700" lon="35.2239700">
<ele>-45.770000</ele>
<time>2025-12-29T10:40:13.993Z</time>
</trkpt>
<trkpt lat="30.9488200" lon="35.2242100">
<ele>-48.350002</ele>
<time>2025-12-29T10:40:13.993Z</time>
</trkpt>
<trkpt lat="30.9488300" lon="35.2244100">
<ele>-49.939999</ele>
<time>2025-12-29T10:40:13.993Z</time>
</trkpt>
<trkpt lat="30.9487900" lon="35.2246000">
<ele>-52.040001</ele>
<time>2025-12-29T10:40:13.993Z</time>
</trkpt>
<trkpt lat="30.9484400" lon="35.2252600">
<ele>-58.680000</ele>
<time>2025-12-29T10:40:13.993Z</time>
</trkpt>
<trkpt lat="30.9482700" lon="35.2256700">
<ele>-61.090000</ele>
<time>2025-12-29T10:40:13.993Z</time>
</trkpt>
<trkpt lat="30.9480100" lon="35.2260200">
<ele>-58.130001</ele>
<time>2025-12-29T10:40:13.993Z</time>
</trkpt>
<trkpt lat="30.9478200" lon="35.2264300">
<ele>-62.860001</ele>
<time>2025-12-29T10:40:13.993Z</time>
</trkpt>
<trkpt lat="30.9477500" lon="35.2265400">
<ele>-65.900002</ele>
<time>2025-12-29T10:40:13.993Z</time>
</trkpt>
<trkpt lat="30.9475700" lon="35.2267600">
<ele>-67.870003</ele>
<time>2025-12-29T10:40:13.993Z</time>
</trkpt>
<trkpt lat="30.9472200" lon="35.2270800">
<ele>-66.939995</ele>
<time>2025-12-29T10:40:13.993Z</time>
</trkpt>
<trkpt lat="30.9470800" lon="35.2272800">
<ele>-68.389999</ele>
<time>2025-12-29T10:40:13.993Z</time>
</trkpt>
<trkpt lat="30.9469800" lon="35.2274700">
<ele>-69.040001</ele>
<time>2025-12-29T10:40:13.993Z</time>
</trkpt>
<trkpt lat="30.9468900" lon="35.2277700">
<ele>-72.889999</ele>
<time>2025-12-29T10:40:13.993Z</time>
</trkpt>
<trkpt lat="30.9467700" lon="35.2280100">
<ele>-75.820000</ele>
<time>2025-12-29T10:40:13.993Z</time>
</trkpt>
<trkpt lat="30.9467500" lon="35.2281800">
<ele>-77.290001</ele>
<time>2025-12-29T10:40:13.993Z</time>
</trkpt>
<trkpt lat="30.9467300" lon="35.2288200">
<ele>-87.070000</ele>
<time>2025-12-29T10:40:13.993Z</time>
</trkpt>
<trkpt lat="30.9468300" lon="35.2292200">
<ele>-87.270004</ele>
<time>2025-12-29T10:40:13.993Z</time>
</trkpt>
<trkpt lat="30.9469500" lon="35.2295100">
<ele>-84.470001</ele>
<time>2025-12-29T10:40:13.993Z</time>
</trkpt>
<trkpt lat="30.9469200" lon="35.2298600">
<ele>-82.900002</ele>
<time>2025-12-29T10:40:13.993Z</time>
</trkpt>
<trkpt lat="30.9468800" lon="35.2300500">
<ele>-82.570000</ele>
<time>2025-12-29T10:40:13.993Z</time>
</trkpt>
<trkpt lat="30.9468100" lon="35.2303300">
<ele>-82.029999</ele>
<time>2025-12-29T10:40:13.993Z</time>
</trkpt>
<trkpt lat="30.9467700" lon="35.2304400">
<ele>-82.880005</ele>
<time>2025-12-29T10:40:13.993Z</time>
</trkpt>
<trkpt lat="30.9467700" lon="35.2304400">
<ele>-82.880005</ele>
<time>2025-12-29T10:40:13.993Z</time>
</trkpt>
<trkpt lat="30.9466200" lon="35.2308300">
<ele>-87.820000</ele>
<time>2025-12-29T10:40:13.993Z</time>
</trkpt>
<trkpt lat="30.9466000" lon="35.2310600">
<ele>-89.019997</ele>
<time>2025-12-29T10:40:13.993Z</time>
</trkpt>
<trkpt lat="30.9466300" lon="35.2314900">
<ele>-85.109993</ele>
<time>2025-12-29T10:40:13.993Z</time>
</trkpt>
<trkpt lat="30.9467200" lon="35.2321000">
<ele>-82.449997</ele>
<time>2025-12-29T10:40:13.993Z</time>
</trkpt>
<trkpt lat="30.9470700" lon="35.2337000">
<ele>-85.180000</ele>
<time>2025-12-29T10:40:13.993Z</time>
</trkpt>
<trkpt lat="30.9471600" lon="35.2339800">
<ele>-85.549995</ele>
<time>2025-12-29T10:40:13.993Z</time>
</trkpt>
<trkpt lat="30.9475200" lon="35.2349100">
<ele>-87.070000</ele>
<time>2025-12-29T10:40:13.993Z</time>
</trkpt>
<trkpt lat="30.9477500" lon="35.2355700">
<ele>-88.400002</ele>
<time>2025-12-29T10:40:13.993Z</time>
</trkpt>
<trkpt lat="30.9479200" lon="35.2361300">
<ele>-91.629997</ele>
<time>2025-12-29T10:40:13.993Z</time>
</trkpt>
<trkpt lat="30.9481100" lon="35.2368100">
<ele>-97.889999</ele>
<time>2025-12-29T10:40:13.993Z</time>
</trkpt>
<trkpt lat="30.9483500" lon="35.2373400">
<ele>-99.310005</ele>
<time>2025-12-29T10:40:13.993Z</time>
</trkpt>
<trkpt lat="30.9481300" lon="35.2376000">
<ele>-96.610001</ele>
<time>2025-12-29T10:40:13.993Z</time>
</trkpt>
<trkpt lat="30.9480500" lon="35.2377700">
<ele>-97.030006</ele>
<time>2025-12-29T10:40:13.993Z</time>
</trkpt>
<trkpt lat="30.9480500" lon="35.2380500">
<ele>-97.059998</ele>
<time>2025-12-29T10:40:13.993Z</time>
</trkpt>
<trkpt lat="30.9480100" lon="35.2383100">
<ele>-98.870003</ele>
<time>2025-12-29T10:40:13.993Z</time>
</trkpt>
<trkpt lat="30.9479400" lon="35.2386500">
<ele>-103.029999</ele>
<time>2025-12-29T10:40:13.993Z</time>
</trkpt>
<trkpt lat="30.9478800" lon="35.2388000">
<ele>-104.230003</ele>
<time>2025-12-29T10:40:13.993Z</time>
</trkpt>
<trkpt lat="30.9478200" lon="35.2389000">
<ele>-104.439995</ele>
<time>2025-12-29T10:40:13.993Z</time>
</trkpt>
<trkpt lat="30.9476500" lon="35.2391100">
<ele>-103.910004</ele>
<time>2025-12-29T10:40:13.993Z</time>
</trkpt>
<trkpt lat="30.9475700" lon="35.2392400">
<ele>-104.129997</ele>
<time>2025-12-29T10:40:13.993Z</time>
</trkpt>
<trkpt lat="30.9474800" lon="35.2395100">
<ele>-104.500000</ele>
<time>2025-12-29T10:40:13.993Z</time>
</trkpt>
<trkpt lat="30.9473800" lon="35.2399700">
<ele>-100.760002</ele>
<time>2025-12-29T10:40:13.993Z</time>
</trkpt>
<trkpt lat="30.9472100" lon="35.2403100">
<ele>-98.159996</ele>
<time>2025-12-29T10:40:13.993Z</time>
</trkpt>
<trkpt lat="30.9471100" lon="35.2404100">
<ele>-98.850006</ele>
<time>2025-12-29T10:40:13.993Z</time>
</trkpt>
<trkpt lat="30.9466700" lon="35.2406700">
<ele>-102.129997</ele>
<time>2025-12-29T10:40:13.993Z</time>
</trkpt>
<trkpt lat="30.9461800" lon="35.2408600">
<ele>-99.910004</ele>
<time>2025-12-29T10:40:13.993Z</time>
</trkpt>
<trkpt lat="30.9456800" lon="35.2411000">
<ele>-100.129997</ele>
<time>2025-12-29T10:40:13.993Z</time>
</trkpt>
<trkpt lat="30.9453100" lon="35.2412300">
<ele>-103.110001</ele>
<time>2025-12-29T10:40:13.993Z</time>
</trkpt>
<trkpt lat="30.9449000" lon="35.2414200">
<ele>-104.459999</ele>
<time>2025-12-29T10:40:13.993Z</time>
</trkpt>
<trkpt lat="30.9444400" lon="35.2415800">
<ele>-107.309998</ele>
<time>2025-12-29T10:40:13.993Z</time>
</trkpt>
<trkpt lat="30.9431900" lon="35.2418400">
<ele>-100.680000</ele>
<time>2025-12-29T10:40:13.993Z</time>
</trkpt>
<trkpt lat="30.9429500" lon="35.2418500">
<ele>-103.659996</ele>
<time>2025-12-29T10:40:13.993Z</time>
</trkpt>
<trkpt lat="30.9421600" lon="35.2416400">
<ele>-111.769997</ele>
<time>2025-12-29T10:40:13.993Z</time>
</trkpt>
<trkpt lat="30.9420600" lon="35.2415900">
<ele>-111.779999</ele>
<time>2025-12-29T10:40:13.993Z</time>
</trkpt>
<trkpt lat="30.9416700" lon="35.2413200">
<ele>-111.030006</ele>
<time>2025-12-29T10:40:13.993Z</time>
</trkpt>
<trkpt lat="30.9414600" lon="35.2411300">
<ele>-108.020004</ele>
<time>2025-12-29T10:40:13.993Z</time>
</trkpt>
<trkpt lat="30.9413300" lon="35.2410400">
<ele>-108.239998</ele>
<time>2025-12-29T10:40:13.993Z</time>
</trkpt>
<trkpt lat="30.9410500" lon="35.2409100">
<ele>-111.500000</ele>
<time>2025-12-29T10:40:13.993Z</time>
</trkpt>
<trkpt lat="30.9409100" lon="35.2409100">
<ele>-112.870003</ele>
<time>2025-12-29T10:40:13.993Z</time>
</trkpt>
<trkpt lat="30.9407200" lon="35.2409300">
<ele>-114.080002</ele>
<time>2025-12-29T10:40:13.993Z</time>
</trkpt>
<trkpt lat="30.9401700" lon="35.2409200">
<ele>-117.669998</ele>
<time>2025-12-29T10:40:13.993Z</time>
</trkpt>
<trkpt lat="30.9396500" lon="35.2409700">
<ele>-117.180000</ele>
<time>2025-12-29T10:40:13.993Z</time>
</trkpt>
<trkpt lat="30.9392200" lon="35.2409300">
<ele>-121.760002</ele>
<time>2025-12-29T10:40:13.993Z</time>
</trkpt>
<trkpt lat="30.9385600" lon="35.2410200">
<ele>-121.260002</ele>
<time>2025-12-29T10:40:13.993Z</time>
</trkpt>
<trkpt lat="30.9382300" lon="35.2412400">
<ele>-119.059998</ele>
<time>2025-12-29T10:40:13.993Z</time>
</trkpt>
<trkpt lat="30.9378800" lon="35.2412300">
<ele>-123.700005</ele>
<time>2025-12-29T10:40:13.993Z</time>
</trkpt>
<trkpt lat="30.9375100" lon="35.2414100">
<ele>-124.669998</ele>
<time>2025-12-29T10:40:13.993Z</time>
</trkpt>
<trkpt lat="30.9372500" lon="35.2415000">
<ele>-127.940002</ele>
<time>2025-12-29T10:40:13.993Z</time>
</trkpt>
<trkpt lat="30.9368400" lon="35.2417800">
<ele>-132.570007</ele>
<time>2025-12-29T10:40:13.993Z</time>
</trkpt>
<trkpt lat="30.9365400" lon="35.2419100">
<ele>-131.809998</ele>
<time>2025-12-29T10:40:13.993Z</time>
</trkpt>
<trkpt lat="30.9361000" lon="35.2420600">
<ele>-128.199997</ele>
<time>2025-12-29T10:40:13.993Z</time>
</trkpt>
<trkpt lat="30.9361000" lon="35.2420700">
<ele>-128.120010</ele>
<time>2025-12-29T10:40:13.993Z</time>
</trkpt>
<trkpt lat="30.9361000" lon="35.2420700">
<ele>-128.120010</ele>
<time>2025-12-29T10:40:13.993Z</time>
</trkpt>
<trkpt lat="30.9360800" lon="35.2420800">
<ele>-128.080002</ele>
<time>2025-12-29T10:40:13.993Z</time>
</trkpt>
<trkpt lat="30.9356100" lon="35.2422500">
<ele>-128.860001</ele>
<time>2025-12-29T10:40:13.993Z</time>
</trkpt>
<trkpt lat="30.9349800" lon="35.2423700">
<ele>-128.470001</ele>
<time>2025-12-29T10:40:13.993Z</time>
</trkpt>
<trkpt lat="30.9349800" lon="35.2423700">
<ele>-128.470001</ele>
<time>2025-12-29T10:40:13.993Z</time>
</trkpt>
<trkpt lat="30.9349800" lon="35.2423700">
<ele>-128.470001</ele>
<time>2025-12-29T10:40:13.993Z</time>
</trkpt>
<trkpt lat="30.9349000" lon="35.2423800">
<ele>-128.430008</ele>
<time>2025-12-29T10:40:13.993Z</time>
</trkpt>
<trkpt lat="30.9347200" lon="35.2423200">
<ele>-128.649994</ele>
<time>2025-12-29T10:40:13.993Z</time>
</trkpt>
<trkpt lat="30.9345500" lon="35.2423200">
<ele>-129.080002</ele>
<time>2025-12-29T10:40:13.993Z</time>
</trkpt>
<trkpt lat="30.9341200" lon="35.2423500">
<ele>-130.559998</ele>
<time>2025-12-29T10:40:13.993Z</time>
</trkpt>
<trkpt lat="30.9340600" lon="35.2423600">
<ele>-130.039993</ele>
<time>2025-12-29T10:40:13.993Z</time>
</trkpt>
<trkpt lat="30.9339400" lon="35.2424400">
<ele>-129.660004</ele>
<time>2025-12-29T10:40:13.993Z</time>
</trkpt>
<trkpt lat="30.9338900" lon="35.2424400">
<ele>-129.360001</ele>
<time>2025-12-29T10:40:13.993Z</time>
</trkpt>
<trkpt lat="30.9336600" lon="35.2424400">
<ele>-126.639999</ele>
<time>2025-12-29T10:40:13.993Z</time>
</trkpt>
<trkpt lat="30.9333600" lon="35.2424700">
<ele>-128.250000</ele>
<time>2025-12-29T10:40:13.993Z</time>
</trkpt>
<trkpt lat="30.9331800" lon="35.2425300">
<ele>-131.580002</ele>
<time>2025-12-29T10:40:13.993Z</time>
</trkpt>
<trkpt lat="30.9330500" lon="35.2425600">
<ele>-133.239990</ele>
<time>2025-12-29T10:40:13.993Z</time>
</trkpt>
<trkpt lat="30.9330500" lon="35.2425600">
<ele>-133.239990</ele>
<time>2025-12-29T10:40:13.993Z</time>
</trkpt>
<trkpt lat="30.9331800" lon="35.2425300">
<ele>-131.580002</ele>
<time>2025-12-29T10:40:13.993Z</time>
</trkpt>
<trkpt lat="30.9333600" lon="35.2424700">
<ele>-128.250000</ele>
<time>2025-12-29T10:40:13.993Z</time>
</trkpt>
<trkpt lat="30.9336600" lon="35.2424400">
<ele>-126.639999</ele>
<time>2025-12-29T10:40:13.993Z</time>
</trkpt>
<trkpt lat="30.9338900" lon="35.2424400">
<ele>-129.360001</ele>
<time>2025-12-29T10:40:13.993Z</time>
</trkpt>
<trkpt lat="30.9339400" lon="35.2424400">
<ele>-129.660004</ele>
<time>2025-12-29T10:40:13.993Z</time>
</trkpt>
<trkpt lat="30.9340600" lon="35.2423600">
<ele>-130.039993</ele>
<time>2025-12-29T10:40:13.993Z</time>
</trkpt>
<trkpt lat="30.9341200" lon="35.2423500">
<ele>-130.559998</ele>
<time>2025-12-29T10:40:13.993Z</time>
</trkpt>
<trkpt lat="30.9345500" lon="35.2423200">
<ele>-129.080002</ele>
<time>2025-12-29T10:40:13.993Z</time>
</trkpt>
<trkpt lat="30.9347200" lon="35.2423200">
<ele>-128.649994</ele>
<time>2025-12-29T10:40:13.993Z</time>
</trkpt>
<trkpt lat="30.9349000" lon="35.2423800">
<ele>-128.430008</ele>
<time>2025-12-29T10:40:13.993Z</time>
</trkpt>
<trkpt lat="30.9348900" lon="35.2423000">
<ele>-128.720001</ele>
<time>2025-12-29T10:40:13.993Z</time>
</trkpt>
<trkpt lat="30.9349000" lon="35.2423000">
<ele>-128.720001</ele>
<time>2025-12-29T10:40:13.993Z</time>
</trkpt>
<trkpt lat="30.9349000" lon="35.2423000">
<ele>-128.720001</ele>
<time>2025-12-29T10:40:13.993Z</time>
</trkpt>
<trkpt lat="30.9348600" lon="35.2416200">
<ele>-127.070000</ele>
<time>2025-12-29T10:40:13.993Z</time>
</trkpt>
<trkpt lat="30.9348100" lon="35.2408600">
<ele>-121.130005</ele>
<time>2025-12-29T10:40:13.993Z</time>
</trkpt>
<trkpt lat="30.9347500" lon="35.2407500">
<ele>-119.529999</ele>
<time>2025-12-29T10:40:13.993Z</time>
</trkpt>
<trkpt lat="30.9344400" lon="35.2404700">
<ele>-111.589996</ele>
<time>2025-12-29T10:40:13.993Z</time>
</trkpt>
<trkpt lat="30.9339100" lon="35.2407600">
<ele>-100.000000</ele>
<time>2025-12-29T10:40:13.993Z</time>
</trkpt>
<trkpt lat="30.9333600" lon="35.2405500">
<ele>-104.269997</ele>
<time>2025-12-29T10:40:13.993Z</time>
</trkpt>
<trkpt lat="30.9329500" lon="35.2405800">
<ele>-108.010002</ele>
<time>2025-12-29T10:40:13.993Z</time>
</trkpt>
<trkpt lat="30.9327700" lon="35.2406300">
<ele>-106.889999</ele>
<time>2025-12-29T10:40:13.993Z</time>
</trkpt>
<trkpt lat="30.9327700" lon="35.2406300">
<ele>-106.889999</ele>
<time>2025-12-29T10:40:13.993Z</time>
</trkpt>
<trkpt lat="30.9327700" lon="35.2406300">
<ele>-106.889999</ele>
<time>2025-12-29T10:40:13.993Z</time>
</trkpt>
<trkpt lat="30.9325200" lon="35.2407000">
<ele>-110.339996</ele>
<time>2025-12-29T10:40:13.993Z</time>
</trkpt>
<trkpt lat="30.9321200" lon="35.2407700">
<ele>-109.029999</ele>
<time>2025-12-29T10:40:13.993Z</time>
</trkpt>
<trkpt lat="30.9317700" lon="35.2411100">
<ele>-110.000000</ele>
<time>2025-12-29T10:40:13.993Z</time>
</trkpt>
<trkpt lat="30.9316000" lon="35.2411900">
<ele>-108.809998</ele>
<time>2025-12-29T10:40:13.993Z</time>
</trkpt>
<trkpt lat="30.9314000" lon="35.2412900">
<ele>-105.779999</ele>
<time>2025-12-29T10:40:13.993Z</time>
</trkpt>
<trkpt lat="30.9313900" lon="35.2415000">
<ele>-109.009995</ele>
<time>2025-12-29T10:40:13.993Z</time>
</trkpt>
<trkpt lat="30.9312200" lon="35.2416300">
<ele>-108.059998</ele>
<time>2025-12-29T10:40:13.993Z</time>
</trkpt>
<trkpt lat="30.9311400" lon="35.2416400">
<ele>-106.780006</ele>
<time>2025-12-29T10:40:13.993Z</time>
</trkpt>
<trkpt lat="30.9307400" lon="35.2416100">
<ele>-107.120003</ele>
<time>2025-12-29T10:40:13.993Z</time>
</trkpt>
<trkpt lat="30.9305300" lon="35.2413800">
<ele>-104.909996</ele>
<time>2025-12-29T10:40:13.993Z</time>
</trkpt>
<trkpt lat="30.9304500" lon="35.2413300">
<ele>-104.340004</ele>
<time>2025-12-29T10:40:13.993Z</time>
</trkpt>
<trkpt lat="30.9303300" lon="35.2413000">
<ele>-105.300003</ele>
<time>2025-12-29T10:40:13.993Z</time>
</trkpt>
<trkpt lat="30.9302300" lon="35.2413300">
<ele>-105.650002</ele>
<time>2025-12-29T10:40:13.993Z</time>
</trkpt>
<trkpt lat="30.9302000" lon="35.2414200">
<ele>-105.809998</ele>
<time>2025-12-29T10:40:13.993Z</time>
</trkpt>
<trkpt lat="30.9301900" lon="35.2415400">
<ele>-106.360001</ele>
<time>2025-12-29T10:40:13.993Z</time>
</trkpt>
<trkpt lat="30.9302700" lon="35.2418300">
<ele>-111.500000</ele>
<time>2025-12-29T10:40:13.993Z</time>
</trkpt>
<trkpt lat="30.9302800" lon="35.2419500">
<ele>-113.030006</ele>
<time>2025-12-29T10:40:13.993Z</time>
</trkpt>
<trkpt lat="30.9301500" lon="35.2422300">
<ele>-108.000000</ele>
<time>2025-12-29T10:40:13.993Z</time>
</trkpt>
<trkpt lat="30.9301700" lon="35.2423300">
<ele>-109.510002</ele>
<time>2025-12-29T10:40:13.993Z</time>
</trkpt>
<trkpt lat="30.9302600" lon="35.2426000">
<ele>-115.450005</ele>
<time>2025-12-29T10:40:13.993Z</time>
</trkpt>
<trkpt lat="30.9302300" lon="35.2427300">
<ele>-116.019997</ele>
<time>2025-12-29T10:40:13.993Z</time>
</trkpt>
<trkpt lat="30.9301200" lon="35.2429600">
<ele>-116.260002</ele>
<time>2025-12-29T10:40:13.993Z</time>
</trkpt>
<trkpt lat="30.9300200" lon="35.2430800">
<ele>-116.799995</ele>
<time>2025-12-29T10:40:13.993Z</time>
</trkpt>
<trkpt lat="30.9299600" lon="35.2431300">
<ele>-116.700005</ele>
<time>2025-12-29T10:40:13.993Z</time>
</trkpt>
<trkpt lat="30.9298600" lon="35.2431700">
<ele>-114.910004</ele>
<time>2025-12-29T10:40:13.993Z</time>
</trkpt>
<trkpt lat="30.9297300" lon="35.2431700">
<ele>-111.609993</ele>
<time>2025-12-29T10:40:13.993Z</time>
</trkpt>
<trkpt lat="30.9294900" lon="35.2431200">
<ele>-111.490005</ele>
<time>2025-12-29T10:40:13.993Z</time>
</trkpt>
<trkpt lat="30.9293000" lon="35.2428700">
<ele>-111.879997</ele>
<time>2025-12-29T10:40:13.993Z</time>
</trkpt>
<trkpt lat="30.9292200" lon="35.2428600">
<ele>-112.539993</ele>
<time>2025-12-29T10:40:13.993Z</time>
</trkpt>
<trkpt lat="30.9290500" lon="35.2429000">
<ele>-114.919998</ele>
<time>2025-12-29T10:40:13.993Z</time>
</trkpt>
<trkpt lat="30.9287200" lon="35.2428700">
<ele>-120.099998</ele>
<time>2025-12-29T10:40:13.993Z</time>
</trkpt>
<trkpt lat="30.9286500" lon="35.2428800">
<ele>-121.160004</ele>
<time>2025-12-29T10:40:13.993Z</time>
</trkpt>
<trkpt lat="30.9285700" lon="35.2429700">
<ele>-123.370003</ele>
<time>2025-12-29T10:40:13.993Z</time>
</trkpt>
<trkpt lat="30.9285500" lon="35.2430700">
<ele>-124.559998</ele>
<time>2025-12-29T10:40:13.993Z</time>
</trkpt>
<trkpt lat="30.9285600" lon="35.2431000">
<ele>-124.349998</ele>
<time>2025-12-29T10:40:13.993Z</time>
</trkpt>
<trkpt lat="30.9285600" lon="35.2431000">
<ele>-124.349998</ele>
<time>2025-12-29T10:40:13.993Z</time>
</trkpt>
<trkpt lat="30.9286600" lon="35.2433400">
<ele>-120.660004</ele>
<time>2025-12-29T10:40:13.993Z</time>
</trkpt>
<trkpt lat="30.9286300" lon="35.2434000">
<ele>-119.820000</ele>
<time>2025-12-29T10:40:13.993Z</time>
</trkpt>
<trkpt lat="30.9285700" lon="35.2434200">
<ele>-121.540001</ele>
<time>2025-12-29T10:40:13.993Z</time>
</trkpt>
<trkpt lat="30.9284800" lon="35.2434300">
<ele>-124.920006</ele>
<time>2025-12-29T10:40:13.993Z</time>
</trkpt>
<trkpt lat="30.9281500" lon="35.2434300">
<ele>-138.679993</ele>
<time>2025-12-29T10:40:13.993Z</time>
</trkpt>
<trkpt lat="30.9280300" lon="35.2434900">
<ele>-142.720001</ele>
<time>2025-12-29T10:40:13.993Z</time>
</trkpt>
<trkpt lat="30.9277400" lon="35.2437700">
<ele>-144.050003</ele>
<time>2025-12-29T10:40:13.993Z</time>
</trkpt>
<trkpt lat="30.9272800" lon="35.2441500">
<ele>-150.350006</ele>
<time>2025-12-29T10:40:13.993Z</time>
</trkpt>
<trkpt lat="30.9270800" lon="35.2442900">
<ele>-154.839996</ele>
<time>2025-12-29T10:40:13.993Z</time>
</trkpt>
<trkpt lat="30.9269000" lon="35.2444200">
<ele>-159.819992</ele>
<time>2025-12-29T10:40:13.993Z</time>
</trkpt>
<trkpt lat="30.9267700" lon="35.2445700">
<ele>-163.210007</ele>
<time>2025-12-29T10:40:13.993Z</time>
</trkpt>
<trkpt lat="30.9267000" lon="35.2445900">
<ele>-165.690002</ele>
<time>2025-12-29T10:40:13.993Z</time>
</trkpt>
<trkpt lat="30.9266300" lon="35.2445700">
<ele>-167.670013</ele>
<time>2025-12-29T10:40:13.993Z</time>
</trkpt>
<trkpt lat="30.9265900" lon="35.2445200">
<ele>-168.509995</ele>
<time>2025-12-29T10:40:13.993Z</time>
</trkpt>
<trkpt lat="30.9264600" lon="35.2442400">
<ele>-170.229996</ele>
<time>2025-12-29T10:40:13.993Z</time>
</trkpt>
<trkpt lat="30.9263900" lon="35.2441500">
<ele>-170.989990</ele>
<time>2025-12-29T10:40:13.993Z</time>
</trkpt>
<trkpt lat="30.9263100" lon="35.2441200">
<ele>-171.520004</ele>
<time>2025-12-29T10:40:13.993Z</time>
</trkpt>
<trkpt lat="30.9262200" lon="35.2442200">
<ele>-171.750000</ele>
<time>2025-12-29T10:40:13.993Z</time>
</trkpt>
<trkpt lat="30.9262800" lon="35.2444200">
<ele>-170.349991</ele>
<time>2025-12-29T10:40:13.993Z</time>
</trkpt>
<trkpt lat="30.9263600" lon="35.2448500">
<ele>-173.270004</ele>
<time>2025-12-29T10:40:13.993Z</time>
</trkpt>
<trkpt lat="30.9264400" lon="35.2460200">
<ele>-171.840012</ele>
<time>2025-12-29T10:40:13.993Z</time>
</trkpt>
<trkpt lat="30.9261200" lon="35.2470700">
<ele>-173.309998</ele>
<time>2025-12-29T10:40:13.993Z</time>
</trkpt>
<trkpt lat="30.9260600" lon="35.2474800">
<ele>-175.669998</ele>
<time>2025-12-29T10:40:13.993Z</time>
</trkpt>
<trkpt lat="30.9260900" lon="35.2479500">
<ele>-178.849991</ele>
<time>2025-12-29T10:40:13.993Z</time>
</trkpt>
<trkpt lat="30.9263800" lon="35.2486000">
<ele>-176.839996</ele>
<time>2025-12-29T10:40:13.993Z</time>
</trkpt>
<trkpt lat="30.9283100" lon="35.2504600">
<ele>-176.860001</ele>
<time>2025-12-29T10:40:13.993Z</time>
</trkpt>
<trkpt lat="30.9288800" lon="35.2509300">
<ele>-169.510010</ele>
<time>2025-12-29T10:40:13.993Z</time>
</trkpt>
<trkpt lat="30.9297500" lon="35.2515200">
<ele>-172.639999</ele>
<time>2025-12-29T10:40:13.993Z</time>
</trkpt>
<trkpt lat="30.9308200" lon="35.2523800">
<ele>-181.190002</ele>
<time>2025-12-29T10:40:13.993Z</time>
</trkpt>
<trkpt lat="30.9310400" lon="35.2526600">
<ele>-180.680008</ele>
<time>2025-12-29T10:40:13.993Z</time>
</trkpt>
<trkpt lat="30.9310800" lon="35.2528100">
<ele>-182.360001</ele>
<time>2025-12-29T10:40:13.993Z</time>
</trkpt>
<trkpt lat="30.9310700" lon="35.2530100">
<ele>-183.939987</ele>
<time>2025-12-29T10:40:13.993Z</time>
</trkpt>
<trkpt lat="30.9315700" lon="35.2543800">
<ele>-188.390015</ele>
<time>2025-12-29T10:40:13.993Z</time>
</trkpt>
<trkpt lat="30.9316000" lon="35.2545300">
<ele>-188.479996</ele>
<time>2025-12-29T10:40:13.993Z</time>
</trkpt>
<trkpt lat="30.9315700" lon="35.2551500">
<ele>-187.529999</ele>
<time>2025-12-29T10:40:13.993Z</time>
</trkpt>
<trkpt lat="30.9314400" lon="35.2556700">
<ele>-188.370010</ele>
<time>2025-12-29T10:40:13.993Z</time>
</trkpt>
<trkpt lat="30.9313100" lon="35.2560100">
<ele>-188.520004</ele>
<time>2025-12-29T10:40:13.993Z</time>
</trkpt>
<trkpt lat="30.9312300" lon="35.2561200">
<ele>-189.310013</ele>
<time>2025-12-29T10:40:13.993Z</time>
</trkpt>
<trkpt lat="30.9310600" lon="35.2563200">
<ele>-187.770004</ele>
<time>2025-12-29T10:40:13.993Z</time>
</trkpt>
<trkpt lat="30.9307300" lon="35.2566800">
<ele>-182.659988</ele>
<time>2025-12-29T10:40:13.993Z</time>
</trkpt>
<trkpt lat="30.9302700" lon="35.2567800">
<ele>-188.349991</ele>
<time>2025-12-29T10:40:13.993Z</time>
</trkpt>
<trkpt lat="30.9299100" lon="35.2566900">
<ele>-187.740005</ele>
<time>2025-12-29T10:40:13.993Z</time>
</trkpt>
<trkpt lat="30.9295700" lon="35.2566400">
<ele>-183.889999</ele>
<time>2025-12-29T10:40:13.993Z</time>
</trkpt>
<trkpt lat="30.9294000" lon="35.2567400">
<ele>-186.829987</ele>
<time>2025-12-29T10:40:13.993Z</time>
</trkpt>
<trkpt lat="30.9292200" lon="35.2568900">
<ele>-190.299988</ele>
<time>2025-12-29T10:40:13.993Z</time>
</trkpt>
<trkpt lat="30.9288800" lon="35.2571200">
<ele>-192.880005</ele>
<time>2025-12-29T10:40:13.993Z</time>
</trkpt>
<trkpt lat="30.9284400" lon="35.2574800">
<ele>-191.020004</ele>
<time>2025-12-29T10:40:13.993Z</time>
</trkpt>
<trkpt lat="30.9278900" lon="35.2579500">
<ele>-194.100006</ele>
<time>2025-12-29T10:40:13.993Z</time>
</trkpt>
<trkpt lat="30.9277800" lon="35.2580600">
<ele>-194.940002</ele>
<time>2025-12-29T10:40:13.993Z</time>
</trkpt>
<trkpt lat="30.9277200" lon="35.2581400">
<ele>-194.810013</ele>
<time>2025-12-29T10:40:13.993Z</time>
</trkpt>
<trkpt lat="30.9275900" lon="35.2584700">
<ele>-192.070007</ele>
<time>2025-12-29T10:40:13.993Z</time>
</trkpt>
<trkpt lat="30.9274300" lon="35.2588000">
<ele>-188.960007</ele>
<time>2025-12-29T10:40:13.993Z</time>
</trkpt>
<trkpt lat="30.9274000" lon="35.2589300">
<ele>-187.539993</ele>
<time>2025-12-29T10:40:13.993Z</time>
</trkpt>
<trkpt lat="30.9273900" lon="35.2591500">
<ele>-184.799988</ele>
<time>2025-12-29T10:40:13.993Z</time>
</trkpt>
<trkpt lat="30.9273700" lon="35.2593300">
<ele>-183.660004</ele>
<time>2025-12-29T10:40:13.993Z</time>
</trkpt>
<trkpt lat="30.9273300" lon="35.2594700">
<ele>-183.559998</ele>
<time>2025-12-29T10:40:13.993Z</time>
</trkpt>
<trkpt lat="30.9270600" lon="35.2600600">
<ele>-189.699997</ele>
<time>2025-12-29T10:40:13.993Z</time>
</trkpt>
<trkpt lat="30.9269100" lon="35.2604900">
<ele>-190.539993</ele>
<time>2025-12-29T10:40:13.993Z</time>
</trkpt>
<trkpt lat="30.9268100" lon="35.2610700">
<ele>-190.860001</ele>
<time>2025-12-29T10:40:13.993Z</time>
</trkpt>
<trkpt lat="30.9268000" lon="35.2612000">
<ele>-191.250000</ele>
<time>2025-12-29T10:40:13.993Z</time>
</trkpt>
<trkpt lat="30.9268100" lon="35.2615500">
<ele>-191.419998</ele>
<time>2025-12-29T10:40:13.993Z</time>
</trkpt>
<trkpt lat="30.9268400" lon="35.2617300">
<ele>-191.250000</ele>
<time>2025-12-29T10:40:13.993Z</time>
</trkpt>
<trkpt lat="30.9268400" lon="35.2619500">
<ele>-192.500015</ele>
<time>2025-12-29T10:40:13.993Z</time>
</trkpt>
<trkpt lat="30.9268200" lon="35.2620800">
<ele>-192.789993</ele>
<time>2025-12-29T10:40:13.993Z</time>
</trkpt>
<trkpt lat="30.9267800" lon="35.2622300">
<ele>-193.350006</ele>
<time>2025-12-29T10:40:13.993Z</time>
</trkpt>
<trkpt lat="30.9267200" lon="35.2624800">
<ele>-193.480011</ele>
<time>2025-12-29T10:40:13.993Z</time>
</trkpt>
<trkpt lat="30.9266700" lon="35.2626000">
<ele>-193.259995</ele>
<time>2025-12-29T10:40:13.993Z</time>
</trkpt>
<trkpt lat="30.9266000" lon="35.2626600">
<ele>-191.989990</ele>
<time>2025-12-29T10:40:13.993Z</time>
</trkpt>
<trkpt lat="30.9264500" lon="35.2627400">
<ele>-189.259995</ele>
<time>2025-12-29T10:40:13.993Z</time>
</trkpt>
<trkpt lat="30.9263900" lon="35.2628100">
<ele>-187.550003</ele>
<time>2025-12-29T10:40:13.993Z</time>
</trkpt>
<trkpt lat="30.9264200" lon="35.2629500">
<ele>-186.180008</ele>
<time>2025-12-29T10:40:13.993Z</time>
</trkpt>
<trkpt lat="30.9265500" lon="35.2631800">
<ele>-186.639999</ele>
<time>2025-12-29T10:40:13.993Z</time>
</trkpt>
<trkpt lat="30.9267100" lon="35.2635300">
<ele>-185.309998</ele>
<time>2025-12-29T10:40:13.993Z</time>
</trkpt>
<trkpt lat="30.9269300" lon="35.2638500">
<ele>-190.410004</ele>
<time>2025-12-29T10:40:13.993Z</time>
</trkpt>
<trkpt lat="30.9270400" lon="35.2640300">
<ele>-192.909988</ele>
<time>2025-12-29T10:40:13.993Z</time>
</trkpt>
<trkpt lat="30.9271900" lon="35.2643500">
<ele>-199.090012</ele>
<time>2025-12-29T10:40:13.993Z</time>
</trkpt>
<trkpt lat="30.9272700" lon="35.2645900">
<ele>-201.250000</ele>
<time>2025-12-29T10:40:13.993Z</time>
</trkpt>
<trkpt lat="30.9272900" lon="35.2646700">
<ele>-201.290009</ele>
<time>2025-12-29T10:40:13.993Z</time>
</trkpt>
<trkpt lat="30.9272900" lon="35.2647700">
<ele>-200.979996</ele>
<time>2025-12-29T10:40:13.993Z</time>
</trkpt>
<trkpt lat="30.9272200" lon="35.2650100">
<ele>-198.819992</ele>
<time>2025-12-29T10:40:13.993Z</time>
</trkpt>
<trkpt lat="30.9273000" lon="35.2651500">
<ele>-198.910004</ele>
<time>2025-12-29T10:40:13.993Z</time>
</trkpt>
<trkpt lat="30.9273300" lon="35.2653400">
<ele>-198.280014</ele>
<time>2025-12-29T10:40:13.993Z</time>
</trkpt>
<trkpt lat="30.9274100" lon="35.2655100">
<ele>-199.159988</ele>
<time>2025-12-29T10:40:13.993Z</time>
</trkpt>
<trkpt lat="30.9274400" lon="35.2656000">
<ele>-199.670013</ele>
<time>2025-12-29T10:40:13.993Z</time>
</trkpt>
<trkpt lat="30.9274600" lon="35.2657300">
<ele>-200.050003</ele>
<time>2025-12-29T10:40:13.993Z</time>
</trkpt>
<trkpt lat="30.9274400" lon="35.2658900">
<ele>-199.329987</ele>
<time>2025-12-29T10:40:13.993Z</time>
</trkpt>
<trkpt lat="30.9274900" lon="35.2660600">
<ele>-199.960007</ele>
<time>2025-12-29T10:40:13.993Z</time>
</trkpt>
<trkpt lat="30.9275200" lon="35.2662400">
<ele>-199.789993</ele>
<time>2025-12-29T10:40:13.993Z</time>
</trkpt>
<trkpt lat="30.9275500" lon="35.2663700">
<ele>-199.779999</ele>
<time>2025-12-29T10:40:13.993Z</time>
</trkpt>
<trkpt lat="30.9277800" lon="35.2668100">
<ele>-199.470001</ele>
<time>2025-12-29T10:40:13.993Z</time>
</trkpt>
<trkpt lat="30.9278200" lon="35.2669700">
<ele>-197.860001</ele>
<time>2025-12-29T10:40:13.993Z</time>
</trkpt>
<trkpt lat="30.9280200" lon="35.2673800">
<ele>-193.270004</ele>
<time>2025-12-29T10:40:13.993Z</time>
</trkpt>
<trkpt lat="30.9281000" lon="35.2675000">
<ele>-192.639999</ele>
<time>2025-12-29T10:40:13.993Z</time>
</trkpt>
<trkpt lat="30.9282500" lon="35.2676900">
<ele>-195.069992</ele>
<time>2025-12-29T10:40:13.993Z</time>
</trkpt>
<trkpt lat="30.9283800" lon="35.2679300">
<ele>-196.589996</ele>
<time>2025-12-29T10:40:13.993Z</time>
</trkpt>
<trkpt lat="30.9285400" lon="35.2681000">
<ele>-198.559998</ele>
<time>2025-12-29T10:40:13.993Z</time>
</trkpt>
<trkpt lat="30.9286300" lon="35.2682200">
<ele>-199.410004</ele>
<time>2025-12-29T10:40:13.993Z</time>
</trkpt>
<trkpt lat="30.9288700" lon="35.2686500">
<ele>-200.590012</ele>
<time>2025-12-29T10:40:13.993Z</time>
</trkpt>
<trkpt lat="30.9289300" lon="35.2689200">
<ele>-204.440002</ele>
<time>2025-12-29T10:40:13.993Z</time>
</trkpt>
<trkpt lat="30.9289500" lon="35.2691800">
<ele>-205.850006</ele>
<time>2025-12-29T10:40:13.993Z</time>
</trkpt>
<trkpt lat="30.9289200" lon="35.2694900">
<ele>-204.619995</ele>
<time>2025-12-29T10:40:13.993Z</time>
</trkpt>
<trkpt lat="30.9288600" lon="35.2698800">
<ele>-201.860001</ele>
<time>2025-12-29T10:40:13.993Z</time>
</trkpt>
<trkpt lat="30.9288100" lon="35.2700200">
<ele>-199.990005</ele>
<time>2025-12-29T10:40:13.993Z</time>
</trkpt>
<trkpt lat="30.9287600" lon="35.2701300">
<ele>-198.210007</ele>
<time>2025-12-29T10:40:13.993Z</time>
</trkpt>
<trkpt lat="30.9287400" lon="35.2702200">
<ele>-197.360016</ele>
<time>2025-12-29T10:40:13.993Z</time>
</trkpt>
<trkpt lat="30.9287400" lon="35.2704100">
<ele>-198.699997</ele>
<time>2025-12-29T10:40:13.993Z</time>
</trkpt>
<trkpt lat="30.9287600" lon="35.2706600">
<ele>-198.989990</ele>
<time>2025-12-29T10:40:13.993Z</time>
</trkpt>
<trkpt lat="30.9287100" lon="35.2709400">
<ele>-193.710007</ele>
<time>2025-12-29T10:40:13.993Z</time>
</trkpt>
<trkpt lat="30.9287900" lon="35.2712500">
<ele>-195.339996</ele>
<time>2025-12-29T10:40:13.993Z</time>
</trkpt>
<trkpt lat="30.9287800" lon="35.2715900">
<ele>-190.039993</ele>
<time>2025-12-29T10:40:13.993Z</time>
</trkpt>
<trkpt lat="30.9287200" lon="35.2716700">
<ele>-184.389984</ele>
<time>2025-12-29T10:40:13.993Z</time>
</trkpt>
<trkpt lat="30.9285600" lon="35.2718100">
<ele>-173.779999</ele>
<time>2025-12-29T10:40:13.993Z</time>
</trkpt>
<trkpt lat="30.9285300" lon="35.2718300">
<ele>-173.119995</ele>
<time>2025-12-29T10:40:13.993Z</time>
</trkpt>
<trkpt lat="30.9284700" lon="35.2718400">
<ele>-172.290009</ele>
<time>2025-12-29T10:40:13.993Z</time>
</trkpt>
<trkpt lat="30.9282500" lon="35.2717500">
<ele>-172.690002</ele>
<time>2025-12-29T10:40:13.993Z</time>
</trkpt>
<trkpt lat="30.9280000" lon="35.2718000">
<ele>-176.220001</ele>
<time>2025-12-29T10:40:13.993Z</time>
</trkpt>
<trkpt lat="30.9275100" lon="35.2717800">
<ele>-179.959991</ele>
<time>2025-12-29T10:40:13.993Z</time>
</trkpt>
<trkpt lat="30.9273900" lon="35.2718000">
<ele>-180.400009</ele>
<time>2025-12-29T10:40:13.993Z</time>
</trkpt>
<trkpt lat="30.9271300" lon="35.2718200">
<ele>-180.369995</ele>
<time>2025-12-29T10:40:13.993Z</time>
</trkpt>
<trkpt lat="30.9267400" lon="35.2718900">
<ele>-173.720001</ele>
<time>2025-12-29T10:40:13.993Z</time>
</trkpt>
<trkpt lat="30.9262400" lon="35.2719200">
<ele>-168.919998</ele>
<time>2025-12-29T10:40:13.993Z</time>
</trkpt>
<trkpt lat="30.9255200" lon="35.2720100">
<ele>-162.699997</ele>
<time>2025-12-29T10:40:13.993Z</time>
</trkpt>
<trkpt lat="30.9252800" lon="35.2720100">
<ele>-157.110001</ele>
<time>2025-12-29T10:40:13.993Z</time>
</trkpt>
<trkpt lat="30.9249600" lon="35.2719700">
<ele>-151.320007</ele>
<time>2025-12-29T10:40:13.993Z</time>
</trkpt>
<trkpt lat="30.9247300" lon="35.2719700">
<ele>-150.570007</ele>
<time>2025-12-29T10:40:13.993Z</time>
</trkpt>
<trkpt lat="30.9246100" lon="35.2719800">
<ele>-150.009995</ele>
<time>2025-12-29T10:40:13.993Z</time>
</trkpt>
<trkpt lat="30.9242000" lon="35.2720900">
<ele>-149.709991</ele>
<time>2025-12-29T10:40:13.993Z</time>
</trkpt>
<trkpt lat="30.9240800" lon="35.2721500">
<ele>-152.319992</ele>
<time>2025-12-29T10:40:13.993Z</time>
</trkpt>
<trkpt lat="30.9239700" lon="35.2722400">
<ele>-156.059998</ele>
<time>2025-12-29T10:40:13.993Z</time>
</trkpt>
<trkpt lat="30.9237500" lon="35.2724700">
<ele>-161.449997</ele>
<time>2025-12-29T10:40:13.993Z</time>
</trkpt>
<trkpt lat="30.9235100" lon="35.2728400">
<ele>-163.799988</ele>
<time>2025-12-29T10:40:13.993Z</time>
</trkpt>
<trkpt lat="30.9232200" lon="35.2731700">
<ele>-166.960007</ele>
<time>2025-12-29T10:40:13.993Z</time>
</trkpt>
<trkpt lat="30.9227800" lon="35.2735800">
<ele>-170.750000</ele>
<time>2025-12-29T10:40:13.993Z</time>
</trkpt>
<trkpt lat="30.9224700" lon="35.2737500">
<ele>-174.000000</ele>
<time>2025-12-29T10:40:13.993Z</time>
</trkpt>
<trkpt lat="30.9223400" lon="35.2738600">
<ele>-173.660004</ele>
<time>2025-12-29T10:40:13.993Z</time>
</trkpt>
<trkpt lat="30.9216400" lon="35.2746700">
<ele>-179.100006</ele>
<time>2025-12-29T10:40:13.993Z</time>
</trkpt>
<trkpt lat="30.9213100" lon="35.2750000">
<ele>-182.849991</ele>
<time>2025-12-29T10:40:13.993Z</time>
</trkpt>
<trkpt lat="30.9212000" lon="35.2751500">
<ele>-183.669998</ele>
<time>2025-12-29T10:40:13.993Z</time>
</trkpt>
<trkpt lat="30.9211600" lon="35.2752400">
<ele>-183.759995</ele>
<time>2025-12-29T10:40:13.993Z</time>
</trkpt>
<trkpt lat="30.9211300" lon="35.2754500">
<ele>-183.949997</ele>
<time>2025-12-29T10:40:13.993Z</time>
</trkpt>
<trkpt lat="30.9210900" lon="35.2762100">
<ele>-185.099991</ele>
<time>2025-12-29T10:40:13.993Z</time>
</trkpt>
<trkpt lat="30.9210600" lon="35.2764300">
<ele>-185.520004</ele>
<time>2025-12-29T10:40:13.993Z</time>
</trkpt>
<trkpt lat="30.9209800" lon="35.2767600">
<ele>-187.620010</ele>
<time>2025-12-29T10:40:13.993Z</time>
</trkpt>
<trkpt lat="30.9209600" lon="35.2774800">
<ele>-191.510010</ele>
<time>2025-12-29T10:40:13.993Z</time>
</trkpt>
<trkpt lat="30.9208100" lon="35.2782900">
<ele>-192.990005</ele>
<time>2025-12-29T10:40:13.993Z</time>
</trkpt>
<trkpt lat="30.9207800" lon="35.2784100">
<ele>-193.279999</ele>
<time>2025-12-29T10:40:13.993Z</time>
</trkpt>
<trkpt lat="30.9207800" lon="35.2787600">
<ele>-194.740005</ele>
<time>2025-12-29T10:40:13.993Z</time>
</trkpt>
<trkpt lat="30.9207700" lon="35.2788500">
<ele>-195.250000</ele>
<time>2025-12-29T10:40:13.993Z</time>
</trkpt>
<trkpt lat="30.9207200" lon="35.2788800">
<ele>-195.759995</ele>
<time>2025-12-29T10:40:13.993Z</time>
</trkpt>
<trkpt lat="30.9206500" lon="35.2789300">
<ele>-196.269989</ele>
<time>2025-12-29T10:40:13.993Z</time>
</trkpt>
<trkpt lat="30.9204400" lon="35.2790100">
<ele>-196.509995</ele>
<time>2025-12-29T10:40:13.993Z</time>
</trkpt>
<trkpt lat="30.9207300" lon="35.2799600">
<ele>-191.649994</ele>
<time>2025-12-29T10:40:13.993Z</time>
</trkpt>
<trkpt lat="30.9210900" lon="35.2806800">
<ele>-192.589996</ele>
<time>2025-12-29T10:40:13.993Z</time>
</trkpt>
<trkpt lat="30.9210800" lon="35.2806900">
<ele>-192.569992</ele>
<time>2025-12-29T10:40:13.993Z</time>
</trkpt>
<trkpt lat="30.9210800" lon="35.2806900">
<ele>-192.569992</ele>
<time>2025-12-29T10:40:13.993Z</time>
</trkpt>
<trkpt lat="30.9210900" lon="35.2806800">
<ele>-192.589996</ele>
<time>2025-12-29T10:40:13.993Z</time>
</trkpt>
<trkpt lat="30.9212900" lon="35.2810900">
<ele>-192.330002</ele>
<time>2025-12-29T10:40:13.993Z</time>
</trkpt>
<trkpt lat="30.9213500" lon="35.2812600">
<ele>-191.680008</ele>
<time>2025-12-29T10:40:13.993Z</time>
</trkpt>
<trkpt lat="30.9215300" lon="35.2816400">
<ele>-189.480011</ele>
<time>2025-12-29T10:40:13.993Z</time>
</trkpt>
<trkpt lat="30.9217300" lon="35.2822100">
<ele>-187.529999</ele>
<time>2025-12-29T10:40:13.993Z</time>
</trkpt>
<trkpt lat="30.9220000" lon="35.2828500">
<ele>-187.850006</ele>
<time>2025-12-29T10:40:13.993Z</time>
</trkpt>
<trkpt lat="30.9221300" lon="35.2833000">
<ele>-188.000000</ele>
<time>2025-12-29T10:40:13.993Z</time>
</trkpt>
<trkpt lat="30.9222200" lon="35.2835300">
<ele>-188.710007</ele>
<time>2025-12-29T10:40:13.993Z</time>
</trkpt>
<trkpt lat="30.9223500" lon="35.2838100">
<ele>-190.429993</ele>
<time>2025-12-29T10:40:13.993Z</time>
</trkpt>
<trkpt lat="30.9227400" lon="35.2843200">
<ele>-193.990005</ele>
<time>2025-12-29T10:40:13.993Z</time>
</trkpt>
<trkpt lat="30.9228500" lon="35.2845100">
<ele>-195.069992</ele>
<time>2025-12-29T10:40:13.993Z</time>
</trkpt>
<trkpt lat="30.9229100" lon="35.2846300">
<ele>-196.020004</ele>
<time>2025-12-29T10:40:13.993Z</time>
</trkpt>
<trkpt lat="30.9229700" lon="35.2848800">
<ele>-198.309998</ele>
<time>2025-12-29T10:40:13.993Z</time>
</trkpt>
<trkpt lat="30.9229600" lon="35.2852600">
<ele>-201.539993</ele>
<time>2025-12-29T10:40:13.993Z</time>
</trkpt>
<trkpt lat="30.9228900" lon="35.2855600">
<ele>-203.800003</ele>
<time>2025-12-29T10:40:13.993Z</time>
</trkpt>
<trkpt lat="30.9228600" lon="35.2857300">
<ele>-204.550003</ele>
<time>2025-12-29T10:40:13.993Z</time>
</trkpt>
<trkpt lat="30.9228800" lon="35.2858200">
<ele>-204.500000</ele>
<time>2025-12-29T10:40:13.993Z</time>
</trkpt>
<trkpt lat="30.9228600" lon="35.2859700">
<ele>-205.109985</ele>
<time>2025-12-29T10:40:13.993Z</time>
</trkpt>
<trkpt lat="30.9226100" lon="35.2864600">
<ele>-205.800003</ele>
<time>2025-12-29T10:40:13.993Z</time>
</trkpt>
<trkpt lat="30.9224500" lon="35.2867200">
<ele>-204.990005</ele>
<time>2025-12-29T10:40:13.993Z</time>
</trkpt>
<trkpt lat="30.9224000" lon="35.2868300">
<ele>-204.769989</ele>
<time>2025-12-29T10:40:13.993Z</time>
</trkpt>
<trkpt lat="30.9224000" lon="35.2869100">
<ele>-204.479996</ele>
<time>2025-12-29T10:40:13.993Z</time>
</trkpt>
<trkpt lat="30.9224500" lon="35.2876100">
<ele>-206.830002</ele>
<time>2025-12-29T10:40:13.993Z</time>
</trkpt>
<trkpt lat="30.9224400" lon="35.2877400">
<ele>-207.480011</ele>
<time>2025-12-29T10:40:13.993Z</time>
</trkpt>
<trkpt lat="30.9224100" lon="35.2878100">
<ele>-208.089996</ele>
<time>2025-12-29T10:40:13.993Z</time>
</trkpt>
<trkpt lat="30.9223100" lon="35.2880000">
<ele>-209.850006</ele>
<time>2025-12-29T10:40:13.993Z</time>
</trkpt>
<trkpt lat="30.9222900" lon="35.2880900">
<ele>-210.360001</ele>
<time>2025-12-29T10:40:13.993Z</time>
</trkpt>
<trkpt lat="30.9222900" lon="35.2881300">
<ele>-210.470001</ele>
<time>2025-12-29T10:40:13.993Z</time>
</trkpt>
<trkpt lat="30.9222900" lon="35.2881300">
<ele>-210.470001</ele>
<time>2025-12-29T10:40:13.993Z</time>
</trkpt>
<trkpt lat="30.9222900" lon="35.2882400">
<ele>-210.770004</ele>
<time>2025-12-29T10:40:13.993Z</time>
</trkpt>
<trkpt lat="30.9223200" lon="35.2884600">
<ele>-210.589996</ele>
<time>2025-12-29T10:40:13.993Z</time>
</trkpt>
<trkpt lat="30.9223200" lon="35.2887100">
<ele>-210.589996</ele>
<time>2025-12-29T10:40:13.993Z</time>
</trkpt>
<trkpt lat="30.9222900" lon="35.2888500">
<ele>-211.019989</ele>
<time>2025-12-29T10:40:13.993Z</time>
</trkpt>
<trkpt lat="30.9221600" lon="35.2892800">
<ele>-210.909988</ele>
<time>2025-12-29T10:40:13.993Z</time>
</trkpt>
<trkpt lat="30.9220700" lon="35.2897900">
<ele>-209.949997</ele>
<time>2025-12-29T10:40:13.993Z</time>
</trkpt>
<trkpt lat="30.9220000" lon="35.2899400">
<ele>-210.419998</ele>
<time>2025-12-29T10:40:13.993Z</time>
</trkpt>
<trkpt lat="30.9217800" lon="35.2902600">
<ele>-212.740005</ele>
<time>2025-12-29T10:40:13.993Z</time>
</trkpt>
<trkpt lat="30.9216600" lon="35.2904900">
<ele>-213.960007</ele>
<time>2025-12-29T10:40:13.993Z</time>
</trkpt>
<trkpt lat="30.9216000" lon="35.2906600">
<ele>-213.849991</ele>
<time>2025-12-29T10:40:13.993Z</time>
</trkpt>
<trkpt lat="30.9213400" lon="35.2915800">
<ele>-210.710007</ele>
<time>2025-12-29T10:40:13.993Z</time>
</trkpt>
<trkpt lat="30.9213200" lon="35.2917400">
<ele>-209.490005</ele>
<time>2025-12-29T10:40:13.993Z</time>
</trkpt>
<trkpt lat="30.9213200" lon="35.2918800">
<ele>-208.980011</ele>
<time>2025-12-29T10:40:13.993Z</time>
</trkpt>
<trkpt lat="30.9213600" lon="35.2921300">
<ele>-208.830002</ele>
<time>2025-12-29T10:40:13.993Z</time>
</trkpt>
<trkpt lat="30.9214000" lon="35.2922600">
<ele>-209.040009</ele>
<time>2025-12-29T10:40:13.993Z</time>
</trkpt>
<trkpt lat="30.9215200" lon="35.2924400">
<ele>-209.470001</ele>
<time>2025-12-29T10:40:13.993Z</time>
</trkpt>
<trkpt lat="30.9216800" lon="35.2926400">
<ele>-210.699997</ele>
<time>2025-12-29T10:40:13.993Z</time>
</trkpt>
<trkpt lat="30.9217800" lon="35.2928000">
<ele>-213.169998</ele>
<time>2025-12-29T10:40:13.993Z</time>
</trkpt>
<trkpt lat="30.9218500" lon="35.2929600">
<ele>-215.180008</ele>
<time>2025-12-29T10:40:13.993Z</time>
</trkpt>
<trkpt lat="30.9219100" lon="35.2930500">
<ele>-216.479996</ele>
<time>2025-12-29T10:40:13.993Z</time>
</trkpt>
<trkpt lat="30.9220400" lon="35.2931400">
<ele>-216.210007</ele>
<time>2025-12-29T10:40:13.993Z</time>
</trkpt>
<trkpt lat="30.9220900" lon="35.2932300">
<ele>-215.619995</ele>
<time>2025-12-29T10:40:13.993Z</time>
</trkpt>
<trkpt lat="30.9221000" lon="35.2932900">
<ele>-215.409988</ele>
<time>2025-12-29T10:40:13.993Z</time>
</trkpt>
<trkpt lat="30.9220800" lon="35.2934300">
<ele>-214.839996</ele>
<time>2025-12-29T10:40:13.993Z</time>
</trkpt>
<trkpt lat="30.9220200" lon="35.2935300">
<ele>-214.770004</ele>
<time>2025-12-29T10:40:13.993Z</time>
</trkpt>
<trkpt lat="30.9217700" lon="35.2936900">
<ele>-216.490005</ele>
<time>2025-12-29T10:40:13.993Z</time>
</trkpt>
<trkpt lat="30.9215200" lon="35.2939000">
<ele>-217.549988</ele>
<time>2025-12-29T10:40:13.993Z</time>
</trkpt>
<trkpt lat="30.9213500" lon="35.2940200">
<ele>-218.529999</ele>
<time>2025-12-29T10:40:13.993Z</time>
</trkpt>
<trkpt lat="30.9211800" lon="35.2941900">
<ele>-220.419998</ele>
<time>2025-12-29T10:40:13.993Z</time>
</trkpt>
<trkpt lat="30.9209100" lon="35.2943400">
<ele>-219.559998</ele>
<time>2025-12-29T10:40:13.993Z</time>
</trkpt>
<trkpt lat="30.9207500" lon="35.2944800">
<ele>-219.309998</ele>
<time>2025-12-29T10:40:13.993Z</time>
</trkpt>
<trkpt lat="30.9205400" lon="35.2947300">
<ele>-217.970001</ele>
<time>2025-12-29T10:40:13.993Z</time>
</trkpt>
<trkpt lat="30.9204700" lon="35.2948500">
<ele>-218.010010</ele>
<time>2025-12-29T10:40:13.993Z</time>
</trkpt>
<trkpt lat="30.9204600" lon="35.2949300">
<ele>-218.149994</ele>
<time>2025-12-29T10:40:13.993Z</time>
</trkpt>
<trkpt lat="30.9204800" lon="35.2950000">
<ele>-218.460007</ele>
<time>2025-12-29T10:40:13.993Z</time>
</trkpt>
<trkpt lat="30.9205400" lon="35.2950500">
<ele>-219.409988</ele>
<time>2025-12-29T10:40:13.993Z</time>
</trkpt>
<trkpt lat="30.9209300" lon="35.2952400">
<ele>-219.940002</ele>
<time>2025-12-29T10:40:13.993Z</time>
</trkpt>
<trkpt lat="30.9210200" lon="35.2953300">
<ele>-220.029999</ele>
<time>2025-12-29T10:40:13.993Z</time>
</trkpt>
<trkpt lat="30.9210500" lon="35.2954000">
<ele>-220.320007</ele>
<time>2025-12-29T10:40:13.993Z</time>
</trkpt>
<trkpt lat="30.9210800" lon="35.2956600">
<ele>-220.969986</ele>
<time>2025-12-29T10:40:13.993Z</time>
</trkpt>
<trkpt lat="30.9210700" lon="35.2957700">
<ele>-220.869995</ele>
<time>2025-12-29T10:40:13.993Z</time>
</trkpt>
<trkpt lat="30.9210500" lon="35.2959100">
<ele>-220.819992</ele>
<time>2025-12-29T10:40:13.993Z</time>
</trkpt>
<trkpt lat="30.9209500" lon="35.2962400">
<ele>-221.899994</ele>
<time>2025-12-29T10:40:13.993Z</time>
</trkpt>
<trkpt lat="30.9208800" lon="35.2966000">
<ele>-221.899994</ele>
<time>2025-12-29T10:40:13.993Z</time>
</trkpt>
<trkpt lat="30.9208800" lon="35.2967000">
<ele>-221.419998</ele>
<time>2025-12-29T10:40:13.993Z</time>
</trkpt>
<trkpt lat="30.9209900" lon="35.2971100">
<ele>-218.979996</ele>
<time>2025-12-29T10:40:13.993Z</time>
</trkpt>
<trkpt lat="30.9210200" lon="35.2974200">
<ele>-216.819992</ele>
<time>2025-12-29T10:40:13.993Z</time>
</trkpt>
<trkpt lat="30.9211700" lon="35.2978100">
<ele>-217.750000</ele>
<time>2025-12-29T10:40:13.993Z</time>
</trkpt>
<trkpt lat="30.9212800" lon="35.2979900">
<ele>-220.040009</ele>
<time>2025-12-29T10:40:13.993Z</time>
</trkpt>
<trkpt lat="30.9213300" lon="35.2980400">
<ele>-220.660004</ele>
<time>2025-12-29T10:40:13.993Z</time>
</trkpt>
<trkpt lat="30.9215100" lon="35.2981300">
<ele>-220.399994</ele>
<time>2025-12-29T10:40:13.993Z</time>
</trkpt>
<trkpt lat="30.9216200" lon="35.2982200">
<ele>-219.929993</ele>
<time>2025-12-29T10:40:13.993Z</time>
</trkpt>
<trkpt lat="30.9216800" lon="35.2983800">
<ele>-220.020004</ele>
<time>2025-12-29T10:40:13.993Z</time>
</trkpt>
<trkpt lat="30.9217400" lon="35.2986100">
<ele>-219.940002</ele>
<time>2025-12-29T10:40:13.993Z</time>
</trkpt>
<trkpt lat="30.9218500" lon="35.2989700">
<ele>-219.940002</ele>
<time>2025-12-29T10:40:13.993Z</time>
</trkpt>
<trkpt lat="30.9218500" lon="35.2992300">
<ele>-222.039993</ele>
<time>2025-12-29T10:40:13.993Z</time>
</trkpt>
<trkpt lat="30.9218900" lon="35.2994800">
<ele>-224.759995</ele>
<time>2025-12-29T10:40:13.993Z</time>
</trkpt>
<trkpt lat="30.9219100" lon="35.2997900">
<ele>-229.210007</ele>
<time>2025-12-29T10:40:13.993Z</time>
</trkpt>
<trkpt lat="30.9219100" lon="35.2998800">
<ele>-229.820007</ele>
<time>2025-12-29T10:40:13.993Z</time>
</trkpt>
<trkpt lat="30.9217700" lon="35.3004600">
<ele>-227.179993</ele>
<time>2025-12-29T10:40:13.993Z</time>
</trkpt>
<trkpt lat="30.9218000" lon="35.3006100">
<ele>-226.830002</ele>
<time>2025-12-29T10:40:13.993Z</time>
</trkpt>
<trkpt lat="30.9219100" lon="35.3007800">
<ele>-227.799988</ele>
<time>2025-12-29T10:40:13.993Z</time>
</trkpt>
<trkpt lat="30.9219600" lon="35.3008300">
<ele>-228.119995</ele>
<time>2025-12-29T10:40:13.993Z</time>
</trkpt>
<trkpt lat="30.9220400" lon="35.3008300">
<ele>-228.699997</ele>
<time>2025-12-29T10:40:13.993Z</time>
</trkpt>
<trkpt lat="30.9220900" lon="35.3007800">
<ele>-229.240005</ele>
<time>2025-12-29T10:40:13.993Z</time>
</trkpt>
<trkpt lat="30.9221600" lon="35.3006400">
<ele>-230.250000</ele>
<time>2025-12-29T10:40:13.993Z</time>
</trkpt>
<trkpt lat="30.9222200" lon="35.3005900">
<ele>-230.859985</ele>
<time>2025-12-29T10:40:13.993Z</time>
</trkpt>
<trkpt lat="30.9223400" lon="35.3005500">
<ele>-230.160004</ele>
<time>2025-12-29T10:40:13.993Z</time>
</trkpt>
<trkpt lat="30.9227000" lon="35.3005100">
<ele>-227.560013</ele>
<time>2025-12-29T10:40:13.993Z</time>
</trkpt>
<trkpt lat="30.9228300" lon="35.3004800">
<ele>-226.490005</ele>
<time>2025-12-29T10:40:13.993Z</time>
</trkpt>
<trkpt lat="30.9229000" lon="35.3005100">
<ele>-225.750000</ele>
<time>2025-12-29T10:40:13.993Z</time>
</trkpt>
<trkpt lat="30.9229200" lon="35.3005600">
<ele>-225.470001</ele>
<time>2025-12-29T10:40:13.993Z</time>
</trkpt>
<trkpt lat="30.9229200" lon="35.3007900">
<ele>-225.880005</ele>
<time>2025-12-29T10:40:13.993Z</time>
</trkpt>
<trkpt lat="30.9229800" lon="35.3009500">
<ele>-224.860001</ele>
<time>2025-12-29T10:40:13.993Z</time>
</trkpt>
<trkpt lat="30.9230000" lon="35.3010900">
<ele>-224.430008</ele>
<time>2025-12-29T10:40:13.993Z</time>
</trkpt>
<trkpt lat="30.9228600" lon="35.3015200">
<ele>-227.669998</ele>
<time>2025-12-29T10:40:13.993Z</time>
</trkpt>
<trkpt lat="30.9228600" lon="35.3016400">
<ele>-229.089996</ele>
<time>2025-12-29T10:40:13.993Z</time>
</trkpt>
<trkpt lat="30.9228800" lon="35.3017100">
<ele>-229.359985</ele>
<time>2025-12-29T10:40:13.993Z</time>
</trkpt>
<trkpt lat="30.9229300" lon="35.3017700">
<ele>-229.069992</ele>
<time>2025-12-29T10:40:13.993Z</time>
</trkpt>
<trkpt lat="30.9231600" lon="35.3019600">
<ele>-227.320007</ele>
<time>2025-12-29T10:40:13.993Z</time>
</trkpt>
<trkpt lat="30.9232500" lon="35.3020600">
<ele>-226.850006</ele>
<time>2025-12-29T10:40:13.993Z</time>
</trkpt>
<trkpt lat="30.9233100" lon="35.3021900">
<ele>-226.320007</ele>
<time>2025-12-29T10:40:13.993Z</time>
</trkpt>
<trkpt lat="30.9233500" lon="35.3023700">
<ele>-223.139999</ele>
<time>2025-12-29T10:40:13.993Z</time>
</trkpt>
<trkpt lat="30.9233500" lon="35.3025000">
<ele>-220.940002</ele>
<time>2025-12-29T10:40:13.993Z</time>
</trkpt>
<trkpt lat="30.9233100" lon="35.3025800">
<ele>-221.600006</ele>
<time>2025-12-29T10:40:13.993Z</time>
</trkpt>
<trkpt lat="30.9231100" lon="35.3028000">
<ele>-224.990005</ele>
<time>2025-12-29T10:40:13.993Z</time>
</trkpt>
<trkpt lat="30.9230800" lon="35.3028700">
<ele>-225.319992</ele>
<time>2025-12-29T10:40:13.993Z</time>
</trkpt>
<trkpt lat="30.9230200" lon="35.3031100">
<ele>-225.010010</ele>
<time>2025-12-29T10:40:13.993Z</time>
</trkpt>
<trkpt lat="30.9229700" lon="35.3031700">
<ele>-224.950012</ele>
<time>2025-12-29T10:40:13.993Z</time>
</trkpt>
<trkpt lat="30.9228700" lon="35.3032500">
<ele>-224.699997</ele>
<time>2025-12-29T10:40:13.993Z</time>
</trkpt>
<trkpt lat="30.9228300" lon="35.3033100">
<ele>-224.220001</ele>
<time>2025-12-29T10:40:13.993Z</time>
</trkpt>
<trkpt lat="30.9227900" lon="35.3035800">
<ele>-223.069992</ele>
<time>2025-12-29T10:40:13.993Z</time>
</trkpt>
<trkpt lat="30.9226700" lon="35.3037800">
<ele>-223.389999</ele>
<time>2025-12-29T10:40:13.993Z</time>
</trkpt>
<trkpt lat="30.9226100" lon="35.3038500">
<ele>-223.600006</ele>
<time>2025-12-29T10:40:13.993Z</time>
</trkpt>
<trkpt lat="30.9225400" lon="35.3038700">
<ele>-223.859985</ele>
<time>2025-12-29T10:40:13.993Z</time>
</trkpt>
<trkpt lat="30.9224700" lon="35.3038700">
<ele>-224.320007</ele>
<time>2025-12-29T10:40:13.993Z</time>
</trkpt>
<trkpt lat="30.9222400" lon="35.3038300">
<ele>-226.810013</ele>
<time>2025-12-29T10:40:13.993Z</time>
</trkpt>
<trkpt lat="30.9220400" lon="35.3037600">
<ele>-228.010010</ele>
<time>2025-12-29T10:40:13.993Z</time>
</trkpt>
<trkpt lat="30.9219300" lon="35.3037100">
<ele>-228.419998</ele>
<time>2025-12-29T10:40:13.993Z</time>
</trkpt>
<trkpt lat="30.9217900" lon="35.3035500">
<ele>-230.179993</ele>
<time>2025-12-29T10:40:13.993Z</time>
</trkpt>
<trkpt lat="30.9217300" lon="35.3035100">
<ele>-230.929993</ele>
<time>2025-12-29T10:40:13.993Z</time>
</trkpt>
<trkpt lat="30.9216900" lon="35.3035200">
<ele>-231.159988</ele>
<time>2025-12-29T10:40:13.993Z</time>
</trkpt>
<trkpt lat="30.9216300" lon="35.3035600">
<ele>-231.179993</ele>
<time>2025-12-29T10:40:13.993Z</time>
</trkpt>
<trkpt lat="30.9214200" lon="35.3038200">
<ele>-229.330002</ele>
<time>2025-12-29T10:40:13.993Z</time>
</trkpt>
<trkpt lat="30.9213900" lon="35.3038900">
<ele>-229.000000</ele>
<time>2025-12-29T10:40:13.993Z</time>
</trkpt>
<trkpt lat="30.9213800" lon="35.3039700">
<ele>-229.339996</ele>
<time>2025-12-29T10:40:13.993Z</time>
</trkpt>
<trkpt lat="30.9213900" lon="35.3041800">
<ele>-230.049988</ele>
<time>2025-12-29T10:40:13.993Z</time>
</trkpt>
<trkpt lat="30.9213600" lon="35.3042700">
<ele>-230.160004</ele>
<time>2025-12-29T10:40:13.993Z</time>
</trkpt>
<trkpt lat="30.9213300" lon="35.3043200">
<ele>-230.130005</ele>
<time>2025-12-29T10:40:13.993Z</time>
</trkpt>
<trkpt lat="30.9212500" lon="35.3043800">
<ele>-229.769989</ele>
<time>2025-12-29T10:40:13.993Z</time>
</trkpt>
<trkpt lat="30.9210200" lon="35.3045100">
<ele>-229.169998</ele>
<time>2025-12-29T10:40:13.993Z</time>
</trkpt>
<trkpt lat="30.9209500" lon="35.3045800">
<ele>-229.010010</ele>
<time>2025-12-29T10:40:13.993Z</time>
</trkpt>
<trkpt lat="30.9209500" lon="35.3046600">
<ele>-228.679993</ele>
<time>2025-12-29T10:40:13.993Z</time>
</trkpt>
<trkpt lat="30.9209700" lon="35.3047300">
<ele>-228.520004</ele>
<time>2025-12-29T10:40:13.993Z</time>
</trkpt>
<trkpt lat="30.9211400" lon="35.3048900">
<ele>-230.689987</ele>
<time>2025-12-29T10:40:13.993Z</time>
</trkpt>
<trkpt lat="30.9213800" lon="35.3051900">
<ele>-236.570007</ele>
<time>2025-12-29T10:40:13.993Z</time>
</trkpt>
<trkpt lat="30.9214700" lon="35.3052900">
<ele>-236.750000</ele>
<time>2025-12-29T10:40:13.993Z</time>
</trkpt>
<trkpt lat="30.9216600" lon="35.3054400">
<ele>-236.610001</ele>
<time>2025-12-29T10:40:13.993Z</time>
</trkpt>
<trkpt lat="30.9217000" lon="35.3055300">
<ele>-236.429993</ele>
<time>2025-12-29T10:40:13.993Z</time>
</trkpt>
<trkpt lat="30.9217700" lon="35.3058000">
<ele>-235.509995</ele>
<time>2025-12-29T10:40:13.993Z</time>
</trkpt>
<trkpt lat="30.9217900" lon="35.3059400">
<ele>-235.650009</ele>
<time>2025-12-29T10:40:13.993Z</time>
</trkpt>
<trkpt lat="30.9217800" lon="35.3061300">
<ele>-236.440002</ele>
<time>2025-12-29T10:40:13.993Z</time>
</trkpt>
<trkpt lat="30.9217600" lon="35.3061800">
<ele>-236.570007</ele>
<time>2025-12-29T10:40:13.993Z</time>
</trkpt>
<trkpt lat="30.9216700" lon="35.3063100">
<ele>-237.500000</ele>
<time>2025-12-29T10:40:13.993Z</time>
</trkpt>
<trkpt lat="30.9216400" lon="35.3063800">
<ele>-237.349991</ele>
<time>2025-12-29T10:40:13.993Z</time>
</trkpt>
<trkpt lat="30.9216400" lon="35.3066100">
<ele>-235.619995</ele>
<time>2025-12-29T10:40:13.993Z</time>
</trkpt>
<trkpt lat="30.9216100" lon="35.3067600">
<ele>-234.059998</ele>
<time>2025-12-29T10:40:13.993Z</time>
</trkpt>
<trkpt lat="30.9215700" lon="35.3068400">
<ele>-233.199997</ele>
<time>2025-12-29T10:40:13.993Z</time>
</trkpt>
<trkpt lat="30.9215100" lon="35.3069300">
<ele>-232.339996</ele>
<time>2025-12-29T10:40:13.993Z</time>
</trkpt>
<trkpt lat="30.9213000" lon="35.3071100">
<ele>-232.910004</ele>
<time>2025-12-29T10:40:13.993Z</time>
</trkpt>
<trkpt lat="30.9211800" lon="35.3071900">
<ele>-233.529999</ele>
<time>2025-12-29T10:40:13.993Z</time>
</trkpt>
<trkpt lat="30.9211100" lon="35.3072100">
<ele>-234.009995</ele>
<time>2025-12-29T10:40:13.993Z</time>
</trkpt>
<trkpt lat="30.9208800" lon="35.3072100">
<ele>-236.420013</ele>
<time>2025-12-29T10:40:13.993Z</time>
</trkpt>
<trkpt lat="30.9207400" lon="35.3072400">
<ele>-237.649994</ele>
<time>2025-12-29T10:40:13.993Z</time>
</trkpt>
<trkpt lat="30.9206700" lon="35.3073000">
<ele>-238.009995</ele>
<time>2025-12-29T10:40:13.993Z</time>
</trkpt>
<trkpt lat="30.9206300" lon="35.3073800">
<ele>-238.050003</ele>
<time>2025-12-29T10:40:13.993Z</time>
</trkpt>
<trkpt lat="30.9206100" lon="35.3075200">
<ele>-237.570007</ele>
<time>2025-12-29T10:40:13.993Z</time>
</trkpt>
<trkpt lat="30.9206300" lon="35.3076200">
<ele>-236.470001</ele>
<time>2025-12-29T10:40:13.993Z</time>
</trkpt>
<trkpt lat="30.9206700" lon="35.3076900">
<ele>-235.979996</ele>
<time>2025-12-29T10:40:13.993Z</time>
</trkpt>
<trkpt lat="30.9207500" lon="35.3077800">
<ele>-236.089996</ele>
<time>2025-12-29T10:40:13.993Z</time>
</trkpt>
<trkpt lat="30.9210500" lon="35.3080500">
<ele>-236.580002</ele>
<time>2025-12-29T10:40:13.993Z</time>
</trkpt>
<trkpt lat="30.9212000" lon="35.3081100">
<ele>-237.239990</ele>
<time>2025-12-29T10:40:13.993Z</time>
</trkpt>
<trkpt lat="30.9212800" lon="35.3081000">
<ele>-238.029999</ele>
<time>2025-12-29T10:40:13.993Z</time>
</trkpt>
<trkpt lat="30.9214700" lon="35.3080300">
<ele>-238.499985</ele>
<time>2025-12-29T10:40:13.993Z</time>
</trkpt>
<trkpt lat="30.9215400" lon="35.3080500">
<ele>-238.410004</ele>
<time>2025-12-29T10:40:13.993Z</time>
</trkpt>
<trkpt lat="30.9216100" lon="35.3081800">
<ele>-238.919998</ele>
<time>2025-12-29T10:40:13.993Z</time>
</trkpt>
<trkpt lat="30.9217200" lon="35.3083600">
<ele>-240.139999</ele>
<time>2025-12-29T10:40:13.993Z</time>
</trkpt>
<trkpt lat="30.9217600" lon="35.3084900">
<ele>-240.559998</ele>
<time>2025-12-29T10:40:13.993Z</time>
</trkpt>
<trkpt lat="30.9217700" lon="35.3085700">
<ele>-240.750000</ele>
<time>2025-12-29T10:40:13.993Z</time>
</trkpt>
<trkpt lat="30.9216700" lon="35.3091000">
<ele>-237.940002</ele>
<time>2025-12-29T10:40:13.993Z</time>
</trkpt>
<trkpt lat="30.9216400" lon="35.3094300">
<ele>-235.289993</ele>
<time>2025-12-29T10:40:13.993Z</time>
</trkpt>
<trkpt lat="30.9216400" lon="35.3095400">
<ele>-234.440002</ele>
<time>2025-12-29T10:40:13.993Z</time>
</trkpt>
<trkpt lat="30.9216600" lon="35.3096700">
<ele>-233.389999</ele>
<time>2025-12-29T10:40:13.993Z</time>
</trkpt>
<trkpt lat="30.9217000" lon="35.3097500">
<ele>-233.029999</ele>
<time>2025-12-29T10:40:13.993Z</time>
</trkpt>
<trkpt lat="30.9218500" lon="35.3099400">
<ele>-233.389999</ele>
<time>2025-12-29T10:40:13.993Z</time>
</trkpt>
<trkpt lat="30.9220400" lon="35.3101400">
<ele>-236.400009</ele>
<time>2025-12-29T10:40:13.993Z</time>
</trkpt>
<trkpt lat="30.9221900" lon="35.3103400">
<ele>-239.959991</ele>
<time>2025-12-29T10:40:13.993Z</time>
</trkpt>
<trkpt lat="30.9222500" lon="35.3103900">
<ele>-239.890015</ele>
<time>2025-12-29T10:40:13.993Z</time>
</trkpt>
<trkpt lat="30.9223200" lon="35.3104100">
<ele>-238.990005</ele>
<time>2025-12-29T10:40:13.993Z</time>
</trkpt>
<trkpt lat="30.9225300" lon="35.3104400">
<ele>-236.680008</ele>
<time>2025-12-29T10:40:13.993Z</time>
</trkpt>
<trkpt lat="30.9226200" lon="35.3105000">
<ele>-235.880005</ele>
<time>2025-12-29T10:40:13.993Z</time>
</trkpt>
<trkpt lat="30.9226600" lon="35.3105500">
<ele>-235.449997</ele>
<time>2025-12-29T10:40:13.993Z</time>
</trkpt>
<trkpt lat="30.9226800" lon="35.3106300">
<ele>-235.430008</ele>
<time>2025-12-29T10:40:13.993Z</time>
</trkpt>
<trkpt lat="30.9226700" lon="35.3106700">
<ele>-235.480011</ele>
<time>2025-12-29T10:40:13.993Z</time>
</trkpt>
<trkpt lat="30.9226300" lon="35.3107400">
<ele>-235.490005</ele>
<time>2025-12-29T10:40:13.993Z</time>
</trkpt>
<trkpt lat="30.9224200" lon="35.3110100">
<ele>-236.559998</ele>
<time>2025-12-29T10:40:13.993Z</time>
</trkpt>
<trkpt lat="30.9220900" lon="35.3112300">
<ele>-237.859985</ele>
<time>2025-12-29T10:40:13.993Z</time>
</trkpt>
<trkpt lat="30.9219600" lon="35.3112500">
<ele>-238.000000</ele>
<time>2025-12-29T10:40:13.993Z</time>
</trkpt>
<trkpt lat="30.9217000" lon="35.3112200">
<ele>-240.930008</ele>
<time>2025-12-29T10:40:13.993Z</time>
</trkpt>
<trkpt lat="30.9215000" lon="35.3111200">
<ele>-242.229996</ele>
<time>2025-12-29T10:40:13.993Z</time>
</trkpt>
<trkpt lat="30.9213900" lon="35.3111100">
<ele>-242.990005</ele>
<time>2025-12-29T10:40:13.993Z</time>
</trkpt>
<trkpt lat="30.9213400" lon="35.3111400">
<ele>-242.930008</ele>
<time>2025-12-29T10:40:13.993Z</time>
</trkpt>
<trkpt lat="30.9212400" lon="35.3112500">
<ele>-242.959991</ele>
<time>2025-12-29T10:40:13.993Z</time>
</trkpt>
<trkpt lat="30.9211700" lon="35.3113600">
<ele>-243.110001</ele>
<time>2025-12-29T10:40:13.993Z</time>
</trkpt>
<trkpt lat="30.9211300" lon="35.3114600">
<ele>-242.849991</ele>
<time>2025-12-29T10:40:13.993Z</time>
</trkpt>
<trkpt lat="30.9211200" lon="35.3116100">
<ele>-242.289993</ele>
<time>2025-12-29T10:40:13.993Z</time>
</trkpt>
<trkpt lat="30.9211400" lon="35.3117900">
<ele>-241.869995</ele>
<time>2025-12-29T10:40:13.993Z</time>
</trkpt>
<trkpt lat="30.9211200" lon="35.3121600">
<ele>-241.150009</ele>
<time>2025-12-29T10:40:13.993Z</time>
</trkpt>
<trkpt lat="30.9211400" lon="35.3123200">
<ele>-241.839996</ele>
<time>2025-12-29T10:40:13.993Z</time>
</trkpt>
<trkpt lat="30.9211800" lon="35.3124400">
<ele>-242.830002</ele>
<time>2025-12-29T10:40:13.993Z</time>
</trkpt>
<trkpt lat="30.9212800" lon="35.3125100">
<ele>-244.409988</ele>
<time>2025-12-29T10:40:13.993Z</time>
</trkpt>
<trkpt lat="30.9214400" lon="35.3125800">
<ele>-245.840012</ele>
<time>2025-12-29T10:40:13.993Z</time>
</trkpt>
<trkpt lat="30.9216900" lon="35.3130700">
<ele>-242.940002</ele>
<time>2025-12-29T10:40:13.993Z</time>
</trkpt>
<trkpt lat="30.9218900" lon="35.3134800">
<ele>-241.300003</ele>
<time>2025-12-29T10:40:13.993Z</time>
</trkpt>
<trkpt lat="30.9219100" lon="35.3135600">
<ele>-241.229996</ele>
<time>2025-12-29T10:40:13.993Z</time>
</trkpt>
<trkpt lat="30.9219100" lon="35.3136900">
<ele>-242.240005</ele>
<time>2025-12-29T10:40:13.993Z</time>
</trkpt>
<trkpt lat="30.9219000" lon="35.3137700">
<ele>-243.240005</ele>
<time>2025-12-29T10:40:13.993Z</time>
</trkpt>
<trkpt lat="30.9218600" lon="35.3138500">
<ele>-244.000015</ele>
<time>2025-12-29T10:40:13.993Z</time>
</trkpt>
<trkpt lat="30.9217600" lon="35.3141800">
<ele>-244.660004</ele>
<time>2025-12-29T10:40:13.993Z</time>
</trkpt>
<trkpt lat="30.9215300" lon="35.3142100">
<ele>-243.580002</ele>
<time>2025-12-29T10:40:13.993Z</time>
</trkpt>
<trkpt lat="30.9214900" lon="35.3142900">
<ele>-243.650009</ele>
<time>2025-12-29T10:40:13.993Z</time>
</trkpt>
<trkpt lat="30.9214100" lon="35.3145600">
<ele>-244.800003</ele>
<time>2025-12-29T10:40:13.993Z</time>
</trkpt>
<trkpt lat="30.9214000" lon="35.3146400">
<ele>-245.380005</ele>
<time>2025-12-29T10:40:13.993Z</time>
</trkpt>
<trkpt lat="30.9214100" lon="35.3149800">
<ele>-245.849991</ele>
<time>2025-12-29T10:40:13.993Z</time>
</trkpt>
<trkpt lat="30.9215100" lon="35.3152700">
<ele>-243.180008</ele>
<time>2025-12-29T10:40:13.993Z</time>
</trkpt>
<trkpt lat="30.9215300" lon="35.3154000">
<ele>-242.540009</ele>
<time>2025-12-29T10:40:13.993Z</time>
</trkpt>
<trkpt lat="30.9215100" lon="35.3154900">
<ele>-242.459991</ele>
<time>2025-12-29T10:40:13.993Z</time>
</trkpt>
<trkpt lat="30.9214800" lon="35.3155600">
<ele>-242.690002</ele>
<time>2025-12-29T10:40:13.993Z</time>
</trkpt>
<trkpt lat="30.9213600" lon="35.3156900">
<ele>-244.470001</ele>
<time>2025-12-29T10:40:13.993Z</time>
</trkpt>
<trkpt lat="30.9212300" lon="35.3157400">
<ele>-246.669998</ele>
<time>2025-12-29T10:40:13.993Z</time>
</trkpt>
<trkpt lat="30.9208900" lon="35.3158000">
<ele>-250.279999</ele>
<time>2025-12-29T10:40:13.993Z</time>
</trkpt>
<trkpt lat="30.9207400" lon="35.3158900">
<ele>-249.650009</ele>
<time>2025-12-29T10:40:13.993Z</time>
</trkpt>
<trkpt lat="30.9206500" lon="35.3160400">
<ele>-248.020004</ele>
<time>2025-12-29T10:40:13.993Z</time>
</trkpt>
<trkpt lat="30.9205400" lon="35.3163000">
<ele>-246.869995</ele>
<time>2025-12-29T10:40:13.993Z</time>
</trkpt>
<trkpt lat="30.9204400" lon="35.3164300">
<ele>-245.670013</ele>
<time>2025-12-29T10:40:13.993Z</time>
</trkpt>
<trkpt lat="30.9202900" lon="35.3165800">
<ele>-244.100006</ele>
<time>2025-12-29T10:40:13.993Z</time>
</trkpt>
<trkpt lat="30.9200500" lon="35.3170300">
<ele>-248.380005</ele>
<time>2025-12-29T10:40:13.993Z</time>
</trkpt>
<trkpt lat="30.9199700" lon="35.3171100">
<ele>-249.900009</ele>
<time>2025-12-29T10:40:13.993Z</time>
</trkpt>
<trkpt lat="30.9198700" lon="35.3171800">
<ele>-251.009995</ele>
<time>2025-12-29T10:40:13.993Z</time>
</trkpt>
<trkpt lat="30.9196500" lon="35.3172700">
<ele>-251.649994</ele>
<time>2025-12-29T10:40:13.993Z</time>
</trkpt>
<trkpt lat="30.9196100" lon="35.3173100">
<ele>-251.340012</ele>
<time>2025-12-29T10:40:13.993Z</time>
</trkpt>
<trkpt lat="30.9195700" lon="35.3173800">
<ele>-250.829987</ele>
<time>2025-12-29T10:40:13.993Z</time>
</trkpt>
<trkpt lat="30.9195600" lon="35.3175000">
<ele>-250.250015</ele>
<time>2025-12-29T10:40:13.993Z</time>
</trkpt>
<trkpt lat="30.9196300" lon="35.3177300">
<ele>-250.180008</ele>
<time>2025-12-29T10:40:13.993Z</time>
</trkpt>
<trkpt lat="30.9197100" lon="35.3178400">
<ele>-250.880005</ele>
<time>2025-12-29T10:40:13.993Z</time>
</trkpt>
<trkpt lat="30.9199400" lon="35.3180600">
<ele>-254.910004</ele>
<time>2025-12-29T10:40:13.993Z</time>
</trkpt>
<trkpt lat="30.9201900" lon="35.3184000">
<ele>-255.459991</ele>
<time>2025-12-29T10:40:13.993Z</time>
</trkpt>
<trkpt lat="30.9204400" lon="35.3186500">
<ele>-254.309998</ele>
<time>2025-12-29T10:40:13.993Z</time>
</trkpt>
<trkpt lat="30.9206200" lon="35.3189300">
<ele>-252.070007</ele>
<time>2025-12-29T10:40:13.993Z</time>
</trkpt>
<trkpt lat="30.9207400" lon="35.3191800">
<ele>-250.339996</ele>
<time>2025-12-29T10:40:13.993Z</time>
</trkpt>
<trkpt lat="30.9207300" lon="35.3193800">
<ele>-250.489990</ele>
<time>2025-12-29T10:40:13.993Z</time>
</trkpt>
<trkpt lat="30.9207000" lon="35.3194900">
<ele>-250.919998</ele>
<time>2025-12-29T10:40:13.993Z</time>
</trkpt>
<trkpt lat="30.9206100" lon="35.3197200">
<ele>-252.219986</ele>
<time>2025-12-29T10:40:13.993Z</time>
</trkpt>
<trkpt lat="30.9203100" lon="35.3201200">
<ele>-257.919983</ele>
<time>2025-12-29T10:40:13.993Z</time>
</trkpt>
<trkpt lat="30.9202700" lon="35.3204100">
<ele>-257.359985</ele>
<time>2025-12-29T10:40:13.993Z</time>
</trkpt>
<trkpt lat="30.9201600" lon="35.3208200">
<ele>-253.910004</ele>
<time>2025-12-29T10:40:13.993Z</time>
</trkpt>
<trkpt lat="30.9201500" lon="35.3210500">
<ele>-254.120010</ele>
<time>2025-12-29T10:40:13.993Z</time>
</trkpt>
<trkpt lat="30.9201800" lon="35.3213100">
<ele>-255.349991</ele>
<time>2025-12-29T10:40:13.993Z</time>
</trkpt>
<trkpt lat="30.9202000" lon="35.3214300">
<ele>-255.960007</ele>
<time>2025-12-29T10:40:13.993Z</time>
</trkpt>
<trkpt lat="30.9202700" lon="35.3216200">
<ele>-257.760010</ele>
<time>2025-12-29T10:40:13.993Z</time>
</trkpt>
<trkpt lat="30.9202900" lon="35.3217500">
<ele>-257.750000</ele>
<time>2025-12-29T10:40:13.993Z</time>
</trkpt>
<trkpt lat="30.9202900" lon="35.3218600">
<ele>-257.429993</ele>
<time>2025-12-29T10:40:13.993Z</time>
</trkpt>
<trkpt lat="30.9201600" lon="35.3221700">
<ele>-250.199997</ele>
<time>2025-12-29T10:40:13.993Z</time>
</trkpt>
<trkpt lat="30.9201500" lon="35.3223700">
<ele>-247.389999</ele>
<time>2025-12-29T10:40:13.993Z</time>
</trkpt>
<trkpt lat="30.9201700" lon="35.3224300">
<ele>-247.029999</ele>
<time>2025-12-29T10:40:13.993Z</time>
</trkpt>
<trkpt lat="30.9202400" lon="35.3225100">
<ele>-247.259995</ele>
<time>2025-12-29T10:40:13.993Z</time>
</trkpt>
<trkpt lat="30.9203500" lon="35.3226000">
<ele>-249.269989</ele>
<time>2025-12-29T10:40:13.993Z</time>
</trkpt>
<trkpt lat="30.9206700" lon="35.3227600">
<ele>-253.630005</ele>
<time>2025-12-29T10:40:13.993Z</time>
</trkpt>
<trkpt lat="30.9207900" lon="35.3227900">
<ele>-253.710007</ele>
<time>2025-12-29T10:40:13.993Z</time>
</trkpt>
<trkpt lat="30.9211000" lon="35.3228100">
<ele>-253.869995</ele>
<time>2025-12-29T10:40:13.993Z</time>
</trkpt>
<trkpt lat="30.9217100" lon="35.3225800">
<ele>-259.710022</ele>
<time>2025-12-29T10:40:13.993Z</time>
</trkpt>
<trkpt lat="30.9218500" lon="35.3225700">
<ele>-259.750000</ele>
<time>2025-12-29T10:40:13.993Z</time>
</trkpt>
<trkpt lat="30.9220800" lon="35.3226200">
<ele>-258.459991</ele>
<time>2025-12-29T10:40:13.993Z</time>
</trkpt>
<trkpt lat="30.9223800" lon="35.3227500">
<ele>-257.619995</ele>
<time>2025-12-29T10:40:13.993Z</time>
</trkpt>
<trkpt lat="30.9225000" lon="35.3227600">
<ele>-256.869995</ele>
<time>2025-12-29T10:40:13.993Z</time>
</trkpt>
<trkpt lat="30.9227800" lon="35.3226900">
<ele>-256.670013</ele>
<time>2025-12-29T10:40:13.993Z</time>
</trkpt>
<trkpt lat="30.9228700" lon="35.3227100">
<ele>-256.339996</ele>
<time>2025-12-29T10:40:13.993Z</time>
</trkpt>
<trkpt lat="30.9229100" lon="35.3227500">
<ele>-256.380005</ele>
<time>2025-12-29T10:40:13.993Z</time>
</trkpt>
<trkpt lat="30.9229500" lon="35.3228200">
<ele>-256.380005</ele>
<time>2025-12-29T10:40:13.993Z</time>
</trkpt>
<trkpt lat="30.9229500" lon="35.3228900">
<ele>-256.380005</ele>
<time>2025-12-29T10:40:13.993Z</time>
</trkpt>
<trkpt lat="30.9229400" lon="35.3230600">
<ele>-256.440002</ele>
<time>2025-12-29T10:40:13.993Z</time>
</trkpt>
<trkpt lat="30.9229600" lon="35.3233900">
<ele>-257.800018</ele>
<time>2025-12-29T10:40:13.993Z</time>
</trkpt>
<trkpt lat="30.9230400" lon="35.3237500">
<ele>-256.029999</ele>
<time>2025-12-29T10:40:13.993Z</time>
</trkpt>
<trkpt lat="30.9231700" lon="35.3241500">
<ele>-254.610001</ele>
<time>2025-12-29T10:40:13.993Z</time>
</trkpt>
<trkpt lat="30.9231700" lon="35.3242900">
<ele>-253.699997</ele>
<time>2025-12-29T10:40:13.993Z</time>
</trkpt>
<trkpt lat="30.9231000" lon="35.3244100">
<ele>-253.089996</ele>
<time>2025-12-29T10:40:13.993Z</time>
</trkpt>
<trkpt lat="30.9230200" lon="35.3244400">
<ele>-253.160004</ele>
<time>2025-12-29T10:40:13.993Z</time>
</trkpt>
<trkpt lat="30.9228300" lon="35.3244100">
<ele>-254.060013</ele>
<time>2025-12-29T10:40:13.993Z</time>
</trkpt>
<trkpt lat="30.9226300" lon="35.3244100">
<ele>-253.119995</ele>
<time>2025-12-29T10:40:13.993Z</time>
</trkpt>
<trkpt lat="30.9223300" lon="35.3245000">
<ele>-251.220001</ele>
<time>2025-12-29T10:40:13.993Z</time>
</trkpt>
<trkpt lat="30.9222200" lon="35.3245500">
<ele>-250.250015</ele>
<time>2025-12-29T10:40:13.993Z</time>
</trkpt>
<trkpt lat="30.9221700" lon="35.3246100">
<ele>-250.000000</ele>
<time>2025-12-29T10:40:13.993Z</time>
</trkpt>
<trkpt lat="30.9221400" lon="35.3246800">
<ele>-249.600006</ele>
<time>2025-12-29T10:40:13.993Z</time>
</trkpt>
<trkpt lat="30.9221300" lon="35.3247500">
<ele>-249.200012</ele>
<time>2025-12-29T10:40:13.993Z</time>
</trkpt>
<trkpt lat="30.9221500" lon="35.3248400">
<ele>-248.730011</ele>
<time>2025-12-29T10:40:13.993Z</time>
</trkpt>
<trkpt lat="30.9222900" lon="35.3251200">
<ele>-249.979996</ele>
<time>2025-12-29T10:40:13.993Z</time>
</trkpt>
<trkpt lat="30.9224000" lon="35.3252300">
<ele>-252.329987</ele>
<time>2025-12-29T10:40:13.993Z</time>
</trkpt>
<trkpt lat="30.9224800" lon="35.3252800">
<ele>-253.719986</ele>
<time>2025-12-29T10:40:13.993Z</time>
</trkpt>
<trkpt lat="30.9225600" lon="35.3253000">
<ele>-254.889999</ele>
<time>2025-12-29T10:40:13.993Z</time>
</trkpt>
<trkpt lat="30.9227600" lon="35.3253300">
<ele>-257.399994</ele>
<time>2025-12-29T10:40:13.993Z</time>
</trkpt>
<trkpt lat="30.9229000" lon="35.3253700">
<ele>-256.459991</ele>
<time>2025-12-29T10:40:13.993Z</time>
</trkpt>
<trkpt lat="30.9229900" lon="35.3254200">
<ele>-255.450012</ele>
<time>2025-12-29T10:40:13.993Z</time>
</trkpt>
<trkpt lat="30.9231100" lon="35.3255100">
<ele>-253.839996</ele>
<time>2025-12-29T10:40:13.993Z</time>
</trkpt>
<trkpt lat="30.9231500" lon="35.3255900">
<ele>-253.240005</ele>
<time>2025-12-29T10:40:13.993Z</time>
</trkpt>
<trkpt lat="30.9231500" lon="35.3256600">
<ele>-253.079987</ele>
<time>2025-12-29T10:40:13.993Z</time>
</trkpt>
<trkpt lat="30.9231400" lon="35.3257100">
<ele>-252.960007</ele>
<time>2025-12-29T10:40:13.993Z</time>
</trkpt>
<trkpt lat="30.9230800" lon="35.3257700">
<ele>-252.550003</ele>
<time>2025-12-29T10:40:13.993Z</time>
</trkpt>
<trkpt lat="30.9229700" lon="35.3258400">
<ele>-251.960007</ele>
<time>2025-12-29T10:40:13.993Z</time>
</trkpt>
<trkpt lat="30.9228700" lon="35.3259300">
<ele>-251.190002</ele>
<time>2025-12-29T10:40:13.993Z</time>
</trkpt>
<trkpt lat="30.9228000" lon="35.3260600">
<ele>-249.679993</ele>
<time>2025-12-29T10:40:13.993Z</time>
</trkpt>
<trkpt lat="30.9227900" lon="35.3262200">
<ele>-248.750000</ele>
<time>2025-12-29T10:40:13.993Z</time>
</trkpt>
<trkpt lat="30.9228300" lon="35.3263700">
<ele>-248.970001</ele>
<time>2025-12-29T10:40:13.993Z</time>
</trkpt>
<trkpt lat="30.9229000" lon="35.3265000">
<ele>-250.650009</ele>
<time>2025-12-29T10:40:13.993Z</time>
</trkpt>
<trkpt lat="30.9233300" lon="35.3269500">
<ele>-256.889984</ele>
<time>2025-12-29T10:40:13.993Z</time>
</trkpt>
<trkpt lat="30.9234400" lon="35.3270500">
<ele>-257.450012</ele>
<time>2025-12-29T10:40:13.993Z</time>
</trkpt>
<trkpt lat="30.9237900" lon="35.3272700">
<ele>-260.410004</ele>
<time>2025-12-29T10:40:13.993Z</time>
</trkpt>
<trkpt lat="30.9239200" lon="35.3273800">
<ele>-259.949982</ele>
<time>2025-12-29T10:40:13.993Z</time>
</trkpt>
<trkpt lat="30.9240700" lon="35.3275300">
<ele>-258.070007</ele>
<time>2025-12-29T10:40:13.993Z</time>
</trkpt>
<trkpt lat="30.9241800" lon="35.3277000">
<ele>-258.369995</ele>
<time>2025-12-29T10:40:13.993Z</time>
</trkpt>
<trkpt lat="30.9243000" lon="35.3280200">
<ele>-258.100006</ele>
<time>2025-12-29T10:40:13.993Z</time>
</trkpt>
<trkpt lat="30.9242900" lon="35.3281500">
<ele>-257.279999</ele>
<time>2025-12-29T10:40:13.993Z</time>
</trkpt>
<trkpt lat="30.9242100" lon="35.3283300">
<ele>-256.559998</ele>
<time>2025-12-29T10:40:13.993Z</time>
</trkpt>
<trkpt lat="30.9241900" lon="35.3283900">
<ele>-256.410004</ele>
<time>2025-12-29T10:40:13.993Z</time>
</trkpt>
<trkpt lat="30.9241900" lon="35.3285600">
<ele>-255.389999</ele>
<time>2025-12-29T10:40:13.993Z</time>
</trkpt>
<trkpt lat="30.9242100" lon="35.3286700">
<ele>-255.649994</ele>
<time>2025-12-29T10:40:13.993Z</time>
</trkpt>
<trkpt lat="30.9242400" lon="35.3287600">
<ele>-256.619995</ele>
<time>2025-12-29T10:40:13.993Z</time>
</trkpt>
<trkpt lat="30.9243100" lon="35.3288400">
<ele>-258.010010</ele>
<time>2025-12-29T10:40:13.993Z</time>
</trkpt>
<trkpt lat="30.9243800" lon="35.3288800">
<ele>-259.190002</ele>
<time>2025-12-29T10:40:13.993Z</time>
</trkpt>
<trkpt lat="30.9246700" lon="35.3289500">
<ele>-264.899994</ele>
<time>2025-12-29T10:40:13.993Z</time>
</trkpt>
<trkpt lat="30.9249000" lon="35.3290400">
<ele>-267.869995</ele>
<time>2025-12-29T10:40:13.993Z</time>
</trkpt>
<trkpt lat="30.9249700" lon="35.3290800">
<ele>-268.979980</ele>
<time>2025-12-29T10:40:13.993Z</time>
</trkpt>
<trkpt lat="30.9250800" lon="35.3292100">
<ele>-269.989990</ele>
<time>2025-12-29T10:40:13.993Z</time>
</trkpt>
<trkpt lat="30.9251200" lon="35.3293300">
<ele>-271.269989</ele>
<time>2025-12-29T10:40:13.993Z</time>
</trkpt>
<trkpt lat="30.9251400" lon="35.3294700">
<ele>-272.850006</ele>
<time>2025-12-29T10:40:13.993Z</time>
</trkpt>
<trkpt lat="30.9251100" lon="35.3296600">
<ele>-272.169983</ele>
<time>2025-12-29T10:40:13.993Z</time>
</trkpt>
<trkpt lat="30.9250500" lon="35.3297500">
<ele>-271.979980</ele>
<time>2025-12-29T10:40:13.993Z</time>
</trkpt>
<trkpt lat="30.9250100" lon="35.3297900">
<ele>-271.679993</ele>
<time>2025-12-29T10:40:13.993Z</time>
</trkpt>
<trkpt lat="30.9248900" lon="35.3298400">
<ele>-270.419983</ele>
<time>2025-12-29T10:40:13.993Z</time>
</trkpt>
<trkpt lat="30.9245900" lon="35.3298800">
<ele>-267.730011</ele>
<time>2025-12-29T10:40:13.993Z</time>
</trkpt>
<trkpt lat="30.9244900" lon="35.3299300">
<ele>-266.450012</ele>
<time>2025-12-29T10:40:13.993Z</time>
</trkpt>
<trkpt lat="30.9244300" lon="35.3299900">
<ele>-265.790009</ele>
<time>2025-12-29T10:40:13.993Z</time>
</trkpt>
<trkpt lat="30.9243700" lon="35.3301200">
<ele>-264.610016</ele>
<time>2025-12-29T10:40:13.993Z</time>
</trkpt>
<trkpt lat="30.9243700" lon="35.3302000">
<ele>-264.399994</ele>
<time>2025-12-29T10:40:13.993Z</time>
</trkpt>
<trkpt lat="30.9243900" lon="35.3302700">
<ele>-264.429993</ele>
<time>2025-12-29T10:40:13.993Z</time>
</trkpt>
<trkpt lat="30.9244600" lon="35.3303500">
<ele>-264.220001</ele>
<time>2025-12-29T10:40:13.993Z</time>
</trkpt>
<trkpt lat="30.9245300" lon="35.3303700">
<ele>-264.000000</ele>
<time>2025-12-29T10:40:13.993Z</time>
</trkpt>
<trkpt lat="30.9248100" lon="35.3304000">
<ele>-263.359985</ele>
<time>2025-12-29T10:40:13.993Z</time>
</trkpt>
<trkpt lat="30.9250900" lon="35.3304700">
<ele>-261.919983</ele>
<time>2025-12-29T10:40:13.993Z</time>
</trkpt>
<trkpt lat="30.9252500" lon="35.3304800">
<ele>-261.820007</ele>
<time>2025-12-29T10:40:13.993Z</time>
</trkpt>
<trkpt lat="30.9254400" lon="35.3304700">
<ele>-261.019989</ele>
<time>2025-12-29T10:40:13.993Z</time>
</trkpt>
<trkpt lat="30.9256600" lon="35.3305100">
<ele>-260.989990</ele>
<time>2025-12-29T10:40:13.993Z</time>
</trkpt>
<trkpt lat="30.9259200" lon="35.3306100">
<ele>-263.399994</ele>
<time>2025-12-29T10:40:13.993Z</time>
</trkpt>
<trkpt lat="30.9263100" lon="35.3308200">
<ele>-267.529999</ele>
<time>2025-12-29T10:40:13.993Z</time>
</trkpt>
<trkpt lat="30.9267400" lon="35.3309600">
<ele>-267.339996</ele>
<time>2025-12-29T10:40:13.993Z</time>
</trkpt>
<trkpt lat="30.9270200" lon="35.3311800">
<ele>-272.080017</ele>
<time>2025-12-29T10:40:13.993Z</time>
</trkpt>
<trkpt lat="30.9271300" lon="35.3313100">
<ele>-273.669983</ele>
<time>2025-12-29T10:40:13.993Z</time>
</trkpt>
<trkpt lat="30.9272700" lon="35.3315500">
<ele>-274.359985</ele>
<time>2025-12-29T10:40:13.993Z</time>
</trkpt>
<trkpt lat="30.9273700" lon="35.3318100">
<ele>-275.100006</ele>
<time>2025-12-29T10:40:13.993Z</time>
</trkpt>
<trkpt lat="30.9274900" lon="35.3320600">
<ele>-277.779999</ele>
<time>2025-12-29T10:40:13.993Z</time>
</trkpt>
<trkpt lat="30.9276800" lon="35.3323100">
<ele>-276.399994</ele>
<time>2025-12-29T10:40:13.993Z</time>
</trkpt>
<trkpt lat="30.9277700" lon="35.3323100">
<ele>-276.080017</ele>
<time>2025-12-29T10:40:13.993Z</time>
</trkpt>
<trkpt lat="30.9278800" lon="35.3322800">
<ele>-275.850006</ele>
<time>2025-12-29T10:40:13.993Z</time>
</trkpt>
<trkpt lat="30.9281200" lon="35.3320200">
<ele>-272.919983</ele>
<time>2025-12-29T10:40:13.993Z</time>
</trkpt>
<trkpt lat="30.9282200" lon="35.3319700">
<ele>-270.040009</ele>
<time>2025-12-29T10:40:13.993Z</time>
</trkpt>
<trkpt lat="30.9282900" lon="35.3319900">
<ele>-268.420013</ele>
<time>2025-12-29T10:40:13.993Z</time>
</trkpt>
<trkpt lat="30.9284000" lon="35.3320700">
<ele>-266.329987</ele>
<time>2025-12-29T10:40:13.993Z</time>
</trkpt>
<trkpt lat="30.9284700" lon="35.3321500">
<ele>-265.399994</ele>
<time>2025-12-29T10:40:13.993Z</time>
</trkpt>
<trkpt lat="30.9286900" lon="35.3325100">
<ele>-264.559998</ele>
<time>2025-12-29T10:40:13.993Z</time>
</trkpt>
<trkpt lat="30.9287400" lon="35.3326800">
<ele>-263.889984</ele>
<time>2025-12-29T10:40:13.993Z</time>
</trkpt>
<trkpt lat="30.9287700" lon="35.3329900">
<ele>-264.440002</ele>
<time>2025-12-29T10:40:13.993Z</time>
</trkpt>
<trkpt lat="30.9288400" lon="35.3332100">
<ele>-266.489990</ele>
<time>2025-12-29T10:40:13.993Z</time>
</trkpt>
<trkpt lat="30.9288900" lon="35.3333100">
<ele>-267.759979</ele>
<time>2025-12-29T10:40:13.993Z</time>
</trkpt>
<trkpt lat="30.9290300" lon="35.3334800">
<ele>-271.619995</ele>
<time>2025-12-29T10:40:13.993Z</time>
</trkpt>
<trkpt lat="30.9292200" lon="35.3338800">
<ele>-275.779999</ele>
<time>2025-12-29T10:40:13.993Z</time>
</trkpt>
<trkpt lat="30.9292800" lon="35.3339300">
<ele>-276.190002</ele>
<time>2025-12-29T10:40:13.993Z</time>
</trkpt>
<trkpt lat="30.9294200" lon="35.3339700">
<ele>-277.769989</ele>
<time>2025-12-29T10:40:13.993Z</time>
</trkpt>
<trkpt lat="30.9296100" lon="35.3339700">
<ele>-278.649994</ele>
<time>2025-12-29T10:40:13.993Z</time>
</trkpt>
<trkpt lat="30.9299000" lon="35.3339300">
<ele>-278.359985</ele>
<time>2025-12-29T10:40:13.993Z</time>
</trkpt>
<trkpt lat="30.9301000" lon="35.3339700">
<ele>-278.359985</ele>
<time>2025-12-29T10:40:13.993Z</time>
</trkpt>
<trkpt lat="30.9303100" lon="35.3340400">
<ele>-278.740021</ele>
<time>2025-12-29T10:40:13.993Z</time>
</trkpt>
<trkpt lat="30.9304400" lon="35.3340500">
<ele>-277.769989</ele>
<time>2025-12-29T10:40:13.993Z</time>
</trkpt>
<trkpt lat="30.9305800" lon="35.3340100">
<ele>-275.480011</ele>
<time>2025-12-29T10:40:13.993Z</time>
</trkpt>
<trkpt lat="30.9307200" lon="35.3340100">
<ele>-271.440002</ele>
<time>2025-12-29T10:40:13.993Z</time>
</trkpt>
<trkpt lat="30.9308100" lon="35.3340600">
<ele>-269.750000</ele>
<time>2025-12-29T10:40:13.993Z</time>
</trkpt>
<trkpt lat="30.9308600" lon="35.3341100">
<ele>-269.540009</ele>
<time>2025-12-29T10:40:13.993Z</time>
</trkpt>
<trkpt lat="30.9309000" lon="35.3342000">
<ele>-270.300018</ele>
<time>2025-12-29T10:40:13.993Z</time>
</trkpt>
<trkpt lat="30.9309200" lon="35.3343300">
<ele>-272.119995</ele>
<time>2025-12-29T10:40:13.993Z</time>
</trkpt>
<trkpt lat="30.9308700" lon="35.3346200">
<ele>-275.600006</ele>
<time>2025-12-29T10:40:13.993Z</time>
</trkpt>
<trkpt lat="30.9307800" lon="35.3348500">
<ele>-274.019989</ele>
<time>2025-12-29T10:40:13.993Z</time>
</trkpt>
<trkpt lat="30.9307800" lon="35.3349300">
<ele>-273.619995</ele>
<time>2025-12-29T10:40:13.993Z</time>
</trkpt>
<trkpt lat="30.9308300" lon="35.3350900">
<ele>-274.250000</ele>
<time>2025-12-29T10:40:13.993Z</time>
</trkpt>
<trkpt lat="30.9308900" lon="35.3351700">
<ele>-274.470001</ele>
<time>2025-12-29T10:40:13.993Z</time>
</trkpt>
<trkpt lat="30.9309500" lon="35.3352000">
<ele>-274.940002</ele>
<time>2025-12-29T10:40:13.993Z</time>
</trkpt>
<trkpt lat="30.9310100" lon="35.3352100">
<ele>-275.550018</ele>
<time>2025-12-29T10:40:13.993Z</time>
</trkpt>
<trkpt lat="30.9310800" lon="35.3351800">
<ele>-276.679993</ele>
<time>2025-12-29T10:40:13.993Z</time>
</trkpt>
<trkpt lat="30.9311500" lon="35.3351100">
<ele>-278.179993</ele>
<time>2025-12-29T10:40:13.993Z</time>
</trkpt>
<trkpt lat="30.9312500" lon="35.3349400">
<ele>-280.179993</ele>
<time>2025-12-29T10:40:13.993Z</time>
</trkpt>
<trkpt lat="30.9313300" lon="35.3348600">
<ele>-279.880005</ele>
<time>2025-12-29T10:40:13.993Z</time>
</trkpt>
<trkpt lat="30.9314800" lon="35.3347600">
<ele>-276.250000</ele>
<time>2025-12-29T10:40:13.993Z</time>
</trkpt>
<trkpt lat="30.9316000" lon="35.3347300">
<ele>-272.789978</ele>
<time>2025-12-29T10:40:13.993Z</time>
</trkpt>
<trkpt lat="30.9316600" lon="35.3347400">
<ele>-271.419983</ele>
<time>2025-12-29T10:40:13.993Z</time>
</trkpt>
<trkpt lat="30.9317100" lon="35.3347900">
<ele>-271.239990</ele>
<time>2025-12-29T10:40:13.993Z</time>
</trkpt>
<trkpt lat="30.9317400" lon="35.3348700">
<ele>-271.649994</ele>
<time>2025-12-29T10:40:13.993Z</time>
</trkpt>
<trkpt lat="30.9317500" lon="35.3349800">
<ele>-272.679993</ele>
<time>2025-12-29T10:40:13.993Z</time>
</trkpt>
<trkpt lat="30.9317400" lon="35.3353000">
<ele>-276.299988</ele>
<time>2025-12-29T10:40:13.993Z</time>
</trkpt>
<trkpt lat="30.9317800" lon="35.3354300">
<ele>-274.899994</ele>
<time>2025-12-29T10:40:13.993Z</time>
</trkpt>
<trkpt lat="30.9318700" lon="35.3356100">
<ele>-272.519989</ele>
<time>2025-12-29T10:40:13.993Z</time>
</trkpt>
<trkpt lat="30.9319400" lon="35.3357000">
<ele>-271.000000</ele>
<time>2025-12-29T10:40:13.993Z</time>
</trkpt>
<trkpt lat="30.9319900" lon="35.3357300">
<ele>-270.809998</ele>
<time>2025-12-29T10:40:13.993Z</time>
</trkpt>
<trkpt lat="30.9320600" lon="35.3357300">
<ele>-270.899994</ele>
<time>2025-12-29T10:40:13.993Z</time>
</trkpt>
<trkpt lat="30.9321200" lon="35.3357000">
<ele>-271.260010</ele>
<time>2025-12-29T10:40:13.993Z</time>
</trkpt>
<trkpt lat="30.9321400" lon="35.3356600">
<ele>-271.690002</ele>
<time>2025-12-29T10:40:13.993Z</time>
</trkpt>
<trkpt lat="30.9322000" lon="35.3354900">
<ele>-273.139984</ele>
<time>2025-12-29T10:40:13.993Z</time>
</trkpt>
<trkpt lat="30.9322200" lon="35.3354500">
<ele>-273.369995</ele>
<time>2025-12-29T10:40:13.993Z</time>
</trkpt>
<trkpt lat="30.9322300" lon="35.3354500">
<ele>-273.500000</ele>
<time>2025-12-29T10:40:13.993Z</time>
</trkpt>
<trkpt lat="30.9322300" lon="35.3354500">
<ele>-273.500000</ele>
<time>2025-12-29T10:40:13.993Z</time>
</trkpt>
<trkpt lat="30.9322200" lon="35.3354500">
<ele>-273.369995</ele>
<time>2025-12-29T10:40:13.993Z</time>
</trkpt>
<trkpt lat="30.9322700" lon="35.3353600">
<ele>-274.580017</ele>
<time>2025-12-29T10:40:13.993Z</time>
</trkpt>
<trkpt lat="30.9323500" lon="35.3352800">
<ele>-276.739990</ele>
<time>2025-12-29T10:40:13.993Z</time>
</trkpt>
<trkpt lat="30.9324200" lon="35.3352300">
<ele>-278.070007</ele>
<time>2025-12-29T10:40:13.993Z</time>
</trkpt>
<trkpt lat="30.9328500" lon="35.3351900">
<ele>-279.589996</ele>
<time>2025-12-29T10:40:13.993Z</time>
</trkpt>
<trkpt lat="30.9328500" lon="35.3351900">
<ele>-279.589996</ele>
<time>2025-12-29T10:40:13.993Z</time>
</trkpt>
<trkpt lat="30.9331400" lon="35.3351400">
<ele>-277.450012</ele>
<time>2025-12-29T10:40:13.993Z</time>
</trkpt>
<trkpt lat="30.9334100" lon="35.3351400">
<ele>-278.220001</ele>
<time>2025-12-29T10:40:13.993Z</time>
</trkpt>
<trkpt lat="30.9337100" lon="35.3352700">
<ele>-276.700012</ele>
<time>2025-12-29T10:40:13.993Z</time>
</trkpt>
<trkpt lat="30.9338500" lon="35.3352500">
<ele>-276.500000</ele>
<time>2025-12-29T10:40:13.993Z</time>
</trkpt>
<trkpt lat="30.9340000" lon="35.3351900">
<ele>-274.839996</ele>
<time>2025-12-29T10:40:13.993Z</time>
</trkpt>
<trkpt lat="30.9340600" lon="35.3351200">
<ele>-275.010010</ele>
<time>2025-12-29T10:40:13.993Z</time>
</trkpt>
<trkpt lat="30.9340700" lon="35.3350400">
<ele>-276.529999</ele>
<time>2025-12-29T10:40:13.993Z</time>
</trkpt>
<trkpt lat="30.9340500" lon="35.3346700">
<ele>-283.360016</ele>
<time>2025-12-29T10:40:13.993Z</time>
</trkpt>
<trkpt lat="30.9340900" lon="35.3344900">
<ele>-286.440002</ele>
<time>2025-12-29T10:40:13.993Z</time>
</trkpt>
<trkpt lat="30.9341600" lon="35.3343600">
<ele>-288.230011</ele>
<time>2025-12-29T10:40:13.993Z</time>
</trkpt>
<trkpt lat="30.9342300" lon="35.3343000">
<ele>-288.160004</ele>
<time>2025-12-29T10:40:13.993Z</time>
</trkpt>
<trkpt lat="30.9343800" lon="35.3342500">
<ele>-287.089996</ele>
<time>2025-12-29T10:40:13.993Z</time>
</trkpt>
<trkpt lat="30.9344700" lon="35.3342400">
<ele>-286.049988</ele>
<time>2025-12-29T10:40:13.993Z</time>
</trkpt>
<trkpt lat="30.9346100" lon="35.3343100">
<ele>-284.380005</ele>
<time>2025-12-29T10:40:13.993Z</time>
</trkpt>
<trkpt lat="30.9348900" lon="35.3345800">
<ele>-282.359985</ele>
<time>2025-12-29T10:40:13.993Z</time>
</trkpt>
<trkpt lat="30.9351400" lon="35.3348600">
<ele>-281.230011</ele>
<time>2025-12-29T10:40:13.993Z</time>
</trkpt>
<trkpt lat="30.9354300" lon="35.3352500">
<ele>-282.559998</ele>
<time>2025-12-29T10:40:13.993Z</time>
</trkpt>
<trkpt lat="30.9355600" lon="35.3353700">
<ele>-284.339996</ele>
<time>2025-12-29T10:40:13.993Z</time>
</trkpt>
<trkpt lat="30.9356600" lon="35.3354400">
<ele>-284.049988</ele>
<time>2025-12-29T10:40:13.993Z</time>
</trkpt>
<trkpt lat="30.9358200" lon="35.3355000">
<ele>-284.160004</ele>
<time>2025-12-29T10:40:13.993Z</time>
</trkpt>
<trkpt lat="30.9360400" lon="35.3355500">
<ele>-285.480011</ele>
<time>2025-12-29T10:40:13.993Z</time>
</trkpt>
<trkpt lat="30.9364700" lon="35.3356200">
<ele>-284.589996</ele>
<time>2025-12-29T10:40:13.993Z</time>
</trkpt>
<trkpt lat="30.9365600" lon="35.3356200">
<ele>-284.320007</ele>
<time>2025-12-29T10:40:13.993Z</time>
</trkpt>
<trkpt lat="30.9366600" lon="35.3356500">
<ele>-284.010010</ele>
<time>2025-12-29T10:40:13.993Z</time>
</trkpt>
<trkpt lat="30.9367100" lon="35.3357100">
<ele>-283.830017</ele>
<time>2025-12-29T10:40:13.993Z</time>
</trkpt>
<trkpt lat="30.9367400" lon="35.3357700">
<ele>-284.110016</ele>
<time>2025-12-29T10:40:13.993Z</time>
</trkpt>
<trkpt lat="30.9367800" lon="35.3359900">
<ele>-285.860016</ele>
<time>2025-12-29T10:40:13.993Z</time>
</trkpt>
<trkpt lat="30.9368200" lon="35.3360700">
<ele>-287.539978</ele>
<time>2025-12-29T10:40:13.993Z</time>
</trkpt>
<trkpt lat="30.9369200" lon="35.3361500">
<ele>-290.950012</ele>
<time>2025-12-29T10:40:13.993Z</time>
</trkpt>
<trkpt lat="30.9372100" lon="35.3362300">
<ele>-296.059998</ele>
<time>2025-12-29T10:40:13.993Z</time>
</trkpt>
<trkpt lat="30.9372900" lon="35.3362900">
<ele>-296.850006</ele>
<time>2025-12-29T10:40:13.993Z</time>
</trkpt>
<trkpt lat="30.9373200" lon="35.3363500">
<ele>-297.529999</ele>
<time>2025-12-29T10:40:13.993Z</time>
</trkpt>
<trkpt lat="30.9373300" lon="35.3364400">
<ele>-297.589996</ele>
<time>2025-12-29T10:40:13.993Z</time>
</trkpt>
<trkpt lat="30.9373100" lon="35.3365000">
<ele>-297.049988</ele>
<time>2025-12-29T10:40:13.993Z</time>
</trkpt>
<trkpt lat="30.9372200" lon="35.3366700">
<ele>-294.880005</ele>
<time>2025-12-29T10:40:13.993Z</time>
</trkpt>
<trkpt lat="30.9371700" lon="35.3368400">
<ele>-290.799988</ele>
<time>2025-12-29T10:40:13.993Z</time>
</trkpt>
<trkpt lat="30.9371800" lon="35.3369300">
<ele>-289.480011</ele>
<time>2025-12-29T10:40:13.993Z</time>
</trkpt>
<trkpt lat="30.9372400" lon="35.3370400">
<ele>-288.880005</ele>
<time>2025-12-29T10:40:13.993Z</time>
</trkpt>
<trkpt lat="30.9373000" lon="35.3370900">
<ele>-288.860016</ele>
<time>2025-12-29T10:40:13.993Z</time>
</trkpt>
<trkpt lat="30.9373900" lon="35.3371200">
<ele>-289.350006</ele>
<time>2025-12-29T10:40:13.993Z</time>
</trkpt>
<trkpt lat="30.9377000" lon="35.3371300">
<ele>-295.850006</ele>
<time>2025-12-29T10:40:13.993Z</time>
</trkpt>
<trkpt lat="30.9377700" lon="35.3371800">
<ele>-297.220001</ele>
<time>2025-12-29T10:40:13.993Z</time>
</trkpt>
<trkpt lat="30.9378200" lon="35.3372400">
<ele>-296.959991</ele>
<time>2025-12-29T10:40:13.993Z</time>
</trkpt>
<trkpt lat="30.9379400" lon="35.3375200">
<ele>-293.820007</ele>
<time>2025-12-29T10:40:13.993Z</time>
</trkpt>
<trkpt lat="30.9380000" lon="35.3376100">
<ele>-290.519989</ele>
<time>2025-12-29T10:40:13.993Z</time>
</trkpt>
<trkpt lat="30.9380600" lon="35.3376500">
<ele>-289.070007</ele>
<time>2025-12-29T10:40:13.993Z</time>
</trkpt>
<trkpt lat="30.9381500" lon="35.3376500">
<ele>-289.270020</ele>
<time>2025-12-29T10:40:13.993Z</time>
</trkpt>
<trkpt lat="30.9385000" lon="35.3374600">
<ele>-296.489990</ele>
<time>2025-12-29T10:40:13.993Z</time>
</trkpt>
<trkpt lat="30.9386400" lon="35.3374000">
<ele>-297.559998</ele>
<time>2025-12-29T10:40:13.993Z</time>
</trkpt>
<trkpt lat="30.9387900" lon="35.3373700">
<ele>-296.670013</ele>
<time>2025-12-29T10:40:13.993Z</time>
</trkpt>
<trkpt lat="30.9388700" lon="35.3373600">
<ele>-296.079987</ele>
<time>2025-12-29T10:40:13.993Z</time>
</trkpt>
<trkpt lat="30.9389700" lon="35.3373700">
<ele>-294.910004</ele>
<time>2025-12-29T10:40:13.993Z</time>
</trkpt>
<trkpt lat="30.9392100" lon="35.3374500">
<ele>-293.440002</ele>
<time>2025-12-29T10:40:13.993Z</time>
</trkpt>
<trkpt lat="30.9392600" lon="35.3375000">
<ele>-293.980011</ele>
<time>2025-12-29T10:40:13.993Z</time>
</trkpt>
<trkpt lat="30.9393200" lon="35.3376700">
<ele>-297.040009</ele>
<time>2025-12-29T10:40:13.993Z</time>
</trkpt>
<trkpt lat="30.9395100" lon="35.3378700">
<ele>-296.010010</ele>
<time>2025-12-29T10:40:13.993Z</time>
</trkpt>
<trkpt lat="30.9395800" lon="35.3380100">
<ele>-295.309998</ele>
<time>2025-12-29T10:40:13.993Z</time>
</trkpt>
<trkpt lat="30.9397500" lon="35.3385400">
<ele>-293.000000</ele>
<time>2025-12-29T10:40:13.993Z</time>
</trkpt>
<trkpt lat="30.9398400" lon="35.3389900">
<ele>-288.500000</ele>
<time>2025-12-29T10:40:13.993Z</time>
</trkpt>
<trkpt lat="30.9398900" lon="35.3391300">
<ele>-287.450012</ele>
<time>2025-12-29T10:40:13.993Z</time>
</trkpt>
<trkpt lat="30.9400300" lon="35.3394000">
<ele>-287.619995</ele>
<time>2025-12-29T10:40:13.993Z</time>
</trkpt>
<trkpt lat="30.9401400" lon="35.3395300">
<ele>-290.369995</ele>
<time>2025-12-29T10:40:13.993Z</time>
</trkpt>
<trkpt lat="30.9402200" lon="35.3396000">
<ele>-292.100006</ele>
<time>2025-12-29T10:40:13.993Z</time>
</trkpt>
<trkpt lat="30.9404300" lon="35.3397300">
<ele>-297.269989</ele>
<time>2025-12-29T10:40:13.993Z</time>
</trkpt>
<trkpt lat="30.9405600" lon="35.3397800">
<ele>-299.759979</ele>
<time>2025-12-29T10:40:13.993Z</time>
</trkpt>
<trkpt lat="30.9406600" lon="35.3397800">
<ele>-299.989990</ele>
<time>2025-12-29T10:40:13.993Z</time>
</trkpt>
<trkpt lat="30.9408100" lon="35.3397300">
<ele>-300.910004</ele>
<time>2025-12-29T10:40:13.993Z</time>
</trkpt>
<trkpt lat="30.9409500" lon="35.3397300">
<ele>-296.339996</ele>
<time>2025-12-29T10:40:13.993Z</time>
</trkpt>
<trkpt lat="30.9410100" lon="35.3397700">
<ele>-293.929993</ele>
<time>2025-12-29T10:40:13.993Z</time>
</trkpt>
<trkpt lat="30.9410300" lon="35.3398700">
<ele>-293.119995</ele>
<time>2025-12-29T10:40:13.993Z</time>
</trkpt>
<trkpt lat="30.9409700" lon="35.3403100">
<ele>-290.210022</ele>
<time>2025-12-29T10:40:13.993Z</time>
</trkpt>
<trkpt lat="30.9409800" lon="35.3403900">
<ele>-289.519989</ele>
<time>2025-12-29T10:40:13.993Z</time>
</trkpt>
<trkpt lat="30.9410200" lon="35.3404800">
<ele>-289.130005</ele>
<time>2025-12-29T10:40:13.993Z</time>
</trkpt>
<trkpt lat="30.9410900" lon="35.3405600">
<ele>-289.709991</ele>
<time>2025-12-29T10:40:13.993Z</time>
</trkpt>
<trkpt lat="30.9412100" lon="35.3406000">
<ele>-289.919983</ele>
<time>2025-12-29T10:40:13.993Z</time>
</trkpt>
<trkpt lat="30.9415800" lon="35.3406700">
<ele>-289.950012</ele>
<time>2025-12-29T10:40:13.993Z</time>
</trkpt>
<trkpt lat="30.9416900" lon="35.3407300">
<ele>-289.500000</ele>
<time>2025-12-29T10:40:13.993Z</time>
</trkpt>
<trkpt lat="30.9417500" lon="35.3407800">
<ele>-287.920013</ele>
<time>2025-12-29T10:40:13.993Z</time>
</trkpt>
<trkpt lat="30.9417800" lon="35.3408700">
<ele>-287.139984</ele>
<time>2025-12-29T10:40:13.993Z</time>
</trkpt>
<trkpt lat="30.9417700" lon="35.3409600">
<ele>-287.029999</ele>
<time>2025-12-29T10:40:13.993Z</time>
</trkpt>
<trkpt lat="30.9417300" lon="35.3410400">
<ele>-288.029999</ele>
<time>2025-12-29T10:40:13.993Z</time>
</trkpt>
<trkpt lat="30.9414500" lon="35.3412000">
<ele>-291.989990</ele>
<time>2025-12-29T10:40:13.993Z</time>
</trkpt>
<trkpt lat="30.9413700" lon="35.3412700">
<ele>-292.940002</ele>
<time>2025-12-29T10:40:13.993Z</time>
</trkpt>
<trkpt lat="30.9413400" lon="35.3413400">
<ele>-292.940002</ele>
<time>2025-12-29T10:40:13.993Z</time>
</trkpt>
<trkpt lat="30.9413300" lon="35.3414600">
<ele>-293.109985</ele>
<time>2025-12-29T10:40:13.993Z</time>
</trkpt>
<trkpt lat="30.9413700" lon="35.3416200">
<ele>-293.109985</ele>
<time>2025-12-29T10:40:13.993Z</time>
</trkpt>
<trkpt lat="30.9414100" lon="35.3417000">
<ele>-292.460022</ele>
<time>2025-12-29T10:40:13.993Z</time>
</trkpt>
<trkpt lat="30.9415000" lon="35.3418100">
<ele>-289.619995</ele>
<time>2025-12-29T10:40:13.993Z</time>
</trkpt>
<trkpt lat="30.9416300" lon="35.3419300">
<ele>-284.570007</ele>
<time>2025-12-29T10:40:13.993Z</time>
</trkpt>
<trkpt lat="30.9417000" lon="35.3420400">
<ele>-282.160004</ele>
<time>2025-12-29T10:40:13.993Z</time>
</trkpt>
<trkpt lat="30.9417200" lon="35.3421500">
<ele>-281.660004</ele>
<time>2025-12-29T10:40:13.993Z</time>
</trkpt>
<trkpt lat="30.9417100" lon="35.3422200">
<ele>-281.910004</ele>
<time>2025-12-29T10:40:13.993Z</time>
</trkpt>
<trkpt lat="30.9416800" lon="35.3422900">
<ele>-282.899994</ele>
<time>2025-12-29T10:40:13.993Z</time>
</trkpt>
<trkpt lat="30.9416400" lon="35.3423400">
<ele>-284.440002</ele>
<time>2025-12-29T10:40:13.993Z</time>
</trkpt>
<trkpt lat="30.9415000" lon="35.3424100">
<ele>-289.869995</ele>
<time>2025-12-29T10:40:13.993Z</time>
</trkpt>
<trkpt lat="30.9413000" lon="35.3424200">
<ele>-293.769989</ele>
<time>2025-12-29T10:40:13.993Z</time>
</trkpt>
<trkpt lat="30.9412100" lon="35.3424800">
<ele>-293.399994</ele>
<time>2025-12-29T10:40:13.993Z</time>
</trkpt>
<trkpt lat="30.9411200" lon="35.3425800">
<ele>-292.160004</ele>
<time>2025-12-29T10:40:13.993Z</time>
</trkpt>
<trkpt lat="30.9413800" lon="35.3428600">
<ele>-289.089996</ele>
<time>2025-12-29T10:40:13.993Z</time>
</trkpt>
<trkpt lat="30.9414900" lon="35.3429500">
<ele>-287.589996</ele>
<time>2025-12-29T10:40:13.993Z</time>
</trkpt>
<trkpt lat="30.9418700" lon="35.3431800">
<ele>-288.920013</ele>
<time>2025-12-29T10:40:13.993Z</time>
</trkpt>
<trkpt lat="30.9420300" lon="35.3432500">
<ele>-293.230011</ele>
<time>2025-12-29T10:40:13.993Z</time>
</trkpt>
<trkpt lat="30.9422100" lon="35.3432900">
<ele>-298.519989</ele>
<time>2025-12-29T10:40:13.993Z</time>
</trkpt>
<trkpt lat="30.9425000" lon="35.3434800">
<ele>-300.940002</ele>
<time>2025-12-29T10:40:13.993Z</time>
</trkpt>
<trkpt lat="30.9428700" lon="35.3436100">
<ele>-304.649994</ele>
<time>2025-12-29T10:40:13.993Z</time>
</trkpt>
<trkpt lat="30.9430200" lon="35.3436800">
<ele>-303.970001</ele>
<time>2025-12-29T10:40:13.993Z</time>
</trkpt>
<trkpt lat="30.9431400" lon="35.3437700">
<ele>-302.700012</ele>
<time>2025-12-29T10:40:13.993Z</time>
</trkpt>
<trkpt lat="30.9432100" lon="35.3439000">
<ele>-304.100006</ele>
<time>2025-12-29T10:40:13.993Z</time>
</trkpt>
<trkpt lat="30.9432400" lon="35.3441200">
<ele>-306.759979</ele>
<time>2025-12-29T10:40:13.993Z</time>
</trkpt>
<trkpt lat="30.9432900" lon="35.3441700">
<ele>-308.679993</ele>
<time>2025-12-29T10:40:13.993Z</time>
</trkpt>
<trkpt lat="30.9433500" lon="35.3442100">
<ele>-309.170013</ele>
<time>2025-12-29T10:40:13.993Z</time>
</trkpt>
<trkpt lat="30.9436900" lon="35.3442900">
<ele>-309.510010</ele>
<time>2025-12-29T10:40:13.993Z</time>
</trkpt>
<trkpt lat="30.9437800" lon="35.3443500">
<ele>-310.290009</ele>
<time>2025-12-29T10:40:13.993Z</time>
</trkpt>
<trkpt lat="30.9438900" lon="35.3444800">
<ele>-313.330017</ele>
<time>2025-12-29T10:40:13.993Z</time>
</trkpt>
<trkpt lat="30.9440200" lon="35.3446700">
<ele>-311.510010</ele>
<time>2025-12-29T10:40:13.993Z</time>
</trkpt>
<trkpt lat="30.9441200" lon="35.3447600">
<ele>-308.750000</ele>
<time>2025-12-29T10:40:13.993Z</time>
</trkpt>
<trkpt lat="30.9442600" lon="35.3448500">
<ele>-301.760010</ele>
<time>2025-12-29T10:40:13.993Z</time>
</trkpt>
<trkpt lat="30.9443200" lon="35.3449200">
<ele>-298.790009</ele>
<time>2025-12-29T10:40:13.993Z</time>
</trkpt>
<trkpt lat="30.9443300" lon="35.3450100">
<ele>-297.119995</ele>
<time>2025-12-29T10:40:13.993Z</time>
</trkpt>
<trkpt lat="30.9443300" lon="35.3451600">
<ele>-295.369995</ele>
<time>2025-12-29T10:40:13.993Z</time>
</trkpt>
<trkpt lat="30.9443800" lon="35.3452100">
<ele>-294.660004</ele>
<time>2025-12-29T10:40:13.993Z</time>
</trkpt>
<trkpt lat="30.9444500" lon="35.3451900">
<ele>-294.549988</ele>
<time>2025-12-29T10:40:13.993Z</time>
</trkpt>
<trkpt lat="30.9445500" lon="35.3450900">
<ele>-293.830017</ele>
<time>2025-12-29T10:40:13.993Z</time>
</trkpt>
<trkpt lat="30.9446500" lon="35.3449300">
<ele>-292.170013</ele>
<time>2025-12-29T10:40:13.993Z</time>
</trkpt>
<trkpt lat="30.9447100" lon="35.3448700">
<ele>-289.959991</ele>
<time>2025-12-29T10:40:13.993Z</time>
</trkpt>
<trkpt lat="30.9448000" lon="35.3448200">
<ele>-287.820007</ele>
<time>2025-12-29T10:40:13.993Z</time>
</trkpt>
<trkpt lat="30.9449200" lon="35.3448200">
<ele>-286.369995</ele>
<time>2025-12-29T10:40:13.993Z</time>
</trkpt>
<trkpt lat="30.9449900" lon="35.3448600">
<ele>-286.109985</ele>
<time>2025-12-29T10:40:13.993Z</time>
</trkpt>
<trkpt lat="30.9451200" lon="35.3449700">
<ele>-286.899994</ele>
<time>2025-12-29T10:40:13.993Z</time>
</trkpt>
<trkpt lat="30.9455300" lon="35.3453300">
<ele>-296.019989</ele>
<time>2025-12-29T10:40:13.993Z</time>
</trkpt>
<trkpt lat="30.9457100" lon="35.3454400">
<ele>-297.559998</ele>
<time>2025-12-29T10:40:13.993Z</time>
</trkpt>
<trkpt lat="30.9458300" lon="35.3454800">
<ele>-299.920013</ele>
<time>2025-12-29T10:40:13.993Z</time>
</trkpt>
<trkpt lat="30.9459600" lon="35.3455000">
<ele>-302.829987</ele>
<time>2025-12-29T10:40:13.993Z</time>
</trkpt>
<trkpt lat="30.9460400" lon="35.3454800">
<ele>-304.670013</ele>
<time>2025-12-29T10:40:13.993Z</time>
</trkpt>
<trkpt lat="30.9463200" lon="35.3453100">
<ele>-307.979980</ele>
<time>2025-12-29T10:40:13.993Z</time>
</trkpt>
<trkpt lat="30.9463900" lon="35.3452900">
<ele>-308.130005</ele>
<time>2025-12-29T10:40:13.993Z</time>
</trkpt>
<trkpt lat="30.9464700" lon="35.3453200">
<ele>-308.299988</ele>
<time>2025-12-29T10:40:13.993Z</time>
</trkpt>
<trkpt lat="30.9465400" lon="35.3454200">
<ele>-309.829987</ele>
<time>2025-12-29T10:40:13.993Z</time>
</trkpt>
<trkpt lat="30.9466900" lon="35.3457800">
<ele>-309.519989</ele>
<time>2025-12-29T10:40:13.993Z</time>
</trkpt>
<trkpt lat="30.9467400" lon="35.3458300">
<ele>-308.500000</ele>
<time>2025-12-29T10:40:13.993Z</time>
</trkpt>
<trkpt lat="30.9468500" lon="35.3458400">
<ele>-307.480011</ele>
<time>2025-12-29T10:40:13.993Z</time>
</trkpt>
<trkpt lat="30.9469900" lon="35.3458000">
<ele>-307.330017</ele>
<time>2025-12-29T10:40:13.993Z</time>
</trkpt>
<trkpt lat="30.9471000" lon="35.3457000">
<ele>-307.660004</ele>
<time>2025-12-29T10:40:13.993Z</time>
</trkpt>
<trkpt lat="30.9471700" lon="35.3456700">
<ele>-307.890015</ele>
<time>2025-12-29T10:40:13.993Z</time>
</trkpt>
<trkpt lat="30.9472400" lon="35.3456800">
<ele>-308.360016</ele>
<time>2025-12-29T10:40:13.993Z</time>
</trkpt>
<trkpt lat="30.9473000" lon="35.3457300">
<ele>-309.199982</ele>
<time>2025-12-29T10:40:13.993Z</time>
</trkpt>
<trkpt lat="30.9473700" lon="35.3458500">
<ele>-311.579987</ele>
<time>2025-12-29T10:40:13.993Z</time>
</trkpt>
<trkpt lat="30.9474000" lon="35.3460200">
<ele>-312.239990</ele>
<time>2025-12-29T10:40:13.993Z</time>
</trkpt>
<trkpt lat="30.9474800" lon="35.3461700">
<ele>-313.160004</ele>
<time>2025-12-29T10:40:13.993Z</time>
</trkpt>
<trkpt lat="30.9475600" lon="35.3462300">
<ele>-311.630005</ele>
<time>2025-12-29T10:40:13.993Z</time>
</trkpt>
<trkpt lat="30.9476800" lon="35.3462400">
<ele>-311.220001</ele>
<time>2025-12-29T10:40:13.993Z</time>
</trkpt>
<trkpt lat="30.9479000" lon="35.3461600">
<ele>-309.679993</ele>
<time>2025-12-29T10:40:13.993Z</time>
</trkpt>
<trkpt lat="30.9480300" lon="35.3461400">
<ele>-306.790009</ele>
<time>2025-12-29T10:40:13.993Z</time>
</trkpt>
<trkpt lat="30.9480800" lon="35.3461700">
<ele>-305.139984</ele>
<time>2025-12-29T10:40:13.993Z</time>
</trkpt>
<trkpt lat="30.9481100" lon="35.3462300">
<ele>-304.080017</ele>
<time>2025-12-29T10:40:13.993Z</time>
</trkpt>
<trkpt lat="30.9480200" lon="35.3465400">
<ele>-307.309998</ele>
<time>2025-12-29T10:40:13.993Z</time>
</trkpt>
<trkpt lat="30.9479200" lon="35.3467500">
<ele>-305.389984</ele>
<time>2025-12-29T10:40:13.993Z</time>
</trkpt>
<trkpt lat="30.9479000" lon="35.3468800">
<ele>-304.890015</ele>
<time>2025-12-29T10:40:13.993Z</time>
</trkpt>
<trkpt lat="30.9479300" lon="35.3470000">
<ele>-305.570007</ele>
<time>2025-12-29T10:40:13.993Z</time>
</trkpt>
<trkpt lat="30.9479600" lon="35.3470500">
<ele>-306.269989</ele>
<time>2025-12-29T10:40:13.993Z</time>
</trkpt>
<trkpt lat="30.9480300" lon="35.3471100">
<ele>-307.339996</ele>
<time>2025-12-29T10:40:13.993Z</time>
</trkpt>
<trkpt lat="30.9480800" lon="35.3471200">
<ele>-307.589996</ele>
<time>2025-12-29T10:40:13.993Z</time>
</trkpt>
<trkpt lat="30.9483900" lon="35.3471100">
<ele>-305.389984</ele>
<time>2025-12-29T10:40:13.993Z</time>
</trkpt>
<trkpt lat="30.9484600" lon="35.3471500">
<ele>-304.270020</ele>
<time>2025-12-29T10:40:13.993Z</time>
</trkpt>
<trkpt lat="30.9485600" lon="35.3472500">
<ele>-303.979980</ele>
<time>2025-12-29T10:40:13.993Z</time>
</trkpt>
<trkpt lat="30.9486100" lon="35.3476100">
<ele>-312.770020</ele>
<time>2025-12-29T10:40:13.993Z</time>
</trkpt>
<trkpt lat="30.9486400" lon="35.3477600">
<ele>-316.019989</ele>
<time>2025-12-29T10:40:13.993Z</time>
</trkpt>
<trkpt lat="30.9487700" lon="35.3480000">
<ele>-315.630005</ele>
<time>2025-12-29T10:40:13.993Z</time>
</trkpt>
<trkpt lat="30.9489500" lon="35.3482500">
<ele>-314.419983</ele>
<time>2025-12-29T10:40:13.993Z</time>
</trkpt>
<trkpt lat="30.9490400" lon="35.3483600">
<ele>-314.329987</ele>
<time>2025-12-29T10:40:13.993Z</time>
</trkpt>
<trkpt lat="30.9492300" lon="35.3484600">
<ele>-315.750000</ele>
<time>2025-12-29T10:40:13.993Z</time>
</trkpt>
<trkpt lat="30.9492900" lon="35.3485300">
<ele>-316.839996</ele>
<time>2025-12-29T10:40:13.993Z</time>
</trkpt>
<trkpt lat="30.9493900" lon="35.3487000">
<ele>-317.230011</ele>
<time>2025-12-29T10:40:13.993Z</time>
</trkpt>
<trkpt lat="30.9494800" lon="35.3487300">
<ele>-317.270020</ele>
<time>2025-12-29T10:40:13.993Z</time>
</trkpt>
<trkpt lat="30.9497100" lon="35.3487000">
<ele>-316.440002</ele>
<time>2025-12-29T10:40:13.993Z</time>
</trkpt>
<trkpt lat="30.9497800" lon="35.3487300">
<ele>-316.049988</ele>
<time>2025-12-29T10:40:13.993Z</time>
</trkpt>
<trkpt lat="30.9498500" lon="35.3487900">
<ele>-316.110016</ele>
<time>2025-12-29T10:40:13.993Z</time>
</trkpt>
<trkpt lat="30.9499000" lon="35.3489200">
<ele>-316.800018</ele>
<time>2025-12-29T10:40:13.993Z</time>
</trkpt>
<trkpt lat="30.9499400" lon="35.3491000">
<ele>-316.859985</ele>
<time>2025-12-29T10:40:13.993Z</time>
</trkpt>
<trkpt lat="30.9500100" lon="35.3492500">
<ele>-317.579987</ele>
<time>2025-12-29T10:40:13.993Z</time>
</trkpt>
<trkpt lat="30.9501000" lon="35.3493400">
<ele>-318.869995</ele>
<time>2025-12-29T10:40:13.993Z</time>
</trkpt>
<trkpt lat="30.9502000" lon="35.3494000">
<ele>-321.009979</ele>
<time>2025-12-29T10:40:13.993Z</time>
</trkpt>
<trkpt lat="30.9502300" lon="35.3494500">
<ele>-321.699982</ele>
<time>2025-12-29T10:40:13.993Z</time>
</trkpt>
<trkpt lat="30.9502200" lon="35.3495200">
<ele>-320.239990</ele>
<time>2025-12-29T10:40:13.993Z</time>
</trkpt>
<trkpt lat="30.9501800" lon="35.3496300">
<ele>-317.429993</ele>
<time>2025-12-29T10:40:13.993Z</time>
</trkpt>
<trkpt lat="30.9501900" lon="35.3497100">
<ele>-316.309998</ele>
<time>2025-12-29T10:40:13.993Z</time>
</trkpt>
<trkpt lat="30.9502400" lon="35.3497700">
<ele>-316.450012</ele>
<time>2025-12-29T10:40:13.993Z</time>
</trkpt>
<trkpt lat="30.9503100" lon="35.3497900">
<ele>-317.199982</ele>
<time>2025-12-29T10:40:13.993Z</time>
</trkpt>
<trkpt lat="30.9503900" lon="35.3497700">
<ele>-317.850006</ele>
<time>2025-12-29T10:40:13.993Z</time>
</trkpt>
<trkpt lat="30.9505700" lon="35.3495600">
<ele>-316.440002</ele>
<time>2025-12-29T10:40:13.993Z</time>
</trkpt>
<trkpt lat="30.9506800" lon="35.3494900">
<ele>-309.399994</ele>
<time>2025-12-29T10:40:13.993Z</time>
</trkpt>
<trkpt lat="30.9507400" lon="35.3495000">
<ele>-306.110016</ele>
<time>2025-12-29T10:40:13.993Z</time>
</trkpt>
<trkpt lat="30.9507800" lon="35.3495300">
<ele>-304.239990</ele>
<time>2025-12-29T10:40:13.993Z</time>
</trkpt>
<trkpt lat="30.9508100" lon="35.3496200">
<ele>-303.820007</ele>
<time>2025-12-29T10:40:13.993Z</time>
</trkpt>
<trkpt lat="30.9508100" lon="35.3497100">
<ele>-305.089996</ele>
<time>2025-12-29T10:40:13.993Z</time>
</trkpt>
<trkpt lat="30.9507900" lon="35.3498300">
<ele>-307.200012</ele>
<time>2025-12-29T10:40:13.993Z</time>
</trkpt>
<trkpt lat="30.9505200" lon="35.3503900">
<ele>-322.869995</ele>
<time>2025-12-29T10:40:13.993Z</time>
</trkpt>
<trkpt lat="30.9504900" lon="35.3504700">
<ele>-323.339996</ele>
<time>2025-12-29T10:40:13.993Z</time>
</trkpt>
<trkpt lat="30.9504800" lon="35.3505500">
<ele>-324.450012</ele>
<time>2025-12-29T10:40:13.993Z</time>
</trkpt>
<trkpt lat="30.9505100" lon="35.3506300">
<ele>-325.840027</ele>
<time>2025-12-29T10:40:13.993Z</time>
</trkpt>
<trkpt lat="30.9505600" lon="35.3506800">
<ele>-327.369995</ele>
<time>2025-12-29T10:40:13.993Z</time>
</trkpt>
<trkpt lat="30.9507100" lon="35.3507700">
<ele>-325.289978</ele>
<time>2025-12-29T10:40:13.993Z</time>
</trkpt>
<trkpt lat="30.9507600" lon="35.3508100">
<ele>-324.850006</ele>
<time>2025-12-29T10:40:13.993Z</time>
</trkpt>
<trkpt lat="30.9507900" lon="35.3508800">
<ele>-324.570007</ele>
<time>2025-12-29T10:40:13.993Z</time>
</trkpt>
<trkpt lat="30.9508000" lon="35.3509900">
<ele>-324.340027</ele>
<time>2025-12-29T10:40:13.993Z</time>
</trkpt>
<trkpt lat="30.9507600" lon="35.3511800">
<ele>-324.019989</ele>
<time>2025-12-29T10:40:13.993Z</time>
</trkpt>
<trkpt lat="30.9507600" lon="35.3512900">
<ele>-323.199982</ele>
<time>2025-12-29T10:40:13.993Z</time>
</trkpt>
<trkpt lat="30.9507800" lon="35.3513800">
<ele>-322.670013</ele>
<time>2025-12-29T10:40:13.993Z</time>
</trkpt>
<trkpt lat="30.9508400" lon="35.3514900">
<ele>-323.510010</ele>
<time>2025-12-29T10:40:13.993Z</time>
</trkpt>
<trkpt lat="30.9510600" lon="35.3517000">
<ele>-322.379974</ele>
<time>2025-12-29T10:40:13.993Z</time>
</trkpt>
<trkpt lat="30.9511100" lon="35.3517700">
<ele>-323.610016</ele>
<time>2025-12-29T10:40:13.993Z</time>
</trkpt>
<trkpt lat="30.9512700" lon="35.3521500">
<ele>-326.549988</ele>
<time>2025-12-29T10:40:13.993Z</time>
</trkpt>
<trkpt lat="30.9514000" lon="35.3523900">
<ele>-325.750000</ele>
<time>2025-12-29T10:40:13.993Z</time>
</trkpt>
<trkpt lat="30.9514600" lon="35.3524500">
<ele>-325.499969</ele>
<time>2025-12-29T10:40:13.993Z</time>
</trkpt>
<trkpt lat="30.9515800" lon="35.3524700">
<ele>-326.000000</ele>
<time>2025-12-29T10:40:13.993Z</time>
</trkpt>
<trkpt lat="30.9518300" lon="35.3524900">
<ele>-326.699982</ele>
<time>2025-12-29T10:40:13.993Z</time>
</trkpt>
<trkpt lat="30.9521000" lon="35.3525800">
<ele>-320.990021</ele>
<time>2025-12-29T10:40:13.993Z</time>
</trkpt>
<trkpt lat="30.9521700" lon="35.3526300">
<ele>-319.360016</ele>
<time>2025-12-29T10:40:13.993Z</time>
</trkpt>
<trkpt lat="30.9522000" lon="35.3527400">
<ele>-320.589996</ele>
<time>2025-12-29T10:40:13.993Z</time>
</trkpt>
<trkpt lat="30.9522100" lon="35.3529900">
<ele>-321.739990</ele>
<time>2025-12-29T10:40:13.993Z</time>
</trkpt>
<trkpt lat="30.9522200" lon="35.3530700">
<ele>-321.829987</ele>
<time>2025-12-29T10:40:13.993Z</time>
</trkpt>
<trkpt lat="30.9522500" lon="35.3531500">
<ele>-320.690002</ele>
<time>2025-12-29T10:40:13.993Z</time>
</trkpt>
<trkpt lat="30.9522800" lon="35.3531900">
<ele>-320.209991</ele>
<time>2025-12-29T10:40:13.993Z</time>
</trkpt>
<trkpt lat="30.9523500" lon="35.3532300">
<ele>-319.959991</ele>
<time>2025-12-29T10:40:13.993Z</time>
</trkpt>
<trkpt lat="30.9525800" lon="35.3532900">
<ele>-318.720001</ele>
<time>2025-12-29T10:40:13.993Z</time>
</trkpt>
<trkpt lat="30.9526500" lon="35.3533300">
<ele>-317.600006</ele>
<time>2025-12-29T10:40:13.993Z</time>
</trkpt>
<trkpt lat="30.9527600" lon="35.3534300">
<ele>-314.769989</ele>
<time>2025-12-29T10:40:13.993Z</time>
</trkpt>
<trkpt lat="30.9528000" lon="35.3536200">
<ele>-314.209991</ele>
<time>2025-12-29T10:40:13.993Z</time>
</trkpt>
<trkpt lat="30.9527900" lon="35.3539400">
<ele>-313.920013</ele>
<time>2025-12-29T10:40:13.993Z</time>
</trkpt>
<trkpt lat="30.9528200" lon="35.3540100">
<ele>-312.770020</ele>
<time>2025-12-29T10:40:13.993Z</time>
</trkpt>
<trkpt lat="30.9528600" lon="35.3540700">
<ele>-312.470001</ele>
<time>2025-12-29T10:40:13.993Z</time>
</trkpt>
<trkpt lat="30.9529600" lon="35.3541100">
<ele>-313.869995</ele>
<time>2025-12-29T10:40:13.993Z</time>
</trkpt>
<trkpt lat="30.9531700" lon="35.3541400">
<ele>-316.149994</ele>
<time>2025-12-29T10:40:13.993Z</time>
</trkpt>
<trkpt lat="30.9533600" lon="35.3541400">
<ele>-315.420013</ele>
<time>2025-12-29T10:40:13.993Z</time>
</trkpt>
<trkpt lat="30.9534600" lon="35.3541700">
<ele>-313.829987</ele>
<time>2025-12-29T10:40:13.993Z</time>
</trkpt>
<trkpt lat="30.9535100" lon="35.3542200">
<ele>-313.139984</ele>
<time>2025-12-29T10:40:13.993Z</time>
</trkpt>
<trkpt lat="30.9535400" lon="35.3542900">
<ele>-313.550018</ele>
<time>2025-12-29T10:40:13.993Z</time>
</trkpt>
<trkpt lat="30.9536900" lon="35.3549700">
<ele>-314.610016</ele>
<time>2025-12-29T10:40:13.993Z</time>
</trkpt>
<trkpt lat="30.9537900" lon="35.3552700">
<ele>-313.320007</ele>
<time>2025-12-29T10:40:13.993Z</time>
</trkpt>
<trkpt lat="30.9538900" lon="35.3553900">
<ele>-315.220001</ele>
<time>2025-12-29T10:40:13.993Z</time>
</trkpt>
<trkpt lat="30.9542000" lon="35.3556000">
<ele>-319.000000</ele>
<time>2025-12-29T10:40:13.993Z</time>
</trkpt>
<trkpt lat="30.9545400" lon="35.3559600">
<ele>-318.770020</ele>
<time>2025-12-29T10:40:13.993Z</time>
</trkpt>
<trkpt lat="30.9548200" lon="35.3564300">
<ele>-319.190002</ele>
<time>2025-12-29T10:40:13.993Z</time>
</trkpt>
<trkpt lat="30.9550900" lon="35.3570100">
<ele>-322.089996</ele>
<time>2025-12-29T10:40:13.993Z</time>
</trkpt>
<trkpt lat="30.9552800" lon="35.3572900">
<ele>-324.220001</ele>
<time>2025-12-29T10:40:13.993Z</time>
</trkpt>
<trkpt lat="30.9554700" lon="35.3574600">
<ele>-325.049988</ele>
<time>2025-12-29T10:40:13.993Z</time>
</trkpt>
<trkpt lat="30.9557000" lon="35.3577200">
<ele>-326.770020</ele>
<time>2025-12-29T10:40:13.993Z</time>
</trkpt>
<trkpt lat="30.9559000" lon="35.3578900">
<ele>-326.990021</ele>
<time>2025-12-29T10:40:13.993Z</time>
</trkpt>
<trkpt lat="30.9559700" lon="35.3579800">
<ele>-326.260010</ele>
<time>2025-12-29T10:40:13.993Z</time>
</trkpt>
<trkpt lat="30.9561200" lon="35.3583600">
<ele>-328.260010</ele>
<time>2025-12-29T10:40:13.993Z</time>
</trkpt>
<trkpt lat="30.9561800" lon="35.3586900">
<ele>-331.530029</ele>
<time>2025-12-29T10:40:13.993Z</time>
</trkpt>
<trkpt lat="30.9563200" lon="35.3590800">
<ele>-335.709991</ele>
<time>2025-12-29T10:40:13.993Z</time>
</trkpt>
<trkpt lat="30.9564400" lon="35.3595400">
<ele>-339.889984</ele>
<time>2025-12-29T10:40:13.993Z</time>
</trkpt>
<trkpt lat="30.9565200" lon="35.3602400">
<ele>-343.479980</ele>
<time>2025-12-29T10:40:13.993Z</time>
</trkpt>
<trkpt lat="30.9566000" lon="35.3603900">
<ele>-342.759979</ele>
<time>2025-12-29T10:40:13.993Z</time>
</trkpt>
<trkpt lat="30.9566100" lon="35.3605000">
<ele>-341.869995</ele>
<time>2025-12-29T10:40:13.993Z</time>
</trkpt>
<trkpt lat="30.9565400" lon="35.3607600">
<ele>-339.830017</ele>
<time>2025-12-29T10:40:13.993Z</time>
</trkpt>
<trkpt lat="30.9565500" lon="35.3611700">
<ele>-343.760010</ele>
<time>2025-12-29T10:40:13.993Z</time>
</trkpt>
<trkpt lat="30.9565300" lon="35.3613000">
<ele>-346.250000</ele>
<time>2025-12-29T10:40:13.993Z</time>
</trkpt>
<trkpt lat="30.9564800" lon="35.3614600">
<ele>-349.019989</ele>
<time>2025-12-29T10:40:13.993Z</time>
</trkpt>
<trkpt lat="30.9564800" lon="35.3615900">
<ele>-351.510010</ele>
<time>2025-12-29T10:40:13.993Z</time>
</trkpt>
<trkpt lat="30.9565000" lon="35.3617600">
<ele>-353.669983</ele>
<time>2025-12-29T10:40:13.993Z</time>
</trkpt>
<trkpt lat="30.9565400" lon="35.3619100">
<ele>-354.980011</ele>
<time>2025-12-29T10:40:13.993Z</time>
</trkpt>
<trkpt lat="30.9565700" lon="35.3619800">
<ele>-355.989990</ele>
<time>2025-12-29T10:40:13.993Z</time>
</trkpt>
<trkpt lat="30.9567100" lon="35.3621700">
<ele>-360.369995</ele>
<time>2025-12-29T10:40:13.993Z</time>
</trkpt>
<trkpt lat="30.9567300" lon="35.3622600">
<ele>-361.500031</ele>
<time>2025-12-29T10:40:13.993Z</time>
</trkpt>
<trkpt lat="30.9566800" lon="35.3625800">
<ele>-363.059998</ele>
<time>2025-12-29T10:40:13.993Z</time>
</trkpt>
<trkpt lat="30.9567000" lon="35.3627100">
<ele>-363.210022</ele>
<time>2025-12-29T10:40:13.993Z</time>
</trkpt>
<trkpt lat="30.9567600" lon="35.3628600">
<ele>-363.670013</ele>
<time>2025-12-29T10:40:13.993Z</time>
</trkpt>
<trkpt lat="30.9567900" lon="35.3629900">
<ele>-363.890015</ele>
<time>2025-12-29T10:40:13.993Z</time>
</trkpt>
<trkpt lat="30.9567800" lon="35.3629900">
<ele>-363.819977</ele>
<time>2025-12-29T10:40:13.993Z</time>
</trkpt>
<trkpt lat="30.9567800" lon="35.3629900">
<ele>-363.819977</ele>
<time>2025-12-29T10:40:13.993Z</time>
</trkpt>
<trkpt lat="30.9567900" lon="35.3629900">
<ele>-363.890015</ele>
<time>2025-12-29T10:40:13.993Z</time>
</trkpt>
<trkpt lat="30.9568400" lon="35.3632400">
<ele>-365.160004</ele>
<time>2025-12-29T10:40:13.993Z</time>
</trkpt>
<trkpt lat="30.9568700" lon="35.3633600">
<ele>-366.019989</ele>
<time>2025-12-29T10:40:13.993Z</time>
</trkpt>
<trkpt lat="30.9569400" lon="35.3634200">
<ele>-366.920013</ele>
<time>2025-12-29T10:40:13.993Z</time>
</trkpt>
<trkpt lat="30.9569700" lon="35.3634300">
<ele>-367.079987</ele>
<time>2025-12-29T10:40:13.993Z</time>
</trkpt>
<trkpt lat="30.9569700" lon="35.3634300">
<ele>-367.079987</ele>
<time>2025-12-29T10:40:13.993Z</time>
</trkpt>
<trkpt lat="30.9570400" lon="35.3634500">
<ele>-367.400024</ele>
<time>2025-12-29T10:40:13.993Z</time>
</trkpt>
<trkpt lat="30.9571000" lon="35.3635000">
<ele>-368.139984</ele>
<time>2025-12-29T10:40:13.993Z</time>
</trkpt>
<trkpt lat="30.9571200" lon="35.3636500">
<ele>-370.140015</ele>
<time>2025-12-29T10:40:13.993Z</time>
</trkpt>
<trkpt lat="30.9567900" lon="35.3636600">
<ele>-368.970001</ele>
<time>2025-12-29T10:40:13.993Z</time>
</trkpt>
<trkpt lat="30.9559800" lon="35.3636600">
<ele>-367.839996</ele>
<time>2025-12-29T10:40:13.993Z</time>
</trkpt>
<trkpt lat="30.9559800" lon="35.3638700">
<ele>-371.219971</ele>
<time>2025-12-29T10:40:13.993Z</time>
</trkpt>
<trkpt lat="30.9560500" lon="35.3639000">
<ele>-371.770020</ele>
<time>2025-12-29T10:40:13.993Z</time>
</trkpt>
<trkpt lat="30.9561000" lon="35.3638900">
<ele>-371.959991</ele>
<time>2025-12-29T10:40:13.993Z</time>
</trkpt>
<trkpt lat="30.9561000" lon="35.3638900">
<ele>-371.959991</ele>
<time>2025-12-29T10:40:13.993Z</time>
</trkpt>
<trkpt lat="30.9560500" lon="35.3639000">
<ele>-371.770020</ele>
<time>2025-12-29T10:40:13.993Z</time>
</trkpt>
<trkpt lat="30.9559800" lon="35.3638700">
<ele>-371.219971</ele>
<time>2025-12-29T10:40:13.993Z</time>
</trkpt>
<trkpt lat="30.9559800" lon="35.3636600">
<ele>-367.839996</ele>
<time>2025-12-29T10:40:13.993Z</time>
</trkpt>
<trkpt lat="30.9567900" lon="35.3636600">
<ele>-368.970001</ele>
<time>2025-12-29T10:40:13.993Z</time>
</trkpt>
<trkpt lat="30.9571200" lon="35.3636500">
<ele>-370.140015</ele>
<time>2025-12-29T10:40:13.993Z</time>
</trkpt>
<trkpt lat="30.9574600" lon="35.3636600">
<ele>-371.260010</ele>
<time>2025-12-29T10:40:13.993Z</time>
</trkpt>
<trkpt lat="30.9575800" lon="35.3636400">
<ele>-371.470001</ele>
<time>2025-12-29T10:40:13.993Z</time>
</trkpt>
<trkpt lat="30.9577500" lon="35.3635600">
<ele>-371.510010</ele>
<time>2025-12-29T10:40:13.993Z</time>
</trkpt>
<trkpt lat="30.9577500" lon="35.3640700">
<ele>-374.890015</ele>
<time>2025-12-29T10:40:13.993Z</time>
</trkpt>
<trkpt lat="30.9574200" lon="35.3648500">
<ele>-376.839996</ele>
<time>2025-12-29T10:40:13.993Z</time>
</trkpt>
<trkpt lat="30.9569100" lon="35.3662200">
<ele>-375.920013</ele>
<time>2025-12-29T10:40:13.993Z</time>
</trkpt>
<trkpt lat="30.9563600" lon="35.3671300">
<ele>-377.100006</ele>
<time>2025-12-29T10:40:13.993Z</time>
</trkpt>
<trkpt lat="30.9559600" lon="35.3678600">
<ele>-378.950012</ele>
<time>2025-12-29T10:40:13.993Z</time>
</trkpt>
<trkpt lat="30.9555800" lon="35.3688000">
<ele>-378.910004</ele>
<time>2025-12-29T10:40:13.993Z</time>
</trkpt>
<trkpt lat="30.9551700" lon="35.3698500">
<ele>-378.509979</ele>
<time>2025-12-29T10:40:13.993Z</time>
</trkpt>
<trkpt lat="30.9547700" lon="35.3709900">
<ele>-377.729980</ele>
<time>2025-12-29T10:40:13.993Z</time>
</trkpt>
<trkpt lat="30.9546000" lon="35.3718100">
<ele>-379.090027</ele>
<time>2025-12-29T10:40:13.993Z</time>
</trkpt>
<trkpt lat="30.9542300" lon="35.3732600">
<ele>-378.089996</ele>
<time>2025-12-29T10:40:13.993Z</time>
</trkpt>
<trkpt lat="30.9536700" lon="35.3764800">
<ele>-379.980011</ele>
<time>2025-12-29T10:40:13.993Z</time>
</trkpt>
<trkpt lat="30.9535000" lon="35.3783500">
<ele>-376.269989</ele>
<time>2025-12-29T10:40:13.993Z</time>
</trkpt>
<trkpt lat="30.9533700" lon="35.3785400">
<ele>-377.800018</ele>
<time>2025-12-29T10:40:13.993Z</time>
</trkpt>
<trkpt lat="30.9532900" lon="35.3783500">
<ele>-378.459991</ele>
<time>2025-12-29T10:40:13.993Z</time>
</trkpt>
<trkpt lat="30.9532800" lon="35.3783400">
<ele>-378.570007</ele>
<time>2025-12-29T10:40:13.993Z</time>
</trkpt>
<trkpt lat="30.9532800" lon="35.3783400">
<ele>-378.570007</ele>
<time>2025-12-29T10:40:13.993Z</time>
</trkpt>
<trkpt lat="30.9507700" lon="35.3760900">
<ele>-372.769989</ele>
<time>2025-12-29T10:40:13.993Z</time>
</trkpt>
<trkpt lat="30.9473800" lon="35.3730000">
<ele>-367.309998</ele>
<time>2025-12-29T10:40:13.993Z</time>
</trkpt>
<trkpt lat="30.9445600" lon="35.3705000">
<ele>-360.980011</ele>
<time>2025-12-29T10:40:13.993Z</time>
</trkpt>
<trkpt lat="30.9440700" lon="35.3702000">
<ele>-356.220001</ele>
<time>2025-12-29T10:40:13.993Z</time>
</trkpt>
<trkpt lat="30.9433100" lon="35.3701400">
<ele>-356.000000</ele>
<time>2025-12-29T10:40:13.993Z</time>
</trkpt>
<trkpt lat="30.9431000" lon="35.3701500">
<ele>-356.069977</ele>
<time>2025-12-29T10:40:13.993Z</time>
</trkpt>
<trkpt lat="30.9429400" lon="35.3702600">
<ele>-356.899994</ele>
<time>2025-12-29T10:40:13.993Z</time>
</trkpt>
<trkpt lat="30.9427800" lon="35.3705000">
<ele>-357.009979</ele>
<time>2025-12-29T10:40:13.993Z</time>
</trkpt>
<trkpt lat="30.9425800" lon="35.3707000">
<ele>-355.949982</ele>
<time>2025-12-29T10:40:13.993Z</time>
</trkpt>
<trkpt lat="30.9421800" lon="35.3701800">
<ele>-354.799988</ele>
<time>2025-12-29T10:40:13.993Z</time>
</trkpt>
<trkpt lat="30.9420400" lon="35.3699800">
<ele>-354.540009</ele>
<time>2025-12-29T10:40:13.993Z</time>
</trkpt>
<trkpt lat="30.9418900" lon="35.3696800">
<ele>-352.800018</ele>
<time>2025-12-29T10:40:13.993Z</time>
</trkpt>
<trkpt lat="30.9418200" lon="35.3694900">
<ele>-352.550018</ele>
<time>2025-12-29T10:40:13.993Z</time>
</trkpt>
<trkpt lat="30.9417900" lon="35.3693900">
<ele>-352.750000</ele>
<time>2025-12-29T10:40:13.993Z</time>
</trkpt>
<trkpt lat="30.9418000" lon="35.3692900">
<ele>-353.329987</ele>
<time>2025-12-29T10:40:13.993Z</time>
</trkpt>
<trkpt lat="30.9418200" lon="35.3692100">
<ele>-353.769989</ele>
<time>2025-12-29T10:40:13.993Z</time>
</trkpt>
<trkpt lat="30.9418200" lon="35.3691300">
<ele>-354.130005</ele>
<time>2025-12-29T10:40:13.993Z</time>
</trkpt>
<trkpt lat="30.9418100" lon="35.3691000">
<ele>-354.239990</ele>
<time>2025-12-29T10:40:13.993Z</time>
</trkpt>
<trkpt lat="30.9418300" lon="35.3690100">
<ele>-354.560028</ele>
<time>2025-12-29T10:40:13.993Z</time>
</trkpt>
<trkpt lat="30.9418500" lon="35.3689400">
<ele>-354.820007</ele>
<time>2025-12-29T10:40:13.993Z</time>
</trkpt>
<trkpt lat="30.9418900" lon="35.3688500">
<ele>-354.970001</ele>
<time>2025-12-29T10:40:13.993Z</time>
</trkpt>
<trkpt lat="30.9419900" lon="35.3686800">
<ele>-355.000000</ele>
<time>2025-12-29T10:40:13.993Z</time>
</trkpt>
<trkpt lat="30.9420700" lon="35.3685200">
<ele>-355.000000</ele>
<time>2025-12-29T10:40:13.993Z</time>
</trkpt>
<trkpt lat="30.9420400" lon="35.3684300">
<ele>-355.000000</ele>
<time>2025-12-29T10:40:13.993Z</time>
</trkpt>
<trkpt lat="30.9419500" lon="35.3682400">
<ele>-355.339996</ele>
<time>2025-12-29T10:40:13.993Z</time>
</trkpt>
<trkpt lat="30.9419700" lon="35.3682300">
<ele>-355.370026</ele>
<time>2025-12-29T10:40:13.993Z</time>
</trkpt>
</trkseg>
</trk>
</gpx>
